[[{"header":{"parameterUnit":"m.s-1","parameterCategory":1,"la1":31.0,"la2":29.5877,"lo1":-88.7671,"lo2":-86.6584,"dy":0.0162,"dx":0.0185,"nx":115,"ny":88,"refTime":"2024-07-28T06:00:00:Z","depth":0,"parameterNumber":2,"parameterNumberName":"U-component_of_WINDS"},"data":[0.0,0.0,0.0,0.0,0.0,0.0,0.0,0.0,0.0,0.0,0.0,0.0,0.0,0.0,0.0,0.0,0.0,0.0,0.0,0.0,0.0,0.0,0.0,0.0,0.0,0.0,0.0,0.0,0.0,0.0,0.0,0.0,0.0,0.0,0.0,0.0,0.0,0.0,0.0,0.0,0.0,0.0,0.0,0.0,0.0,0.0,0.0,0.0,0.0,0.0,0.0,0.0,0.0,0.0,0.0,0.0,0.0,0.0,0.0,0.0,0.0,0.0,0.0,0.0,0.0,0.0,0.0,0.0,0.0,0.0,0.0,0.0,0.0,0.0,0.0,0.0,0.0,0.0,0.0,0.0,0.0,0.0,0.0,0.0,0.0,0.0,0.0,0.0,0.0,0.0,0.0,0.0,0.0,0.0,0.0,0.0,0.0,0.0,0.0,0.0,0.0,0.0,0.0,0.0,0.0,0.0,0.0,0.0,0.0,0.0,0.0,0.0,0.0,0.0,0.0,0.0,0.0,0.0,0.0,0.0,0.0,0.0,0.0,0.0,0.0,0.0,0.0,0.0,0.0,0.0,0.0,0.0,0.0,0.0,0.0,0.0,0.0,0.0,0.0,0.0,0.0,0.0,0.0,0.0,0.0,0.0,0.0,0.0,0.0,0.0,0.0,0.0,0.0,0.0,0.0,0.0,0.0,0.0,0.0,0.0,0.0,0.0,0.0,0.0,0.0,0.0,0.0,0.0,0.0,0.0,0.0,0.0,0.0,0.0,0.0,0.0,0.0,0.0,0.0,0.0,0.0,0.0,0.0,0.0,0.0,0.0,0.0,0.0,0.0,0.0,0.0,0.0,0.0,0.0,0.0,0.0,0.0,0.0,0.0,0.0,0.0,0.0,0.0,0.0,0.0,0.0,0.0,0.0,0.0,0.0,0.0,0.0,0.0,0.0,0.0,0.0,0.0,0.0,0.0,0.0,0.0,0.0,0.0,0.0,0.0,0.0,0.0,0.0,0.0,0.0,0.0,0.0,0.0,0.0,0.0,0.0,0.0,0.0,0.0,0.0,0.0,0.0,0.0,0.0,0.0,0.0,0.0,0.0,0.0,0.0,0.0,0.0,0.0,0.0,0.0,0.0,0.0,0.0,0.0,0.0,0.0,0.0,0.0,0.0,0.0,0.0,0.0,0.0,0.0,0.0,0.0,0.0,0.0,0.0,0.0,0.0,0.0,0.0,0.0,0.0,0.0,0.0,0.0,0.0,0.0,0.0,0.0,0.0,0.0,0.0,0.0,0.0,0.0,0.0,0.0,0.0,0.0,0.0,0.0,0.0,0.0,0.0,0.0,0.0,0.0,0.0,0.0,0.0,0.0,0.0,0.0,0.0,0.0,0.0,0.0,0.0,0.0,0.0,0.0,0.0,0.0,0.0,0.0,0.0,0.0,0.0,0.0,0.0,0.0,0.0,0.0,0.0,0.0,0.0,0.0,0.0,0.0,0.0,0.0,0.0,0.0,0.0,0.0,0.0,0.0,0.0,0.0,0.0,0.0,0.0,0.0,0.0,0.0,0.0,0.0,0.0,0.0,0.0,0.0,0.0,0.0,0.0,0.0,0.0,0.0,0.0,0.0,0.0,0.0,0.0,0.0,0.0,0.0,0.0,0.0,0.0,0.0,0.0,0.0,0.0,0.0,0.0,0.0,0.0,0.0,0.0,0.0,0.0,0.0,0.0,0.0,0.0,0.0,0.0,0.0,0.0,0.0,0.0,0.0,0.0,0.0,0.0,0.0,0.0,0.0,0.0,0.0,0.0,0.0,0.0,0.0,0.0,0.0,0.0,0.0,0.0,0.0,0.0,0.0,0.0,0.0,0.0,0.0,0.0,0.0,0.0,0.0,0.0,0.0,0.0,0.0,0.0,0.0,0.0,0.0,0.0,0.0,0.0,0.0,0.0,0.0,0.0,0.0,0.0,0.0,0.0,0.0,0.0,0.0,0.0,0.0,0.0,0.0,0.0,0.0,0.0,0.0,0.0,0.0,0.0,0.0,0.0,0.0,0.0,0.0,0.0,0.0,0.0,0.0,0.0,0.0,0.0,0.0,0.0,0.0,0.0,0.0,0.0,0.0,0.0,0.0,0.0,0.0,0.0,0.0,0.0,0.0,0.0,0.0,0.0,0.0,0.0,0.0,0.0,0.0,0.0,0.0,0.0,0.0,0.0,0.0,0.0,0.0,0.0,0.0,0.0,0.0,0.0,0.0,0.0,0.0,0.0,0.0,0.0,0.0,0.0,0.0,0.0,0.0,0.0,0.0,0.0,0.0,0.0,0.0,0.0,0.0,0.0,0.0,0.0,0.0,0.0,0.0,0.0,0.0,0.0,0.0,0.0,0.0,0.0,0.0,0.0,0.0,0.0,0.0,0.0,0.0,0.0,0.0,0.0,0.0,0.0,0.0,0.0,0.0,0.0,0.0,0.0,0.0,0.0,0.0,0.0,0.0,0.0,0.0,0.0,0.0,0.0,0.0,0.0,0.0,0.0,0.0,0.0,0.0,0.0,0.0,0.0,0.0,0.0,0.0,0.0,0.0,0.0,0.0,0.0,0.0,0.0,0.0,0.0,0.0,0.0,0.0,0.0,0.0,0.0,0.0,0.0,0.0,0.0,0.0,0.0,0.0,0.0,0.0,0.0,0.0,0.0,0.0,0.0,0.0,0.0,0.0,0.0,0.0,0.0,0.0,0.0,0.0,0.0,0.0,0.0,0.0,0.0,0.0,0.0,0.0,0.0,0.0,0.0,0.0,0.0,0.0,0.0,0.0,0.0,0.0,0.0,0.0,0.0,0.0,0.0,0.0,0.0,0.0,0.0,0.0,0.0,0.0,0.0,0.0,0.0,0.0,0.0,0.0,0.0,0.0,0.0,0.0,0.0,0.0,0.0,0.0,0.0,0.0,0.0,0.0,0.0,0.0,0.0,0.0,0.0,0.0,0.0,0.0,0.0,0.0,0.0,0.0,0.0,0.0,0.0,0.0,0.0,0.0,0.0,0.0,0.0,0.0,0.0,0.0,0.0,0.0,0.0,0.0,0.0,0.0,0.0,0.0,0.0,0.0,0.0,0.0,0.0,0.0,0.0,0.0,0.0,0.0,0.0,0.0,0.0,0.0,0.0,0.0,0.0,0.0,0.0,0.0,0.0,0.0,0.0,0.0,0.0,0.0,0.0,0.0,0.0,0.0,0.0,0.0,0.0,0.0,0.0,0.0,0.0,0.0,0.0,0.0,0.0,0.0,0.0,0.0,0.0,0.0,0.0,0.0,0.0,0.0,0.0,0.0,0.0,0.0,0.0,0.0,0.0,0.0,0.0,0.0,0.0,0.0,0.0,0.0,0.0,0.0,0.0,0.0,0.0,0.0,0.0,0.0,0.0,0.0,0.0,0.0,0.0,0.0,0.0,0.0,0.0,0.0,0.0,0.0,0.0,0.0,0.0,0.0,0.0,0.0,0.0,0.0,0.0,0.0,0.0,0.0,0.0,0.0,0.0,0.0,0.0,0.0,0.0,0.0,0.0,0.0,0.0,0.0,0.0,0.0,0.0,0.0,0.0,0.0,0.0,0.0,0.0,0.0,0.0,0.0,0.0,0.0,0.0,0.0,0.0,0.0,0.0,0.0,0.0,0.0,0.0,0.0,0.0,0.0,0.0,0.0,0.0,0.0,0.0,0.0,0.0,0.0,0.0,0.0,0.0,0.0,0.0,0.0,0.0,0.0,0.0,0.0,0.0,0.0,0.0,0.0,0.0,0.0,0.0,0.0,0.0,0.0,0.0,0.0,0.0,0.0,0.0,0.0,0.0,0.0,0.0,0.0,0.0,0.0,0.0,0.0,0.0,0.0,0.0,0.0,0.0,0.0,0.0,0.0,0.0,0.0,0.0,0.0,0.0,0.0,0.0,0.0,0.0,0.0,0.0,0.0,0.0,0.0,0.0,0.0,0.0,0.0,0.0,0.0,0.0,0.0,0.0,0.0,0.0,0.0,0.0,0.0,0.0,0.0,0.0,0.0,0.0,0.0,0.0,0.0,0.0,0.0,0.0,0.0,0.0,0.0,0.0,0.0,0.0,0.0,0.0,0.0,0.0,0.0,0.0,0.0,0.0,0.0,0.0,0.0,0.0,0.0,0.0,0.0,0.0,0.0,0.0,0.0,0.0,0.0,0.0,0.0,0.0,0.0,0.0,0.0,0.0,0.0,0.0,0.0,0.0,0.0,0.0,0.0,0.0,0.0,0.0,-0.7693,0.0,0.0,0.0,0.0,0.0,0.0,0.0,0.0,0.0,0.0,0.0,0.0,0.0,0.0,0.0,0.0,0.0,0.0,0.0,0.0,0.0,0.0,0.0,0.0,0.0,0.0,0.0,0.0,0.0,0.0,0.0,0.0,0.0,0.0,0.0,0.0,0.0,0.0,0.0,0.0,0.0,0.0,0.0,0.0,0.0,0.0,0.0,0.0,0.0,0.0,0.0,0.0,0.0,0.0,0.0,0.0,0.0,0.0,0.0,0.0,0.0,0.0,0.0,0.0,0.0,0.0,0.0,0.0,0.0,0.0,0.0,0.0,0.0,0.0,0.0,0.0,0.0,0.0,0.0,0.0,0.0,0.0,0.0,0.0,0.0,0.0,0.0,0.0,0.0,0.0,0.0,0.0,0.0,0.0,0.0,0.0,0.0,0.0,0.0,0.0,0.0,0.0,0.0,0.0,0.0,0.0,0.0,0.0,0.0,0.0,-0.9304,-0.8776,-0.8747,-0.831,-0.7435,0.0,0.0,0.0,0.0,0.0,0.0,0.0,0.0,0.0,0.0,0.0,0.0,0.0,0.0,0.0,0.0,0.0,0.0,0.0,0.0,0.0,0.0,0.0,0.0,0.0,0.0,0.0,0.0,0.0,0.0,0.0,0.0,0.0,0.0,0.0,0.0,0.0,0.0,0.0,0.0,0.0,0.0,0.0,0.0,0.0,0.0,0.0,0.0,0.0,0.0,0.0,0.0,0.0,0.0,0.0,0.0,0.0,0.0,0.0,0.0,0.0,0.0,0.0,0.0,0.0,0.0,0.0,0.0,0.0,0.0,0.0,0.0,0.0,0.0,0.0,0.0,0.0,0.0,0.0,0.0,0.0,0.0,0.0,0.0,0.0,0.0,0.0,0.0,0.0,0.0,0.0,0.0,0.0,0.0,0.0,0.0,0.0,0.0,0.0,0.0,0.0,0.0,0.0,0.0,0.0,0.0,0.0,0.0,0.0,0.0,0.0,0.0,-0.866,-0.8354,-0.7751,0.0,0.0,0.0,0.0,0.0,0.0,0.0,0.0,0.0,0.0,0.0,0.0,0.0,0.0,0.0,0.0,0.0,0.0,0.0,0.0,0.0,0.0,0.0,0.0,0.0,0.0,0.0,0.0,0.0,0.0,0.0,0.0,0.0,0.0,0.0,0.0,0.0,0.0,0.0,0.0,0.0,0.0,0.0,0.0,0.0,0.0,0.0,0.0,0.0,0.0,0.0,0.0,0.0,0.0,0.0,0.0,0.0,0.0,0.0,0.0,0.0,0.0,0.0,0.0,0.0,0.0,0.0,0.0,0.0,0.0,0.0,0.0,0.0,0.0,0.0,0.0,0.0,0.0,0.0,0.0,0.0,0.0,0.0,0.0,0.0,0.0,0.0,0.0,0.0,0.0,0.0,0.0,0.0,0.0,0.0,0.0,0.0,0.0,0.0,0.0,0.0,0.0,0.0,0.0,0.0,0.0,0.0,0.0,0.0,0.0,-0.8333,-0.9973,-0.9988,0.0,-0.9266,0.0,0.0,0.0,0.0,0.0,0.0,0.0,0.0,0.0,0.0,0.0,0.0,0.0,0.0,0.0,0.0,0.0,0.0,0.0,0.0,0.0,0.0,0.0,0.0,0.0,0.0,0.0,0.0,0.0,0.0,0.0,0.0,0.0,0.0,0.0,0.0,0.0,0.0,0.0,0.0,0.0,0.0,0.0,0.0,0.0,0.0,0.0,0.0,0.0,0.0,0.0,0.0,0.0,0.0,0.0,0.0,0.0,0.0,0.0,0.0,0.0,0.0,0.0,0.0,0.0,0.0,0.0,0.0,0.0,0.0,0.0,0.0,0.0,0.0,0.0,0.0,0.0,0.0,0.0,0.0,0.0,0.0,0.0,0.0,0.0,0.0,0.0,0.0,0.0,0.0,0.0,0.0,0.0,0.0,0.0,0.0,0.0,0.0,0.0,0.0,0.0,0.0,0.0,0.0,0.0,0.0,0.0,0.0,0.0,0.0,0.0,-0.9536,-0.9549,-0.9434,0.0,0.0,0.0,0.0,0.0,0.0,0.0,0.0,0.0,0.0,0.0,0.0,0.0,0.0,0.0,0.0,0.0,0.0,0.0,0.0,0.0,0.0,0.0,0.0,0.0,0.0,0.0,0.0,0.0,0.0,0.0,0.0,0.0,0.0,0.0,0.0,0.0,0.0,0.0,0.0,0.0,0.0,0.0,0.0,0.0,0.0,0.0,0.0,0.0,0.0,0.0,0.0,0.0,0.0,0.0,0.0,0.0,0.0,0.0,0.0,0.0,0.0,0.0,0.0,0.0,0.0,0.0,0.0,0.0,0.0,0.0,0.0,0.0,0.0,0.0,0.0,0.0,0.0,0.0,0.0,0.0,0.0,0.0,0.0,0.0,0.0,0.0,0.0,0.0,0.0,0.0,0.0,0.0,0.0,0.0,0.0,0.0,0.0,0.0,0.0,0.0,0.0,0.0,0.0,0.0,0.0,0.0,0.0,0.0,0.0,-0.8914,0.0,-0.9755,-0.9793,-0.9579,-0.9126,0.0,0.0,0.0,0.0,0.0,0.0,0.0,0.0,0.0,0.0,0.0,0.0,0.0,0.0,0.0,0.0,0.0,0.0,0.0,0.0,0.0,0.0,0.0,0.0,0.0,0.0,0.0,0.0,0.0,0.0,0.0,0.0,0.0,0.0,0.0,0.0,0.0,0.0,0.0,0.0,0.0,0.0,0.0,0.0,0.0,0.0,0.0,0.0,0.0,0.0,0.0,0.0,0.0,0.0,0.0,0.0,0.0,0.0,0.0,0.0,0.0,0.0,0.0,0.0,0.0,0.0,0.0,0.0,0.0,0.0,0.0,0.0,0.0,0.0,0.0,0.0,0.0,0.0,0.0,0.0,0.0,0.0,0.0,0.0,0.0,0.0,0.0,0.0,0.0,0.0,0.0,0.0,0.0,0.0,0.0,0.0,0.0,0.0,0.0,0.0,0.0,0.0,0.0,0.0,0.0,0.0,0.0,0.0,0.0,-0.9868,-0.9881,-1.1425,-1.1492,-1.0721,0.0,0.0,0.0,0.0,0.0,0.0,0.0,0.0,0.0,0.0,0.0,0.0,0.0,0.0,0.0,0.0,0.0,0.0,0.0,0.0,0.0,0.0,0.0,0.0,0.0,0.0,0.0,0.0,0.0,0.0,0.0,0.0,0.0,0.0,0.0,0.0,0.0,0.0,0.0,0.0,0.0,0.0,0.0,0.0,0.0,0.0,0.0,0.0,0.0,0.0,0.0,0.0,0.0,0.0,0.0,0.0,0.0,0.0,0.0,0.0,0.0,0.0,0.0,0.0,0.0,0.0,0.0,0.0,0.0,0.0,0.0,0.0,0.0,0.0,0.0,0.0,0.0,0.0,0.0,0.0,0.0,0.0,0.0,0.0,0.0,0.0,0.0,0.0,0.0,0.0,0.0,0.0,0.0,0.0,0.0,0.0,0.0,0.0,0.0,0.0,0.0,0.0,0.0,0.0,0.0,0.0,0.0,0.0,0.0,-0.8349,-0.8838,-1.0422,-1.299,-1.114,-1.0221,0.0,0.0,0.0,0.0,0.0,0.0,0.0,0.0,0.0,0.0,0.0,0.0,0.0,0.0,0.0,0.0,0.0,0.0,0.0,0.0,0.0,0.0,0.0,0.0,0.0,0.0,0.0,0.0,0.0,0.0,0.0,0.0,0.0,0.0,0.0,0.0,0.0,0.0,0.0,0.0,0.0,0.0,0.0,0.0,0.0,0.0,0.0,0.0,0.0,0.0,0.0,0.0,0.0,0.0,0.0,0.0,0.0,0.0,0.0,0.0,0.0,0.0,0.0,0.0,0.0,0.0,0.0,0.0,0.0,0.0,0.0,0.0,0.0,0.0,0.0,0.0,0.0,0.0,0.0,0.0,0.0,0.0,0.0,0.0,0.0,0.0,0.0,0.0,0.0,0.0,0.0,0.0,0.0,0.0,0.0,0.0,0.0,0.0,0.0,0.0,0.0,0.0,0.0,0.0,0.0,0.0,0.0,0.0,0.0,-0.8223,0.0,-1.1643,0.0,-1.119,-1.0006,0.0,0.0,0.0,0.0,0.0,0.0,0.0,0.0,0.0,0.0,0.0,0.0,0.0,0.0,0.0,0.0,0.0,0.0,0.0,0.0,0.0,0.0,0.0,0.0,0.0,0.0,0.0,0.0,0.0,0.0,0.0,0.0,0.0,0.0,0.0,0.0,0.0,0.0,0.0,0.0,0.0,0.0,0.0,0.0,0.0,0.0,0.0,0.0,0.0,0.0,0.0,0.0,0.0,0.0,0.0,0.0,0.0,0.0,0.0,0.0,0.0,0.0,0.0,0.0,0.0,0.0,0.0,0.0,0.0,0.0,0.0,0.0,0.0,0.0,0.0,0.0,0.0,0.0,0.0,0.0,0.0,0.0,0.0,0.0,0.0,0.0,0.0,0.0,0.0,0.0,0.0,0.0,0.0,0.0,0.0,0.0,0.0,0.0,0.0,0.0,0.0,0.0,0.0,0.0,0.0,0.0,0.0,0.0,-0.8273,-1.1399,-1.3065,-1.3393,-1.2479,-1.1839,-1.027,0.0,0.0,0.0,0.0,0.0,0.0,0.0,0.0,0.0,0.0,0.0,0.0,0.0,0.0,0.0,0.0,0.0,0.0,0.0,0.0,0.0,0.0,0.0,0.0,0.0,0.0,0.0,0.0,0.0,0.0,0.0,0.0,0.0,0.0,0.0,0.0,0.0,0.0,0.0,0.0,0.0,0.0,0.0,0.0,0.0,0.0,0.0,0.0,0.0,0.0,0.0,0.0,0.0,0.0,0.0,0.0,0.0,0.0,0.0,0.0,0.0,0.0,0.0,0.0,0.0,0.0,0.0,0.0,0.0,0.0,0.0,0.0,0.0,0.0,0.0,0.0,0.0,0.0,0.0,0.0,0.0,0.0,0.0,0.0,0.0,0.0,0.0,0.0,0.0,0.0,0.0,0.0,0.0,0.0,0.0,0.0,0.0,0.0,0.0,0.0,0.0,0.0,0.0,0.0,0.0,0.0,0.0,0.0,0.0,-1.0445,-1.1688,-1.2918,-1.3997,-1.1713,-1.0571,0.0,0.0,0.0,0.0,0.0,0.0,0.0,0.0,0.0,0.0,0.0,0.0,0.0,0.0,0.0,0.0,0.0,0.0,0.0,0.0,0.0,0.0,0.0,0.0,0.0,0.0,0.0,0.0,0.0,0.0,0.0,0.0,0.0,0.0,0.0,0.0,0.0,0.0,0.0,0.0,0.0,0.0,0.0,0.0,0.0,0.0,0.0,0.0,0.0,0.0,0.0,0.0,0.0,0.0,0.0,0.0,0.0,0.0,0.0,0.0,0.0,0.0,0.0,0.0,0.0,0.0,0.0,0.0,0.0,0.0,0.0,0.0,0.0,0.0,0.0,0.0,0.0,0.0,0.0,0.0,0.0,0.0,0.0,0.0,0.0,0.0,0.0,0.0,0.0,0.0,0.0,0.0,0.0,0.0,0.0,0.0,0.0,0.0,0.0,0.0,0.0,0.0,0.0,0.0,0.0,0.0,0.0,0.0,0.0,-1.2416,-1.327,-1.4199,-1.5193,-1.2776,-1.155,-1.1683,0.0,0.0,0.0,0.0,0.0,0.0,0.0,0.0,0.0,0.0,0.0,0.0,0.0,0.0,0.0,0.0,0.0,0.0,0.0,0.0,0.0,0.0,0.0,0.0,0.0,0.0,0.0,0.0,0.0,0.0,0.0,0.0,0.0,0.0,0.0,0.0,0.0,0.0,0.0,0.0,0.0,0.0,0.0,0.0,0.0,0.0,0.0,0.0,0.0,0.0,0.0,0.0,0.0,0.0,0.0,0.0,0.0,0.0,0.0,0.0,0.0,0.0,0.0,0.0,0.0,0.0,0.0,0.0,0.0,0.0,0.0,0.0,0.0,0.0,0.0,0.0,0.0,0.0,0.0,0.0,0.0,0.0,0.0,0.0,0.0,0.0,0.0,0.0,0.0,0.0,0.0,0.0,0.0,0.0,0.0,0.0,0.0,0.0,0.0,0.0,0.0,0.0,0.0,0.0,0.0,0.0,0.0,0.0,-1.6522,-1.72,-1.6999,-1.5982,-1.4802,-1.3153,0.0,0.0,0.0,0.0,0.0,0.0,0.0,0.0,0.0,0.0,0.0,0.0,0.0,0.0,0.0,0.0,0.0,0.0,0.0,0.0,0.0,0.0,0.0,0.0,0.0,0.0,0.0,0.0,0.0,0.0,0.0,0.0,0.0,0.0,0.0,0.0,0.0,0.0,0.0,0.0,0.0,0.0,0.0,0.0,0.0,0.0,0.0,0.0,0.0,0.0,0.0,0.0,0.0,0.0,0.0,0.0,0.0,0.0,0.0,0.0,0.0,0.0,0.0,0.0,0.0,0.0,0.0,0.0,0.0,0.0,0.0,0.0,0.0,0.0,0.0,0.0,0.0,0.0,0.0,0.0,0.0,0.0,0.0,0.0,0.0,0.0,0.0,0.0,0.0,0.0,0.0,0.0,0.0,0.0,0.0,0.0,0.0,0.0,0.0,0.0,0.0,0.0,0.0,0.0,0.0,0.0,0.0,0.0,0.0,-1.7099,-1.8468,-1.9032,-1.8681,-1.6484,-1.4651,0.0,0.0,0.0,0.0,0.0,0.0,0.0,0.0,0.0,0.0,0.0,0.0,0.0,0.0,0.0,0.0,0.0,0.0,0.0,0.0,0.0,0.0,0.0,0.0,0.0,0.0,0.0,0.0,0.0,0.0,0.0,0.0,0.0,0.0,0.0,0.0,0.0,0.0,0.0,0.0,0.0,0.0,0.0,0.0,0.0,0.0,0.0,0.0,0.0,0.0,0.0,0.0,0.0,0.0,0.0,0.0,0.0,0.0,0.0,0.0,0.0,0.0,0.0,0.0,0.0,0.0,0.0,0.0,0.0,0.0,0.0,0.0,0.0,0.0,0.0,0.0,0.0,0.0,0.0,0.0,0.0,0.0,0.0,0.0,0.0,0.0,0.0,0.0,0.0,0.0,0.0,0.0,0.0,0.0,0.0,0.0,0.0,0.0,0.0,0.0,0.0,0.0,0.0,0.0,0.0,0.0,0.0,0.0,-1.62,-1.8355,-1.9999,-2.0865,-2.0865,-1.8631,-1.6459,0.0,0.0,0.0,0.0,0.0,0.0,0.0,0.0,0.0,0.0,0.0,0.0,0.0,0.0,0.0,0.0,0.0,0.0,0.0,0.0,0.0,0.0,0.0,0.0,0.0,0.0,0.0,0.0,0.0,0.0,0.0,0.0,0.0,0.0,0.0,0.0,0.0,0.0,0.0,0.0,0.0,0.0,0.0,0.0,0.0,0.0,0.0,0.0,0.0,0.0,0.0,0.0,0.0,0.0,0.0,0.0,0.0,0.0,0.0,0.0,0.0,0.0,0.0,0.0,0.0,0.0,0.0,0.0,0.0,0.0,0.0,0.0,0.0,0.0,0.0,0.0,0.0,0.0,0.0,0.0,0.0,0.0,0.0,0.0,0.0,0.0,0.0,0.0,0.0,0.0,0.0,0.0,0.0,0.0,0.0,0.0,0.0,0.0,0.0,0.0,0.0,0.0,0.0,0.0,0.0,0.0,0.0,0.0,-1.7652,-1.9761,-2.1443,-2.2322,-2.2272,-2.0627,-1.8254,0.0,0.0,0.0,0.0,0.0,0.0,0.0,0.0,0.0,0.0,0.0,0.0,0.0,0.0,0.0,0.0,0.0,0.0,0.0,0.0,0.0,0.0,0.0,0.0,0.0,0.0,0.0,0.0,0.0,0.0,0.0,0.0,0.0,0.0,0.0,0.0,0.0,0.0,0.0,0.0,0.0,0.0,0.0,0.0,0.0,0.0,0.0,0.0,0.0,0.0,0.0,0.0,0.0,0.0,0.0,0.0,0.0,0.0,0.0,0.0,0.0,0.0,0.0,0.0,0.0,0.0,0.0,0.0,0.0,0.0,0.0,0.0,0.0,0.0,0.0,0.0,0.0,0.0,0.0,0.0,0.0,0.0,0.0,0.0,0.0,0.0,0.0,0.0,0.0,0.0,0.0,0.0,0.0,0.0,0.0,0.0,0.0,0.0,0.0,0.0,0.0,0.0,0.0,0.0,0.0,0.0,0.0,0.0,-1.8041,-1.9773,-2.1443,-2.2322,-2.2297,-2.0235,-1.8194,0.0,0.0,0.0,0.0,0.0,0.0,0.0,0.0,0.0,0.0,0.0,0.0,0.0,0.0,0.0,0.0,0.0,0.0,0.0,0.0,0.0,0.0,0.0,0.0,0.0,0.0,0.0,0.0,0.0,0.0,0.0,0.0,0.0,0.0,0.0,0.0,0.0,0.0,0.0,0.0,0.0,0.0,0.0,0.0,0.0,0.0,0.0,0.0,-0.6113,0.0,0.0,0.0,0.0,0.0,0.0,0.0,0.0,0.0,0.0,0.0,0.0,0.0,0.0,0.0,0.0,0.0,0.0,0.0,0.0,0.0,0.0,0.0,0.0,0.0,0.0,0.0,0.0,0.0,0.0,0.0,0.0,0.0,0.0,0.0,0.0,0.0,0.0,0.0,0.0,0.0,0.0,0.0,0.0,0.0,0.0,0.0,0.0,0.0,0.0,0.0,0.0,0.0,0.0,0.0,0.0,0.0,0.0,0.0,-1.8819,-2.02,-2.1832,-2.2521,-2.2077,-2.0586,-1.8894,0.0,0.0,0.0,0.0,0.0,0.0,0.0,0.0,0.0,0.0,0.0,0.0,0.0,0.0,0.0,0.0,0.0,0.0,0.0,0.0,0.0,0.0,0.0,0.0,0.0,0.0,0.0,0.0,0.0,0.0,0.0,0.0,0.0,0.0,0.0,0.0,0.0,0.0,0.0,0.0,0.0,0.0,0.0,0.0,0.0,0.0,0.0,0.0,0.0,0.0,0.0,0.0,0.0,0.0,0.0,0.0,0.0,0.0,0.0,0.0,0.0,0.0,0.0,0.0,0.0,0.0,0.0,0.0,0.0,0.0,0.0,0.0,0.0,0.0,0.0,0.0,0.0,0.0,0.0,0.0,0.0,0.0,0.0,0.0,0.0,0.0,0.0,0.0,0.0,0.0,0.0,0.0,0.0,0.0,0.0,0.0,0.0,0.0,0.0,0.0,0.0,0.0,0.0,0.0,0.0,0.0,0.0,-1.7003,-1.9294,-2.0603,-2.2018,-2.2384,-2.1729,-2.0913,-1.9438,-1.7288,0.0,0.0,0.0,0.0,0.0,0.0,0.0,0.0,0.0,0.0,0.0,0.0,0.0,0.0,0.0,0.0,0.0,0.0,0.0,0.0,0.0,0.0,0.0,0.0,0.0,0.0,0.0,0.0,0.0,0.0,0.0,0.0,0.0,0.0,0.0,0.0,0.0,0.0,-0.6006,-0.7207,0.0,0.0,0.0,0.0,0.0,0.0,0.0,0.0,-0.6951,0.0,0.0,0.0,0.0,0.0,0.0,0.0,0.0,0.0,0.0,0.0,0.0,0.0,0.0,0.0,0.0,0.0,0.0,0.0,0.0,0.0,0.0,0.0,0.0,0.0,0.0,0.0,0.0,0.0,0.0,0.0,0.0,0.0,0.0,0.0,0.0,0.0,0.0,0.0,0.0,0.0,0.0,0.0,0.0,0.0,0.0,0.0,0.0,0.0,0.0,0.0,0.0,0.0,0.0,0.0,0.0,-1.589,-1.6809,-1.8239,-2.0232,-2.0784,-2.0974,-2.0824,-1.9852,-1.8406,-1.6447,0.0,0.0,0.0,0.0,0.0,0.0,0.0,0.0,0.0,0.0,0.0,0.0,0.0,0.0,0.0,0.0,0.0,0.0,0.0,0.0,0.0,0.0,0.0,0.0,0.0,0.0,0.0,0.0,0.0,0.0,0.0,0.0,0.0,0.0,0.0,0.0,0.0,0.0,0.0,-0.8474,-0.9184,0.0,0.0,0.0,0.0,0.0,0.0,0.0,0.0,-0.6902,0.0,0.0,0.0,0.0,0.0,0.0,0.0,0.0,0.0,0.0,0.0,0.0,0.0,0.0,0.0,0.0,0.0,0.0,0.0,0.0,0.0,0.0,0.0,0.0,0.0,0.0,0.0,0.0,0.0,0.0,0.0,0.0,0.0,0.0,0.0,0.0,0.0,0.0,0.0,0.0,0.0,0.0,0.0,0.0,0.0,0.0,0.0,0.0,0.0,0.0,0.0,0.0,0.0,0.0,0.0,-1.4678,-1.64,-1.8015,-1.9609,-2.0262,-2.0275,-1.9543,-1.8636,-1.7059,0.0,0.0,0.0,0.0,0.0,0.0,0.0,0.0,0.0,0.0,0.0,0.0,0.0,0.0,0.0,0.0,0.0,0.0,0.0,0.0,0.0,0.0,0.0,0.0,0.0,0.0,0.0,0.0,0.0,0.0,0.0,0.0,0.0,0.0,0.0,0.0,0.0,0.0,0.0,0.0,-0.9307,-0.9971,-0.999,0.0,0.0,0.0,0.0,0.0,0.0,-0.7812,-0.7239,0.0,0.0,0.0,0.0,0.0,0.0,0.0,0.0,0.0,0.0,0.0,0.0,0.0,0.0,0.0,0.0,0.0,0.0,0.0,0.0,0.0,0.0,0.0,0.0,0.0,0.0,0.0,0.0,0.0,0.0,0.0,0.0,0.0,0.0,0.0,0.0,0.0,0.0,0.0,0.0,0.0,0.0,0.0,0.0,0.0,0.0,0.0,0.0,0.0,0.0,0.0,0.0,0.0,0.0,0.0,-1.3189,-1.5731,-1.7644,-1.878,-1.9646,-1.9523,-1.8415,-1.7453,-1.587,0.0,0.0,0.0,0.0,0.0,0.0,0.0,0.0,0.0,0.0,0.0,0.0,0.0,0.0,0.0,0.0,0.0,0.0,0.0,0.0,0.0,0.0,0.0,0.0,0.0,0.0,0.0,0.0,0.0,0.0,0.0,0.0,0.0,0.0,0.0,0.0,0.0,0.0,0.0,0.0,0.0,-1.0615,-1.0682,-1.0491,0.0,0.0,0.0,0.0,-0.8915,-0.8307,0.0,0.0,0.0,0.0,0.0,0.0,0.0,0.0,0.0,0.0,0.0,0.0,0.0,0.0,0.0,0.0,0.0,0.0,0.0,0.0,0.0,0.0,0.0,0.0,0.0,0.0,0.0,0.0,0.0,0.0,0.0,0.0,0.0,0.0,0.0,0.0,0.0,0.0,0.0,0.0,0.0,0.0,0.0,0.0,0.0,0.0,0.0,0.0,0.0,0.0,0.0,0.0,0.0,0.0,0.0,0.0,-1.3122,-1.4412,-1.5995,-1.785,-1.8187,-1.8071,-1.7579,-1.6663,-1.5196,0.0,0.0,0.0,0.0,0.0,0.0,0.0,0.0,0.0,0.0,0.0,0.0,0.0,0.0,0.0,0.0,0.0,0.0,0.0,0.0,0.0,0.0,0.0,0.0,0.0,0.0,0.0,0.0,0.0,0.0,0.0,0.0,0.0,0.0,0.0,0.0,0.0,0.0,0.0,0.0,0.0,-1.123,-1.0148,-1.0326,-1.0075,0.0,0.0,-0.8988,-0.8882,-0.8526,0.0,0.0,0.0,0.0,0.0,0.0,0.0,0.0,0.0,0.0,0.0,0.0,0.0,0.0,0.0,0.0,0.0,0.0,0.0,0.0,0.0,0.0,0.0,0.0,0.0,0.0,0.0,0.0,0.0,0.0,0.0,0.0,0.0,0.0,0.0,0.0,0.0,0.0,0.0,0.0,0.0,0.0,0.0,0.0,0.0,0.0,0.0,0.0,0.0,0.0,0.0,0.0,0.0,0.0,0.0,-1.0148,-1.2256,-1.4143,-1.574,-1.7109,-1.7691,-1.7686,-1.7021,-1.5684,-1.4199,0.0,0.0,0.0,0.0,0.0,0.0,0.0,0.0,0.0,0.0,0.0,0.0,0.0,0.0,0.0,0.0,0.0,0.0,0.0,0.0,0.0,0.0,0.0,0.0,0.0,0.0,0.0,0.0,0.0,0.0,0.0,0.0,0.0,0.0,0.0,0.0,0.0,0.0,0.0,0.0,0.0,0.0,-1.101,-1.0641,0.0,0.0,0.0,-1.0263,-0.946,0.0,0.0,0.0,0.0,0.0,0.0,0.0,0.0,0.0,0.0,0.0,0.0,0.0,0.0,0.0,0.0,0.0,0.0,0.0,0.0,0.0,0.0,0.0,0.0,0.0,0.0,0.0,0.0,0.0,0.0,0.0,0.0,0.0,0.0,0.0,0.0,0.0,0.0,0.0,0.0,0.0,0.0,0.0,0.0,0.0,0.0,0.0,0.0,0.0,0.0,0.0,0.0,0.0,0.0,0.0,0.0,0.0,-1.1773,-1.416,-1.584,-1.6719,-1.7568,-1.7598,-1.6675,-1.5254,0.0,0.0,0.0,0.0,0.0,0.0,0.0,0.0,0.0,0.0,0.0,0.0,0.0,0.0,0.0,0.0,0.0,0.0,0.0,0.0,0.0,0.0,0.0,0.0,0.0,0.0,0.0,-0.5234,0.0,0.0,0.0,0.0,0.0,0.0,0.0,0.0,0.0,0.0,0.0,0.0,0.0,0.0,-1.0921,-1.1487,-1.1197,-1.1146,0.0,0.0,-1.1116,-0.9762,-1.0108,-0.9776,0.0,0.0,0.0,0.0,0.0,0.0,0.0,0.0,0.0,0.0,0.0,0.0,0.0,0.0,0.0,0.0,0.0,0.0,0.0,0.0,0.0,0.0,0.0,0.0,0.0,0.0,0.0,0.0,0.0,0.0,0.0,0.0,0.0,0.0,0.0,0.0,0.0,0.0,0.0,0.0,0.0,0.0,0.0,0.0,0.0,0.0,0.0,0.0,0.0,0.0,0.0,0.0,0.0,0.0,0.0,-1.2122,-1.4316,-1.585,-1.6655,-1.7568,-1.7607,-1.6685,-1.582,-1.4355,0.0,0.0,0.0,0.0,0.0,0.0,0.0,0.0,0.0,0.0,0.0,0.0,0.0,0.0,0.0,0.0,0.0,0.0,0.0,0.0,0.0,0.0,0.0,0.0,0.0,0.0,0.0,0.0,0.0,0.0,0.0,0.0,0.0,0.0,0.0,0.0,0.0,0.0,0.0,0.0,0.0,-1.0956,-1.0864,-1.2018,-1.2462,0.0,0.0,-1.055,-0.9412,-0.9288,-0.8903,-0.7674,0.0,0.0,0.0,0.0,0.0,0.0,0.0,0.0,0.0,0.0,0.0,0.0,0.0,0.0,0.0,0.0,0.0,0.0,0.0,0.0,0.0,0.0,0.0,0.0,0.0,0.0,0.0,0.0,0.0,0.0,0.0,0.0,0.0,0.0,0.0,0.0,0.0,0.0,0.0,0.0,0.0,0.0,0.0,0.0,0.0,0.0,0.0,0.0,0.0,0.0,0.0,0.0,0.0,-1.0459,-1.2617,-1.4727,-1.624,-1.7109,-1.7705,-1.7598,-1.6748,-1.6133,-1.4814,0.0,0.0,0.0,0.0,0.0,0.0,0.0,0.0,0.0,0.0,0.0,0.0,0.0,0.0,0.0,0.0,0.0,0.0,0.0,0.0,0.0,0.0,0.0,0.0,0.0,0.0,0.0,0.0,-0.6318,-0.6475,-0.6201,0.0,0.0,0.0,0.0,0.0,0.0,0.0,0.0,0.0,0.0,-1.1506,-1.1477,-1.1619,0.0,0.0,-1.1238,-1.0914,-1.0215,-1.0221,-0.9816,-0.8518,-0.815,0.0,0.0,0.0,0.0,0.0,0.0,0.0,0.0,0.0,0.0,0.0,0.0,0.0,0.0,0.0,0.0,0.0,0.0,0.0,0.0,0.0,0.0,0.0,0.0,0.0,0.0,0.0,0.0,0.0,0.0,0.0,0.0,0.0,0.0,0.0,0.0,0.0,0.0,0.0,0.0,0.0,0.0,0.0,0.0,0.0,0.0,0.0,0.0,0.0,0.0,0.0,0.0,-1.0889,-1.3047,-1.5049,-1.6547,-1.7363,-1.7793,-1.7666,-1.6943,-1.6367,-1.5176,0.0,0.0,0.0,0.0,0.0,0.0,0.0,0.0,0.0,0.0,0.0,0.0,0.0,0.0,0.0,0.0,0.0,0.0,0.0,0.0,0.0,0.0,0.0,0.0,0.0,0.0,0.0,0.0,-0.6623,-0.6607,-0.627,0.0,0.0,0.0,0.0,0.0,0.0,0.0,0.0,0.0,0.0,-1.2228,-1.2145,-1.1988,-1.1831,-1.1765,-1.156,-1.1219,-1.0523,-1.0625,-1.0351,-0.9038,0.0,0.0,0.0,0.0,0.0,0.0,0.0,0.0,0.0,0.0,0.0,0.0,0.0,0.0,0.0,0.0,0.0,0.0,0.0,0.0,0.0,0.0,0.0,0.0,0.0,0.0,0.0,-0.8096,0.0,0.0,-0.7252,0.0,0.0,0.0,0.0,0.0,0.0,0.0,0.0,0.0,0.0,0.0,0.0,0.0,0.0,0.0,0.0,0.0,0.0,0.0,0.0,0.0,0.0,-1.1348,-1.3477,-1.5215,-1.6556,-1.7373,-1.7803,-1.7803,-1.7353,-1.6523,-1.5449,-1.4048,0.0,0.0,0.0,0.0,0.0,0.0,0.0,0.0,0.0,0.0,0.0,0.0,0.0,0.0,0.0,0.0,0.0,0.0,0.0,0.0,0.0,0.0,0.0,0.0,0.0,0.0,-0.6387,-0.6206,-0.6026,0.0,0.0,0.0,0.0,0.0,0.0,0.0,0.0,0.0,0.0,-1.2153,-1.3103,-1.2655,-1.3473,-1.3502,-1.1997,-1.1757,-1.1311,-0.9982,-1.0228,-1.0208,0.0,0.0,0.0,0.0,0.0,0.0,0.0,0.0,0.0,0.0,0.0,0.0,0.0,0.0,0.0,0.0,0.0,0.0,0.0,0.0,0.0,0.0,0.0,0.0,0.0,0.0,0.0,-1.1377,-1.0814,0.0,0.0,0.0,0.0,0.0,0.0,0.0,0.0,0.0,0.0,0.0,-1.4805,-1.5537,0.0,0.0,0.0,0.0,0.0,0.0,0.0,0.0,0.0,0.0,0.0,0.0,-1.2243,-1.4307,-1.5771,-1.6924,-1.7773,-1.7939,-1.7812,-1.7393,-1.6816,-1.5498,-1.3369,0.0,0.0,0.0,0.0,0.0,0.0,0.0,0.0,0.0,0.0,0.0,0.0,0.0,0.0,0.0,0.0,0.0,0.0,0.0,0.0,0.0,0.0,0.0,0.0,0.0,-0.6377,0.0,0.0,0.0,0.0,0.0,0.0,0.0,0.0,0.0,0.0,0.0,-1.15,-1.2295,-1.3736,-1.431,-1.3247,-1.3467,-1.3186,0.0,0.0,0.0,0.0,0.0,0.0,0.0,0.0,0.0,0.0,0.0,0.0,0.0,0.0,-0.9726,-0.8083,-0.7609,-0.7482,-0.7437,0.0,0.0,0.0,0.0,0.0,0.0,0.0,0.0,0.0,0.0,0.0,0.0,0.0,0.0,-1.3887,0.0,-1.3027,0.0,0.0,0.0,0.0,0.0,0.0,0.0,0.0,-1.5918,-1.6865,-1.7432,-1.8144,-1.8027,0.0,-1.6758,-1.5029,0.0,0.0,0.0,0.0,0.0,0.0,0.0,0.0,-1.3154,-1.4971,-1.6289,-1.7305,-1.7969,-1.8008,-1.7881,-1.7598,-1.6885,-1.5635,-1.3818,-1.2773,-1.1777,0.0,0.0,0.0,0.0,0.0,0.0,0.0,0.0,0.0,0.0,0.0,0.0,0.0,0.0,0.0,0.0,0.0,0.0,0.0,0.0,0.0,0.0,0.0,-0.6934,0.0,0.0,0.0,0.0,0.0,0.0,0.0,0.0,0.0,-1.0543,-1.1959,-1.342,-1.4345,-1.5273,-1.5458,-1.4504,0.0,0.0,0.0,0.0,0.0,0.0,0.0,-1.0895,-1.0982,-1.0688,-1.0501,-1.0675,-1.0949,-1.1109,-1.1015,0.0,0.0,-0.9426,-0.8844,-0.8724,-0.8824,-0.8758,-0.8704,-0.8804,-0.8884,-0.8771,0.0,0.0,0.0,0.0,0.0,0.0,0.0,0.0,-1.6504,-1.6377,0.0,-1.5547,0.0,0.0,0.0,0.0,0.0,-1.4727,0.0,0.0,-1.9082,-1.9932,-1.9961,-2.0361,-2.0166,-1.9424,-1.9717,-1.8809,-1.668,-1.3457,0.0,0.0,0.0,0.0,0.0,0.0,-1.4189,-1.5459,-1.6719,-1.7578,-1.7988,-1.8008,-1.7998,-1.7939,-1.6748,-1.5879,-1.5381,-1.418,-1.2949,-1.1724,-1.0842,0.0,0.0,0.0,0.0,0.0,0.0,0.0,0.0,0.0,0.0,0.0,0.0,0.0,0.0,0.0,0.0,0.0,0.0,0.0,0.0,-0.7246,0.0,0.0,0.0,0.0,0.0,0.0,0.0,0.0,0.0,0.0,-1.2701,-1.3673,-1.5051,-1.6486,0.0,0.0,0.0,0.0,-1.3882,-1.3066,-1.2354,-1.1724,-1.1176,-1.1757,-1.2004,-1.1216,0.0,0.0,-1.1149,-1.1283,-1.1376,-1.1096,-1.1303,-1.1388,-1.141,-1.0675,-1.0227,-1.0524,-0.9886,-0.9396,-0.9666,-0.9773,-0.976,-1.9609,0.0,0.0,0.0,0.0,-1.793,-1.8535,-1.9561,-1.9482,-1.915,-1.8603,-1.8301,0.0,0.0,0.0,0.0,0.0,0.0,-1.8086,-1.8789,-1.9873,-2.0547,-2.0869,-2.1309,-2.1377,-2.1143,-2.0947,-2.0215,-1.8984,-1.7705,-1.54,-1.2217,0.0,0.0,0.0,0.0,-1.5361,-1.6328,-1.7041,-1.7588,-1.7998,-1.8008,-1.7871,-1.7568,-1.6904,-1.6191,-1.543,-1.4775,-1.3965,-1.2998,-1.2139,0.0,0.0,0.0,0.0,0.0,0.0,0.0,0.0,0.0,0.0,0.0,0.0,0.0,0.0,0.0,0.0,0.0,0.0,0.0,-0.7246,-0.8094,-0.8828,0.0,0.0,0.0,0.0,0.0,0.0,0.0,0.0,0.0,-1.6258,-1.6427,-1.6712,0.0,0.0,-1.7657,-1.6629,-1.5694,-1.4977,-1.4349,-1.3438,0.0,-1.2605,-1.2425,-1.2365,-1.2545,-1.2532,-1.2513,-1.2345,-1.2144,-1.2017,-1.1937,-1.1997,-1.2051,-1.2011,-1.1516,-1.1109,-1.1136,-1.0962,-1.0828,-1.0902,-1.0929,-1.0909,-2.2422,-2.0488,-1.9639,-1.9687,-2.0283,-2.0039,-2.0527,-2.1484,-2.1377,-2.1191,-2.0928,-2.0684,-1.9853,-1.8584,-1.7559,0.0,0.0,0.0,-1.9824,-2.0596,-2.1094,-2.1572,-2.1992,-2.2256,-2.2295,-2.2129,-2.1865,-2.1387,-2.0684,-2.0088,-1.832,-1.5508,0.0,0.0,-1.4717,-1.585,-1.6787,-1.7385,-1.7744,-1.8008,-1.8252,-1.8096,-1.7891,-1.7627,-1.7051,-1.6484,-1.5947,-1.5342,-1.4717,-1.4043,-1.3193,-1.2148,0.0,0.0,0.0,0.0,0.0,0.0,0.0,0.0,0.0,0.0,0.0,-0.6943,0.0,0.0,0.0,0.0,-0.7109,-0.7832,-0.9121,-0.9863,0.0,0.0,0.0,0.0,0.0,0.0,0.0,-1.6025,-1.6875,-1.7637,-1.8408,-1.8447,-1.8249,-1.7811,-1.8389,-1.849,-1.7433,0.0,-1.6221,-1.5449,-1.4609,-1.3805,-1.3306,-1.2999,-1.2933,-1.316,-1.306,-1.2939,-1.2926,-1.2779,-1.2665,-1.2659,-1.2665,-1.2619,-1.2505,-1.2178,-1.1857,-1.1643,-1.1503,-1.143,-1.143,-1.143,-1.143,-2.4521,-2.4346,-2.2363,-2.1758,-2.208,-2.209,-2.206,-2.207,-2.2451,-2.2598,-2.2559,-2.2559,-2.1885,-2.0654,-1.9512,0.0,-2.0146,-2.0576,-2.1416,-2.2559,-2.2559,-2.2764,-2.3125,-2.3135,-2.2939,-2.2559,-2.2568,-2.2353,-2.1904,-2.1113,-2.0312,-1.9482,-1.8291,-1.7607,-1.7461,-1.7871,-1.8301,-1.8601,-1.8611,-1.8672,-1.8633,-1.8223,-1.7988,-1.7949,-1.7119,-1.6597,-1.6529,-1.5771,-1.5127,-1.4736,-1.3945,-1.2949,-1.1753,0.0,0.0,0.0,0.0,0.0,0.0,0.0,0.0,0.0,0.0,0.0,0.0,0.0,0.0,0.0,-0.9375,0.0,-1.1596,-1.2129,0.0,0.0,0.0,-1.4121,-1.5049,-1.6143,-1.7021,-1.7519,0.0,0.0,-1.9443,-1.9785,-1.963,-1.8529,-1.8892,-1.9058,-1.8546,-1.8073,-1.7481,-1.6436,-1.5764,-1.4838,-1.354,-1.3494,-1.3561,-1.3373,-1.326,-1.324,-1.324,-1.3193,-1.32,-1.3173,-1.32,-1.3113,-1.2903,-1.2835,-1.2681,-1.2051,-1.1717,-1.1516,-1.1536,-1.1543,-1.1557,-2.542,-2.5352,-2.4502,-2.4033,-2.3818,-2.3818,-2.3643,-2.335,-2.3437,-2.3301,-2.2998,-2.2988,-2.2637,-2.2051,-2.206,-2.2002,-2.1914,-2.2334,-2.2695,-2.2978,-2.2988,-2.3047,-2.3135,-2.3144,-2.3096,-2.2988,-2.2988,-2.2773,-2.2363,-2.2158,-2.1777,-2.126,-2.0635,-1.9502,-1.7949,-1.8603,-1.9023,-1.9131,-1.9141,-1.8975,-1.8572,-1.8223,-1.7861,-1.7539,-1.6689,-1.6064,-1.5723,-1.4902,-1.4385,-1.4223,-1.3789,-1.3223,-1.2635,-1.0928,0.0,0.0,0.0,0.0,0.0,0.0,0.0,0.0,0.0,-0.9414,-0.7686,0.0,-1.0312,0.0,-1.1396,-1.2236,-1.2539,-1.3535,0.0,0.0,-1.5908,-1.6562,-1.8037,-1.791,-1.8125,-1.9189,-1.9873,-2.0391,-2.0732,-2.0859,-2.0493,-1.9407,-1.9158,-1.9149,-1.9421,-1.8317,-1.7405,-1.6982,-1.616,-1.524,-1.4124,-1.3935,-1.3948,-1.3895,-1.3687,-1.3459,-1.3459,-1.3353,-1.3206,-1.3206,-1.3206,-1.3173,-1.3113,-1.31,-1.2966,-1.2612,-1.2298,-1.2098,-1.2098,-1.2091,-1.2084,-2.6025,-2.5986,-2.5547,-2.5225,-2.4971,-2.459,-2.4287,-2.4072,-2.4062,-2.3828,-2.3418,-2.3223,-2.3008,-2.2812,-2.3027,-2.3008,-2.2822,-2.3037,-2.3144,-2.3144,-2.3144,-2.3144,-2.3144,-2.3144,-2.3144,-2.3144,-2.3144,-2.3018,-2.2783,-2.2607,-2.2393,-2.2148,-2.1738,-2.083,-1.9521,-1.9717,-1.9863,-1.9853,-1.9658,-1.9258,-1.8592,-1.8408,-1.7998,-1.7393,-1.6728,-1.6152,-1.5713,-1.4883,-1.4424,-1.4404,-1.3838,-1.3486,-1.3418,-1.1982,-1.1035,0.0,0.0,0.0,0.0,0.0,0.0,0.0,0.0,0.0,0.0,0.0,-1.1839,-1.1955,-1.3374,-1.4357,-1.4447,-1.5706,-1.6865,-1.7773,-1.8037,-1.8603,-1.9736,-1.9609,-1.9795,-2.0684,-2.0996,-2.125,-2.1494,-2.1523,-2.1087,-1.9961,-1.9615,-1.9344,-1.8837,-1.8259,-1.7738,-1.6772,-1.6108,-1.5296,-1.425,-1.4088,-1.4088,-1.4075,-1.3955,-1.3841,-1.3834,-1.3714,-1.3601,-1.3601,-1.3601,-1.3554,-1.3434,-1.3407,-1.3307,-1.3026,-1.2826,-1.2619,-1.2365,-1.2305,-1.2305,-2.6435,-2.6357,-2.5986,-2.5791,-2.5684,-2.4912,-2.4551,-2.4502,-2.4502,-2.4238,-2.3769,-2.3389,-2.3106,-2.3144,-2.3144,-2.3144,-2.3144,-2.3144,-2.3144,-2.3144,-2.3144,-2.3144,-2.3144,-2.3144,-2.3144,-2.3144,-2.3144,-2.3144,-2.3038,-2.2773,-2.2598,-2.2568,-2.2178,-2.1748,-2.1318,-2.0879,-2.0625,-2.0634,-2.0137,-1.9551,-1.8818,-1.8691,-1.8232,-1.7412,-1.6914,-1.6377,-1.582,-1.5156,-1.4756,-1.4687,-1.4043,-1.3838,-1.4116,-1.3017,-1.2373,0.0,-1.1592,0.0,0.0,0.0,0.0,0.0,0.0,0.0,0.0,-1.3154,-1.3541,-1.3561,-1.5313,-1.6529,-1.656,-1.793,-1.9062,-1.9502,-1.9912,-2.0322,-2.0693,-2.1084,-2.1465,-2.1846,-2.1934,-2.1973,-2.1963,-2.1973,-2.1518,-2.0624,-2.0448,-1.9832,-1.8198,-1.8521,-1.8406,-1.6417,-1.5884,-1.5296,-1.4328,-1.4088,-1.4088,-1.4088,-1.4075,-1.4088,-1.4068,-1.4068,-1.4068,-1.4068,-1.4041,-1.3975,-1.3741,-1.3701,-1.3601,-1.3327,-1.3247,-1.3073,-1.2605,-1.2418,-1.2358,-2.6699,-2.6387,-2.6309,-2.6064,-2.5723,-2.5557,-2.5283,-2.4951,-2.4941,-2.4512,-2.3799,-2.3701,-2.3467,-2.3154,-2.3144,-2.3144,-2.3144,-2.3144,-2.3144,-2.3144,-2.3144,-2.3144,-2.3144,-2.3144,-2.3144,-2.3144,-2.3144,-2.3144,-2.3144,-2.3057,-2.3018,-2.3008,-2.2598,-2.2178,-2.1768,0.0,0.0,0.0,-2.0137,-1.9834,-1.9658,-1.8994,-1.8242,-1.7402,-1.6611,0.0,-1.458,-1.4678,-1.4619,-1.4287,-1.4434,0.0,0.0,0.0,0.0,0.0,0.0,0.0,0.0,0.0,0.0,0.0,-1.5225,-1.4873,-1.4404,-1.5977,-1.6522,-1.5435,-1.7326,-1.8333,-1.7532,-1.9127,-2.0371,-2.082,-2.125,-2.1553,-2.1641,-2.1719,-2.1807,-2.1875,-2.2178,-2.2393,-2.2402,-2.2402,-2.2298,-2.193,-2.1745,-2.1042,-1.9847,-1.9542,-1.9353,-1.8819,-1.703,-1.5394,-1.425,-1.4166,-1.4166,-1.4088,-1.4088,-1.4088,-1.4088,-1.4088,-1.4088,-1.4088,-1.4088,-1.4082,-1.4008,-1.4001,-1.3895,-1.3621,-1.3561,-1.3373,-1.3113,-1.2839,-1.2741,-2.7207,-2.6982,-2.6562,-2.626,0.0,-2.583,-2.5605,-2.5391,-2.54,-2.5029,-2.4394,-2.3975,-2.3662,-2.3447,-2.3242,-2.3144,-2.3144,-2.3144,-2.3144,-2.3144,-2.3144,-2.3144,-2.3144,-2.3144,-2.3144,-2.3144,-2.3144,-2.3144,-2.3144,-2.3144,-2.3144,-2.3144,-2.292,-2.2607,-2.2187,-2.1562,-2.1016,-2.0566,-2.0352,-2.0137,-1.9912,-1.9492,-1.876,-1.7734,-1.7266,0.0,0.0,0.0,0.0,0.0,0.0,0.0,0.0,0.0,0.0,-1.4775,-1.4785,-1.4785,-1.4805,-1.5381,-1.6113,-1.6953,-1.7607,-1.751,-1.6465,-1.7578,-1.797,-1.7153,-1.8805,-1.9611,-1.8806,-2.0178,-2.1299,-2.1543,-2.1943,-2.2197,-2.2217,-2.2383,-2.25,-2.2519,-2.2685,-2.2822,-2.2822,-2.2822,-2.2544,-2.2082,-2.2284,-2.2045,-2.0912,-2.0286,-1.9686,-1.8911,-1.7821,-1.6383,-1.5173,-1.4894,-1.4657,-1.425,-1.4088,-1.4088,-1.4088,-1.4088,-1.4088,-1.4088,-1.4088,-1.4088,-1.4088,-1.4088,-1.4035,-1.3908,-1.3861,-1.3828,-1.3647,-1.3293,-1.2979,-2.7734,-2.7607,-2.6904,-2.6523,-2.6357,-2.6006,-2.581,-2.5732,0.0,0.0,0.0,-2.4326,-2.3935,-2.3769,-2.3418,-2.3213,-2.3144,-2.3144,-2.3144,-2.3144,-2.3144,-2.3144,-2.3144,-2.3144,-2.3144,-2.3144,-2.3144,-2.3144,-2.3144,-2.3144,-2.3144,-2.3144,-2.3144,-2.293,-2.248,-2.166,-2.1055,-2.0703,-2.0605,-2.0391,-2.0039,-1.9951,-1.9375,-1.8262,-1.8086,-1.7607,-1.6768,-1.6445,-1.6321,-1.6182,-1.5908,-1.5918,-1.6321,-1.6282,-1.6348,-1.6699,-1.6885,-1.6953,-1.6963,-1.7441,-1.79,-1.832,-1.9385,-1.9551,-1.8428,-1.873,-1.8848,-1.8583,-1.9828,-2.0464,-1.9861,-2.1161,-2.2031,-2.21,-2.2422,-2.2627,-2.2646,-2.292,-2.3096,-2.3144,-2.3105,-2.3135,-2.3125,-2.3115,-2.2765,-2.2022,-2.2532,-2.2775,-2.1762,-2.1112,-2.0186,-1.8927,-1.8489,-1.7846,-1.655,-1.5884,-1.5438,-1.4664,-1.425,-1.4088,-1.4088,-1.4088,-1.4088,-1.4088,-1.4088,-1.4088,-1.4088,-1.4088,-1.4088,-1.4088,-1.4088,-1.4088,-1.4048,-1.3707,-1.3367,-2.7998,-2.7646,-2.7539,-2.707,-2.6387,-2.6328,-2.6084,-2.5742,-2.5732,-2.5488,-2.5059,-2.4941,-2.4473,-2.3789,-2.373,-2.3496,-2.3144,-2.3144,-2.3144,-2.3144,-2.3144,-2.3144,-2.3144,-2.3144,-2.3144,-2.3144,-2.3144,-2.3144,-2.3144,-2.3144,-2.3144,-2.3144,-2.3144,-2.293,-2.2471,-2.166,-2.1201,-2.1143,-2.0762,-2.0537,-2.0469,-2.0107,-1.9658,-1.9121,-1.8398,-1.7607,-1.6714,-1.7041,-1.7021,-1.667,-1.6934,-1.7139,-1.7178,-1.6855,-1.6607,-1.6704,-1.7422,-1.7832,-1.7852,-1.8574,-1.9199,-1.9629,-2.0156,-2.0234,-1.9727,-2.0049,-2.01,-1.9578,-2.0514,-2.1039,-2.0787,-2.175,-2.2559,-2.2881,-2.2998,-2.3047,-2.3027,-2.3086,-2.3144,-2.3144,-2.3144,-2.3144,-2.3144,-2.3144,-2.3047,-2.2862,-2.295,-2.3038,-2.2785,-2.2457,-2.1561,-2.0325,-1.9871,-1.9274,-1.7803,-1.6791,-1.6094,-1.5575,-1.4671,-1.42,-1.425,-1.4166,-1.4088,-1.4088,-1.4088,-1.4088,-1.4088,-1.4088,-1.4088,-1.4088,-1.4088,-1.4088,-1.4088,-1.3975,-1.3848,-2.8184,-2.7988,-2.7764,-2.7305,-2.6699,-2.623,-2.5928,-2.5732,-2.5732,-2.5635,-2.541,-2.5176,-2.4853,-2.4453,-2.3994,-2.3682,-2.3486,-2.3242,-2.3144,-2.3144,-2.3144,-2.3144,-2.3144,-2.3144,-2.3144,-2.3144,-2.3144,-2.3144,-2.3144,-2.3144,-2.3144,-2.3144,-2.3144,-2.293,-2.251,-2.2129,-2.1699,-2.124,-2.0791,-2.0576,-2.0566,-2.0371,-2.0059,-1.9639,-1.9228,-1.876,-1.8144,-1.8311,-1.832,-1.8125,-1.8311,-1.8408,-1.8408,-1.8223,-1.8115,-1.8125,-1.8486,-1.8701,-1.8701,-1.9277,-1.9814,-2.0225,-2.0449,-2.0488,-2.0293,-2.0674,-2.0767,-2.0557,-2.1375,-2.1903,-2.176,-2.2437,-2.293,-2.3115,-2.3144,-2.3144,-2.3144,-2.3144,-2.3144,-2.3144,-2.3144,-2.3144,-2.3144,-2.3144,-2.3144,-2.3144,-2.3144,-2.3144,-2.3144,-2.2892,-2.2514,-2.1599,-2.141,-2.0452,-1.8668,-1.7827,-1.7071,-1.6094,-1.4979,-1.4583,-1.4783,-1.4573,-1.4173,-1.4088,-1.4088,-1.4088,-1.4088,-1.4088,-1.4088,-1.4088,-1.4088,-1.4088,-1.4088,-1.4088,-1.3981,-2.8301,-2.8262,-2.7939,-2.75,-2.6953,-2.6211,-2.583,-2.5732,-2.5732,-2.5732,-2.5684,-2.5361,-2.5176,-2.499,-2.4268,-2.3887,-2.374,-2.334,-2.3144,-2.3144,-2.3144,-2.3144,-2.3144,-2.3144,-2.3144,-2.3144,-2.3144,-2.3144,-2.3144,-2.3144,-2.3144,-2.3144,-2.3144,-2.2978,-2.2656,-2.2559,-2.2187,-2.1533,-2.0986,-2.0664,-2.0576,-2.0576,-2.041,-2.0088,-1.9961,-1.9756,-1.9443,-1.9346,-1.9277,-1.9277,-1.9277,-1.9277,-1.9277,-1.9277,-1.9277,-1.9287,-1.9375,-1.9473,-1.959,-1.9873,-2.0205,-2.0537,-2.0576,-2.0615,-2.0732,-2.1123,-2.1377,-2.1465,-2.206,-2.2529,-2.259,-2.2843,-2.3144,-2.3144,-2.3144,-2.3144,-2.3144,-2.3144,-2.3144,-2.3144,-2.3144,-2.3144,-2.3144,-2.3144,-2.3144,-2.3144,-2.3144,-2.3144,-2.3144,-2.3144,-2.2988,-2.2773,-2.2646,-2.1855,-1.9661,-1.8799,-1.8029,-1.6776,-1.5382,-1.4919,-1.4979,-1.4642,-1.4173,-1.4088,-1.4088,-1.4088,-1.4088,-1.4088,-1.4088,-1.4088,-1.4088,-1.4088,-1.4088,-1.4088,-1.4028,-2.8301,-2.8291,-2.8232,-2.7764,-2.6992,-2.6514,-2.6103,-2.5762,-2.5732,-2.5732,-2.5723,-2.5684,-2.5449,-2.5029,-2.457,-2.417,-2.3789,-2.334,-2.3144,-2.3144,-2.3144,-2.3144,-2.3144,-2.3144,-2.3144,-2.3144,-2.3144,-2.3144,-2.3144,-2.3144,-2.3144,-2.3144,-2.3144,-2.3115,-2.3037,-2.2715,-2.2471,-2.2383,-2.1592,-2.0977,-2.0596,-2.0576,-2.0547,-2.0518,-2.0117,-1.9902,-1.9844,-1.9492,-1.9287,-1.9277,-1.9307,-1.9297,-1.9297,-1.9297,-1.9297,-1.9316,-1.9648,-2.0019,-2.0391,-2.0478,-2.0518,-2.0557,-2.0586,-2.0752,-2.1123,-2.1572,-2.1826,-2.1904,-2.2246,-2.2685,-2.3027,-2.3115,-2.3144,-2.3144,-2.3144,-2.3144,-2.3144,-2.3144,-2.3144,-2.3144,-2.3144,-2.3144,-2.3144,-2.3144,-2.3144,-2.3144,-2.3144,-2.3144,-2.3144,-2.3135,-2.3135,-2.3076,-2.3066,-2.2708,-2.1759,-2.0245,-1.9008,-1.8078,-1.6146,-1.5057,-1.4861,-1.459,-1.4088,-1.4088,-1.4088,-1.4088,-1.4088,-1.4088,-1.4088,-1.4088,-1.4088,-1.4088,-1.4088,-1.4088,-1.4048,-2.8301,-2.8301,-2.8301,-2.7803,-2.7012,-2.6562,-2.6143,-2.5742,-2.5732,-2.5732,-2.5732,-2.5732,-2.5635,-2.543,-2.501,-2.457,-2.4141,-2.3711,-2.3379,-2.3154,-2.3144,-2.3144,-2.3144,-2.3144,-2.3144,-2.3144,-2.3144,-2.3144,-2.3144,-2.3144,-2.3144,-2.3144,-2.3144,-2.3144,-2.3038,-2.2969,-2.2764,-2.251,-2.1924,-2.1396,-2.0986,-2.0693,-2.0576,-2.0557,-2.0391,-2.0303,-2.0283,-2.0127,-2.0039,-2.0039,-2.0039,-2.0049,-2.0049,-2.0049,-2.0049,-2.0049,-2.0195,-2.0371,-2.0557,-2.0576,-2.0576,-2.0576,-2.081,-2.1055,-2.124,-2.1855,-2.2256,-2.2305,-2.2637,-2.2969,-2.3115,-2.3144,-2.3144,-2.3144,-2.3144,-2.3144,-2.3144,-2.3144,-2.3144,-2.3144,-2.3144,-2.3144,-2.3144,-2.3144,-2.3144,-2.3144,-2.3144,-2.3144,-2.3144,-2.3144,-2.3144,-2.3144,-2.3144,-2.2707,-2.1983,-2.1155,-1.9989,-1.8732,-1.7305,-1.6109,-1.5418,-1.4702,-1.4302,-1.4128,-1.4095,-1.4088,-1.4088,-1.4088,-1.4088,-1.4088,-1.4088,-1.4088,-1.4088,-1.4088,-1.4088,-2.8301,-2.8301,-2.8301,-2.7803,-2.7002,-2.6689,-2.624,-2.5771,-2.5732,-2.5732,-2.5732,-2.5732,-2.5732,-2.5674,-2.5264,-2.4834,-2.4394,-2.3984,-2.3555,-2.3174,-2.3144,-2.3144,-2.3144,-2.3144,-2.3144,-2.3144,-2.3144,-2.3144,-2.3144,-2.3144,-2.3144,-2.3144,-2.3144,-2.3144,-2.3144,-2.3144,-2.2998,-2.2685,-2.2266,-2.1846,-2.1426,-2.0977,-2.0693,-2.0586,-2.0576,-2.0576,-2.0576,-2.0576,-2.0576,-2.0566,-2.0576,-2.0576,-2.0576,-2.0576,-2.0576,-2.0576,-2.0576,-2.0576,-2.0576,-2.0576,-2.0625,-2.0752,-2.1055,-2.1338,-2.1631,-2.2158,-2.2539,-2.2705,-2.2969,-2.3125,-2.3144,-2.3144,-2.3144,-2.3144,-2.3144,-2.3144,-2.3144,-2.3144,-2.3144,-2.3144,-2.3144,-2.3144,-2.3144,-2.3144,-2.3144,-2.3144,-2.3144,-2.3144,-2.3144,-2.3144,-2.3144,-2.3144,-2.3144,-2.2765,-2.1933,-2.1355,-2.0686,-1.9711,-1.8279,-1.6855,-1.6401,-1.5364,-1.4509,-1.4295,-1.4182,-1.4095,-1.4088,-1.4088,-1.4088,-1.4088,-1.4088,-1.4088,-1.4088,-1.4088,-1.4088,-2.8301,-2.8301,-2.8301,-2.7803,-2.7012,-2.6973,-2.6504,-2.5732,-2.5732,-2.5732,-2.5732,-2.5732,-2.5732,-2.5703,-2.5293,-2.4834,-2.4394,-2.4014,-2.3584,-2.3164,-2.3144,-2.3144,-2.3144,-2.3144,-2.3144,-2.3144,-2.3144,-2.3144,-2.3144,-2.3144,-2.3144,-2.3144,-2.3144,-2.3144,-2.3144,-2.3144,-2.3135,-2.3027,-2.2656,-2.2275,-2.1855,-2.1435,-2.1016,-2.0654,-2.0576,-2.0576,-2.0576,-2.0576,-2.0576,-2.0576,-2.0576,-2.0576,-2.0576,-2.0576,-2.0576,-2.0576,-2.0576,-2.0576,-2.0576,-2.0596,-2.0752,-2.1113,-2.1279,-2.1582,-2.2256,-2.248,-2.2705,-2.3066,-2.3105,-2.3144,-2.3144,-2.3144,-2.3144,-2.3144,-2.3144,-2.3144,-2.3144,-2.3144,-2.3144,-2.3144,-2.3144,-2.3144,-2.3144,-2.3144,-2.3144,-2.3144,-2.3144,-2.3144,-2.3144,-2.3144,-2.3144,-2.3144,-2.3144,-2.3047,-2.2862,-2.2217,-2.156,-2.0624,-1.9142,-1.7424,-1.6669,-1.591,-1.5115,-1.4429,-1.4229,-1.4108,-1.4095,-1.4088,-1.4088,-1.4088,-1.4088,-1.4088,-1.4088,-1.4088,-1.4088,-2.8301,-2.8301,-2.8301,-2.7793,-2.7041,-2.7012,-2.6523,-2.5752,-2.5732,-2.5732,-2.5732,-2.5732,-2.5732,-2.5723,-2.5566,-2.5098,-2.4443,-2.4258,-2.3818,-2.3203,-2.3144,-2.3144,-2.3144,-2.3144,-2.3144,-2.3144,-2.3144,-2.3144,-2.3144,-2.3144,-2.3144,-2.3144,-2.3144,-2.3144,-2.3144,-2.3144,-2.3144,-2.3096,-2.2725,-2.2441,-2.2266,-2.1865,-2.1435,-2.1016,-2.0713,-2.0576,-2.0576,-2.0576,-2.0576,-2.0576,-2.0576,-2.0576,-2.0576,-2.0576,-2.0576,-2.0576,-2.0576,-2.0576,-2.0605,-2.084,-2.1055,-2.124,-2.1768,-2.2139,-2.249,-2.2754,-2.2988,-2.3105,-2.3144,-2.3144,-2.3144,-2.3144,-2.3144,-2.3144,-2.3144,-2.3144,-2.3144,-2.3144,-2.3144,-2.3144,-2.3144,-2.3144,-2.3144,-2.3144,-2.3144,-2.3144,-2.3144,-2.3144,-2.3144,-2.3144,-2.3144,-2.3144,-2.3144,-2.3144,-2.3144,-2.2862,-2.2296,-2.1444,-2.0223,-1.9321,-1.8564,-1.6987,-1.5987,-1.5375,-1.4972,-1.4108,-1.4088,-1.4088,-1.4088,-1.4088,-1.4088,-1.4088,-1.4088,-1.4088,-1.4088,-2.8301,-2.8301,-2.8301,-2.7793,-2.7051,-2.7012,-2.6523,-2.5781,-2.5732,-2.5732,-2.5732,-2.5732,-2.5732,-2.5732,-2.5732,-2.5254,-2.4473,-2.4404,-2.3955,-2.3184,-2.3144,-2.3144,-2.3144,-2.3144,-2.3144,-2.3144,-2.3144,-2.3144,-2.3144,-2.3144,-2.3144,-2.3144,-2.3144,-2.3144,-2.3144,-2.3144,-2.3144,-2.3076,-2.2852,-2.2666,-2.25,-2.2236,-2.1885,-2.1475,-2.1143,-2.084,-2.0596,-2.0576,-2.0576,-2.0576,-2.0576,-2.0576,-2.0576,-2.0576,-2.0576,-2.0576,-2.0576,-2.0644,-2.0791,-2.1064,-2.1357,-2.1641,-2.2158,-2.2549,-2.2715,-2.2978,-2.3115,-2.3144,-2.3144,-2.3144,-2.3144,-2.3144,-2.3144,-2.3144,-2.3144,-2.3144,-2.3144,-2.3144,-2.3144,-2.3144,-2.3144,-2.3144,-2.3144,-2.3144,-2.3144,-2.3144,-2.3144,-2.3144,-2.3144,-2.3144,-2.3144,-2.3144,-2.3144,-2.3144,-2.3144,-2.296,-2.2862,-2.211,-2.1364,-2.0651,-1.9892,-1.8177,-1.6877,-1.6339,-1.549,-1.4514,-1.4088,-1.4088,-1.4088,-1.4088,-1.4088,-1.4088,-1.4088,-1.4088,-1.4088,-2.8301,-2.8301,-2.8291,-2.7803,-2.706,-2.7012,-2.6533,-2.582,-2.5732,-2.5732,-2.5732,-2.5732,-2.5732,-2.5732,-2.5732,-2.5264,-2.459,-2.4443,-2.3955,-2.3193,-2.3144,-2.3144,-2.3144,-2.3144,-2.3144,-2.3144,-2.3144,-2.3144,-2.3144,-2.3144,-2.3144,-2.3144,-2.3144,-2.3144,-2.3144,-2.3144,-2.3144,-2.3125,-2.3086,-2.291,-2.2578,-2.2519,-2.2314,-2.1934,-2.1846,-2.1465,-2.0684,-2.0625,-2.0615,-2.0576,-2.0576,-2.0576,-2.0576,-2.0576,-2.0576,-2.0576,-2.0586,-2.0801,-2.1143,-2.1279,-2.1728,-2.2227,-2.25,-2.2725,-2.3008,-2.3115,-2.3144,-2.3144,-2.3144,-2.3144,-2.3144,-2.3144,-2.3144,-2.3144,-2.3144,-2.3144,-2.3144,-2.3144,-2.3144,-2.3144,-2.3144,-2.3144,-2.3144,-2.3144,-2.3144,-2.3144,-2.3144,-2.3144,-2.3144,-2.3144,-2.3144,-2.3144,-2.3144,-2.3144,-2.3144,-2.3135,-2.3047,-2.2862,-2.212,-2.1309,-2.074,-1.9511,-1.7969,-1.7048,-1.5269,-1.4304,-1.4088,-1.4088,-1.4088,-1.4088,-1.4088,-1.4088,-1.4088,-1.4088,-1.4088,-2.8301,-2.8301,-2.8301,-2.7803,-2.706,-2.7012,-2.6533,-2.5781,-2.5732,-2.5732,-2.5732,-2.5732,-2.5732,-2.5732,-2.5732,-2.542,-2.4863,-2.4551,-2.3965,-2.3262,-2.3144,-2.3144,-2.3144,-2.3144,-2.3144,-2.3144,-2.3144,-2.3144,-2.3144,-2.3144,-2.3144,-2.3144,-2.3144,-2.3144,-2.3144,-2.3144,-2.3144,-2.3144,-2.3144,-2.3057,-2.2949,-2.2939,-2.2744,-2.2373,-2.2314,-2.2041,-2.1514,-2.1191,-2.0879,-2.0615,-2.0576,-2.0576,-2.0576,-2.0576,-2.0576,-2.0596,-2.0869,-2.1064,-2.1269,-2.1777,-2.2187,-2.2519,-2.2773,-2.2969,-2.3115,-2.3144,-2.3144,-2.3144,-2.3144,-2.3144,-2.3144,-2.3144,-2.3144,-2.3144,-2.3144,-2.3144,-2.3144,-2.3144,-2.3144,-2.3144,-2.3144,-2.3144,-2.3144,-2.3144,-2.3144,-2.3144,-2.3144,-2.3144,-2.3144,-2.3144,-2.3144,-2.3144,-2.3144,-2.3144,-2.3144,-2.3144,-2.3144,-2.3144,-2.2589,-2.2129,-2.1563,-2.0437,-1.8988,-1.729,-1.5432,-1.4402,-1.4186,-1.4088,-1.4088,-1.4088,-1.4088,-1.4088,-1.4088,-1.4088,-1.4088,-2.8301,-2.8271,-2.8125,-2.7666,-2.7012,-2.6865,-2.6396,-2.5781,-2.5732,-2.5732,-2.5732,-2.5732,-2.5732,-2.5732,-2.5732,-2.5488,-2.5049,-2.4619,-2.4043,-2.3428,-2.3184,-2.3144,-2.3144,-2.3144,-2.3144,-2.3144,-2.3144,-2.3144,-2.3144,-2.3144,-2.3144,-2.3144,-2.3144,-2.3144,-2.3144,-2.3144,-2.3144,-2.3144,-2.3144,-2.3144,-2.3135,-2.3144,-2.293,-2.2783,-2.2734,-2.2519,-2.2139,-2.1846,-2.1504,-2.1113,-2.0918,-2.082,-2.0801,-2.0674,-2.0576,-2.0654,-2.0967,-2.1299,-2.1514,-2.2109,-2.2598,-2.2754,-2.2988,-2.3135,-2.3144,-2.3144,-2.3144,-2.3144,-2.3144,-2.3144,-2.3144,-2.3144,-2.3144,-2.3144,-2.3144,-2.3144,-2.3144,-2.3144,-2.3144,-2.3144,-2.3144,-2.3144,-2.3144,-2.3144,-2.3144,-2.3144,-2.3144,-2.3144,-2.3144,-2.3144,-2.3144,-2.3144,-2.3144,-2.3144,-2.3144,-2.3144,-2.3144,-2.3144,-2.3047,-2.2862,-2.2503,-2.0952,-1.939,-1.7331,-1.5413,-1.4706,-1.4412,-1.4166,-1.4088,-1.4088,-1.4088,-1.4088,-1.4088,-1.4088,-1.4088,-2.8301,-2.8242,-2.7842,-2.7432,-2.6982,-2.6592,-2.6172,-2.5771,-2.5732,-2.5732,-2.5732,-2.5732,-2.5732,-2.5732,-2.5732,-2.5488,-2.5049,-2.4619,-2.418,-2.3721,-2.3359,-2.3144,-2.3144,-2.3144,-2.3144,-2.3144,-2.3144,-2.3144,-2.3144,-2.3144,-2.3144,-2.3144,-2.3144,-2.3144,-2.3144,-2.3144,-2.3144,-2.3144,-2.3144,-2.3144,-2.3144,-2.3144,-2.3135,-2.3105,-2.3086,-2.292,-2.2598,-2.249,-2.2295,-2.1885,-2.1445,-2.1269,-2.1191,-2.0859,-2.0732,-2.0781,-2.1084,-2.1523,-2.1914,-2.2353,-2.2734,-2.3047,-2.3096,-2.3144,-2.3144,-2.3144,-2.3144,-2.3144,-2.3144,-2.3144,-2.3144,-2.3144,-2.3144,-2.3144,-2.3144,-2.3144,-2.3144,-2.3144,-2.3144,-2.3144,-2.3144,-2.3144,-2.3144,-2.3144,-2.3144,-2.3144,-2.3144,-2.3144,-2.3144,-2.3144,-2.3144,-2.3144,-2.3144,-2.3144,-2.3144,-2.3144,-2.3144,-2.3144,-2.3135,-2.3135,-2.2834,-2.1276,-1.9631,-1.7546,-1.5869,-1.5166,-1.458,-1.425,-1.4088,-1.4088,-1.4088,-1.4088,-1.4088,-1.4088,-1.4088,-2.8301,-2.8242,-2.7842,-2.7422,-2.6982,-2.6562,-2.6133,-2.5762,-2.5732,-2.5732,-2.5732,-2.5732,-2.5732,-2.5732,-2.5723,-2.5488,-2.5049,-2.4619,-2.4189,-2.3769,-2.334,-2.3154,-2.3144,-2.3144,-2.3144,-2.3144,-2.3144,-2.3144,-2.3144,-2.3144,-2.3144,-2.3144,-2.3144,-2.3144,-2.3144,-2.3144,-2.3144,-2.3144,-2.3144,-2.3144,-2.3144,-2.3144,-2.3144,-2.3144,-2.3144,-2.3086,-2.2978,-2.2978,-2.2617,-2.1953,-2.1797,-2.1709,-2.1699,-2.1562,-2.1455,-2.1523,-2.1885,-2.2187,-2.2373,-2.2725,-2.3008,-2.3115,-2.3144,-2.3144,-2.3144,-2.3144,-2.3144,-2.3144,-2.3144,-2.3144,-2.3144,-2.3144,-2.3144,-2.3144,-2.3144,-2.3144,-2.3144,-2.3144,-2.3144,-2.3144,-2.3144,-2.3144,-2.3144,-2.3144,-2.3144,-2.3144,-2.3144,-2.3144,-2.3144,-2.3144,-2.3144,-2.3144,-2.3144,-2.3144,-2.3144,-2.3144,-2.3144,-2.3144,-2.3135,-2.3038,-2.2515,-2.1485,-1.9796,-1.7954,-1.6503,-1.5636,-1.4741,-1.4173,-1.4088,-1.4088,-1.4088,-1.4088,-1.4088,-1.4088,-1.4088,-2.8193,-2.7988,-2.7568,-2.7139,-2.6719,-2.6289,-2.5967,-2.5771,-2.5732,-2.5732,-2.5732,-2.5732,-2.5732,-2.5732,-2.5723,-2.5498,-2.5049,-2.4609,-2.4189,-2.3769,-2.334,-2.3154,-2.3144,-2.3144,-2.3144,-2.3144,-2.3144,-2.3144,-2.3144,-2.3144,-2.3144,-2.3144,-2.3144,-2.3144,-2.3144,-2.3144,-2.3144,-2.3144,-2.3144,-2.3144,-2.3144,-2.3144,-2.3144,-2.3144,-2.3144,-2.3144,-2.3144,-2.3135,-2.2891,-2.248,-2.2256,-2.2148,-2.2129,-2.1963,-2.1894,-2.1904,-2.2275,-2.25,-2.2588,-2.29,-2.3125,-2.3144,-2.3144,-2.3144,-2.3144,-2.3144,-2.3144,-2.3144,-2.3144,-2.3144,-2.3144,-2.3144,-2.3144,-2.3144,-2.3144,-2.3144,-2.3144,-2.3144,-2.3144,-2.3144,-2.3144,-2.3144,-2.3144,-2.3144,-2.3144,-2.3144,-2.3144,-2.3144,-2.3144,-2.3144,-2.3144,-2.3144,-2.3144,-2.3144,-2.3144,-2.3144,-2.3144,-2.3144,-2.3135,-2.3038,-2.2534,-2.1674,-2.0373,-1.8863,-1.7409,-1.6034,-1.5144,-1.4412,-1.4088,-1.4088,-1.4088,-1.4088,-1.4088,-1.4088,-1.4088,-2.8008,-2.7627,-2.7148,-2.6738,-2.6367,-2.5928,-2.5762,-2.5732,-2.5732,-2.5732,-2.5732,-2.5732,-2.5732,-2.5732,-2.5625,-2.54,-2.4951,-2.4473,-2.4072,-2.3672,-2.332,-2.3144,-2.3144,-2.3144,-2.3144,-2.3144,-2.3144,-2.3144,-2.3144,-2.3144,-2.3144,-2.3144,-2.3144,-2.3144,-2.3144,-2.3144,-2.3144,-2.3144,-2.3144,-2.3144,-2.3144,-2.3144,-2.3144,-2.3144,-2.3144,-2.3144,-2.3144,-2.3144,-2.3086,-2.3125,-2.2764,-2.2598,-2.2529,-2.2207,-2.209,-2.2148,-2.2451,-2.2627,-2.2637,-2.2959,-2.3144,-2.3144,-2.3144,-2.3144,-2.3144,-2.3144,-2.3144,-2.3144,-2.3144,-2.3144,-2.3144,-2.3144,-2.3144,-2.3144,-2.3144,-2.3144,-2.3144,-2.3144,-2.3144,-2.3144,-2.3144,-2.3144,-2.3144,-2.3144,-2.3144,-2.3144,-2.3144,-2.3144,-2.3144,-2.3144,-2.3144,-2.3144,-2.3144,-2.3144,-2.3144,-2.3144,-2.3144,-2.3144,-2.3144,-2.3076,-2.2783,-2.2005,-2.107,-1.9761,-1.7977,-1.6605,-1.5621,-1.4977,-1.4412,-1.4088,-1.4088,-1.4088,-1.4088,-1.4088,-1.4088,-2.7744,-2.7598,-2.6836,-2.6475,-2.6318,-2.5928,-2.5732,-2.5732,-2.5732,-2.5732,-2.5732,-2.5732,-2.5732,-2.5713,-2.5391,-2.4971,-2.457,-2.4131,-2.3691,-2.3301,-2.3213,-2.3144,-2.3144,-2.3144,-2.3144,-2.3144,-2.3144,-2.3144,-2.3144,-2.3144,-2.3144,-2.3144,-2.3144,-2.3144,-2.3144,-2.3144,-2.3144,-2.3144,-2.3144,-2.3144,-2.3144,-2.3144,-2.3144,-2.3144,-2.3144,-2.3144,-2.3144,-2.3144,-2.3144,-2.3115,-2.3047,-2.2949,-2.293,-2.2871,-2.2793,-2.2793,-2.2881,-2.2988,-2.3018,-2.3066,-2.3144,-2.3144,-2.3144,-2.3144,-2.3144,-2.3144,-2.3144,-2.3144,-2.3144,-2.3144,-2.3144,-2.3144,-2.3144,-2.3144,-2.3144,-2.3144,-2.3144,-2.3144,-2.3144,-2.3144,-2.3144,-2.3144,-2.3144,-2.3144,-2.3144,-2.3144,-2.3144,-2.3144,-2.3144,-2.3144,-2.3144,-2.3144,-2.3144,-2.3144,-2.3144,-2.3144,-2.3144,-2.3144,-2.3144,-2.3125,-2.2832,-2.2279,-2.1432,-2.0081,-1.8473,-1.7294,-1.6453,-1.5304,-1.4657,-1.4412,-1.425,-1.4328,-1.4412,-1.425,-1.4088,-2.7432,-2.7021,-2.6572,-2.6279,-2.6074,-2.584,-2.5732,-2.5732,-2.5732,-2.5732,-2.5732,-2.5732,-2.5732,-2.5693,-2.5264,-2.4834,-2.4336,-2.376,-2.3369,-2.3174,-2.3144,-2.3144,-2.3144,-2.3144,-2.3144,-2.3144,-2.3144,-2.3144,-2.3144,-2.3144,-2.3144,-2.3144,-2.3144,-2.3144,-2.3144,-2.3144,-2.3144,-2.3144,-2.3144,-2.3144,-2.3144,-2.3144,-2.3144,-2.3144,-2.3144,-2.3144,-2.3144,-2.3144,-2.3144,-2.3144,-2.3144,-2.3144,-2.3144,-2.3144,-2.3144,-2.3144,-2.3144,-2.3144,-2.3135,-2.3144,-2.3144,-2.3144,-2.3144,-2.3144,-2.3144,-2.3144,-2.3144,-2.3144,-2.3144,-2.3144,-2.3144,-2.3144,-2.3144,-2.3144,-2.3144,-2.3144,-2.3144,-2.3144,-2.3144,-2.3144,-2.3144,-2.3144,-2.3144,-2.3144,-2.3144,-2.3144,-2.3144,-2.3144,-2.3144,-2.3144,-2.3144,-2.3144,-2.3144,-2.3144,-2.3144,-2.3144,-2.3144,-2.3144,-2.3144,-2.3144,-2.3027,-2.2386,-2.1709,-2.042,-1.9252,-1.8484,-1.7577,-1.6281,-1.5387,-1.5628,-1.5628,-1.5144,-1.465,-1.4489,-1.425,-2.7041,-2.6377,-2.6318,-2.6074,-2.5771,-2.5732,-2.5732,-2.5732,-2.5732,-2.5732,-2.5732,-2.5732,-2.5732,-2.5625,-2.5156,-2.4707,-2.4111,-2.3584,-2.3164,-2.3154,-2.3144,-2.3144,-2.3144,-2.3144,-2.3144,-2.3144,-2.3144,-2.3144,-2.3144,-2.3144,-2.3144,-2.3144,-2.3144,-2.3144,-2.3144,-2.3144,-2.3144,-2.3144,-2.3144,-2.3144,-2.3144,-2.3144,-2.3144,-2.3144,-2.3144,-2.3144,-2.3144,-2.3144,-2.3144,-2.3144,-2.3144,-2.3144,-2.3144,-2.3144,-2.3144,-2.3144,-2.3144,-2.3144,-2.3144,-2.3144,-2.3144,-2.3144,-2.3144,-2.3144,-2.3144,-2.3144,-2.3144,-2.3144,-2.3144,-2.3144,-2.3144,-2.3144,-2.3144,-2.3144,-2.3144,-2.3144,-2.3144,-2.3144,-2.3144,-2.3144,-2.3144,-2.3144,-2.3144,-2.3144,-2.3144,-2.3144,-2.3144,-2.3144,-2.3144,-2.3144,-2.3144,-2.3144,-2.3144,-2.3144,-2.3144,-2.3144,-2.3144,-2.3144,-2.3144,-2.3066,-2.3018,-2.2347,-2.1783,-2.1313,-2.0389,-1.9379,-1.847,-1.7334,-1.6854,-1.709,-1.6437,-1.5379,-1.4894,-1.465,-1.4328,-2.6514,-2.6348,-2.5996,-2.5801,-2.5742,-2.5732,-2.5732,-2.5732,-2.5732,-2.5732,-2.5732,-2.5732,-2.5732,-2.5518,-2.4853,-2.4121,-2.3555,-2.3203,-2.3144,-2.3144,-2.3144,-2.3144,-2.3144,-2.3144,-2.3144,-2.3144,-2.3144,-2.3144,-2.3144,-2.3144,-2.3144,-2.3144,-2.3144,-2.3144,-2.3144,-2.3144,-2.3144,-2.3144,-2.3144,-2.3144,-2.3144,-2.3144,-2.3144,-2.3144,-2.3144,-2.3144,-2.3144,-2.3144,-2.3144,-2.3144,-2.3144,-2.3144,-2.3144,-2.3144,-2.3144,-2.3144,-2.3144,-2.3144,-2.3144,-2.3144,-2.3144,-2.3144,-2.3144,-2.3144,-2.3144,-2.3144,-2.3144,-2.3144,-2.3144,-2.3144,-2.3144,-2.3144,-2.3144,-2.3144,-2.3144,-2.3144,-2.3144,-2.3144,-2.3144,-2.3144,-2.3144,-2.3144,-2.3144,-2.3144,-2.3144,-2.3144,-2.3144,-2.3144,-2.3144,-2.3144,-2.3144,-2.3144,-2.3144,-2.3144,-2.3144,-2.3144,-2.3144,-2.3144,-2.3096,-2.292,-2.2734,-2.2246,-2.1763,-2.1337,-2.0628,-1.951,-1.8709,-1.8149,-1.7577,-1.7334,-1.6437,-1.5462,-1.5061,-1.4657,-1.4328,-2.626,-2.6035,-2.582,-2.5732,-2.5732,-2.5732,-2.5732,-2.5732,-2.5732,-2.5732,-2.5732,-2.5723,-2.5596,-2.5273,-2.4736,-2.3945,-2.332,-2.3144,-2.3144,-2.3144,-2.3144,-2.3144,-2.3144,-2.3144,-2.3144,-2.3144,-2.3144,-2.3144,-2.3144,-2.3144,-2.3144,-2.3144,-2.3144,-2.3144,-2.3144,-2.3144,-2.3144,-2.3144,-2.3144,-2.3144,-2.3144,-2.3144,-2.3144,-2.3144,-2.3144,-2.3144,-2.3144,-2.3144,-2.3144,-2.3144,-2.3144,-2.3144,-2.3144,-2.3144,-2.3144,-2.3144,-2.3144,-2.3144,-2.3144,-2.3144,-2.3144,-2.3144,-2.3144,-2.3144,-2.3144,-2.3144,-2.3144,-2.3144,-2.3144,-2.3144,-2.3144,-2.3144,-2.3144,-2.3144,-2.3144,-2.3144,-2.3144,-2.3144,-2.3144,-2.3144,-2.3144,-2.3144,-2.3144,-2.3144,-2.3144,-2.3144,-2.3144,-2.3144,-2.3144,-2.3144,-2.3144,-2.3144,-2.3144,-2.3144,-2.3144,-2.3144,-2.3144,-2.3144,-2.3008,-2.2832,-2.2529,-2.208,-2.1748,-2.1393,-2.0547,-1.9706,-1.9756,-1.9432,-1.8461,-1.7496,-1.6846,-1.6116,-1.5304,-1.4657,-1.4334,-2.6055,-2.5732,-2.5732,-2.5732,-2.5732,-2.5732,-2.5732,-2.5732,-2.5732,-2.5732,-2.5723,-2.5615,-2.5391,-2.501,-2.4492,-2.3857,-2.3164,-2.3144,-2.3144,-2.3144,-2.3144,-2.3144,-2.3144,-2.3144,-2.3144,-2.3144,-2.3144,-2.3144,-2.3144,-2.3144,-2.3144,-2.3144,-2.3144,-2.3144,-2.3144,-2.3144,-2.3144,-2.3144,-2.3144,-2.3144,-2.3144,-2.3144,-2.3144,-2.3144,-2.3144,-2.3144,-2.3144,-2.3144,-2.3144,-2.3144,-2.3144,-2.3144,-2.3144,-2.3144,-2.3144,-2.3144,-2.3144,-2.3144,-2.3144,-2.3144,-2.3144,-2.3144,-2.3144,-2.3144,-2.3144,-2.3144,-2.3144,-2.3144,-2.3144,-2.3144,-2.3144,-2.3144,-2.3144,-2.3144,-2.3144,-2.3144,-2.3144,-2.3144,-2.3144,-2.3144,-2.3144,-2.3144,-2.3144,-2.3144,-2.3144,-2.3144,-2.3144,-2.3144,-2.3144,-2.3144,-2.3144,-2.3144,-2.3144,-2.3144,-2.3144,-2.3144,-2.3144,-2.3144,-2.292,-2.2685,-2.2344,-2.1963,-2.1621,-2.1221,-2.0858,-2.0245,-2.0489,-2.0245,-1.8868,-1.7827,-1.7415,-1.6527,-1.5061,-1.4496,-1.4166,-2.5781,-2.5732,-2.5732,-2.5732,-2.5732,-2.5732,-2.5732,-2.5732,-2.5732,-2.5732,-2.5703,-2.5428,-2.5317,-2.5085,-2.4433,-2.3683,-2.335,-2.3222,-2.3299,-2.3299,-2.3135,-2.3144,-2.3144,-2.3144,-2.3144,-2.3144,-2.3144,-2.3144,-2.3144,-2.3144,-2.3144,-2.3144,-2.3144,-2.3144,-2.3144,-2.3144,-2.3144,-2.3144,-2.3144,-2.3144,-2.3144,-2.3144,-2.3144,-2.3144,-2.3144,-2.3144,-2.3144,-2.3144,-2.3144,-2.3144,-2.3144,-2.3144,-2.3144,-2.3144,-2.3144,-2.3144,-2.3144,-2.3144,-2.3144,-2.3144,-2.3144,-2.3144,-2.3144,-2.3144,-2.3144,-2.3144,-2.3144,-2.3144,-2.3144,-2.3144,-2.3144,-2.3144,-2.3144,-2.3144,-2.3144,-2.3144,-2.3144,-2.3144,-2.3144,-2.3144,-2.3144,-2.3144,-2.3144,-2.3144,-2.3144,-2.3144,-2.3144,-2.3144,-2.3144,-2.3144,-2.3144,-2.3144,-2.3144,-2.3144,-2.3144,-2.3144,-2.3144,-2.3144,-2.2852,-2.2539,-2.2158,-2.1768,-2.124,-2.0879,-2.0654,-2.0566,-2.0566,-2.0001,-1.8877,-1.7989,-1.7253,-1.5951,-1.4489,-1.4166,-1.4088,-2.639,-2.5732,-2.5732,-2.5732,-2.5732,-2.5732,-2.5732,-2.5732,-2.5732,-2.5732,-2.5732,-2.5993,-2.6074,-2.5957,-2.5548,-2.5274,-2.4914,-2.4307,-2.4049,-2.3714,-2.3377,-2.3135,-2.3144,-2.3144,-2.3144,-2.3144,-2.3144,-2.3144,-2.3144,-2.3144,-2.3144,-2.3144,-2.3144,-2.3144,-2.3144,-2.3144,-2.3144,-2.3144,-2.3144,-2.3144,-2.3144,-2.3144,-2.3144,-2.3144,-2.3144,-2.3144,-2.3144,-2.3144,-2.3144,-2.3144,-2.3144,-2.3144,-2.3144,-2.3144,-2.3144,-2.3144,-2.3144,-2.3144,-2.3144,-2.3144,-2.3144,-2.3144,-2.3144,-2.3144,-2.3144,-2.3144,-2.3144,-2.3144,-2.3144,-2.3144,-2.3144,-2.3144,-2.3144,-2.3144,-2.3144,-2.3144,-2.3144,-2.3144,-2.3144,-2.3144,-2.3144,-2.3144,-2.3144,-2.3144,-2.3144,-2.3144,-2.3144,-2.3144,-2.3144,-2.3144,-2.3144,-2.3144,-2.3144,-2.3144,-2.3144,-2.3144,-2.3144,-2.3076,-2.2754,-2.2412,-2.1992,-2.1543,-2.1045,-2.0752,-2.0625,-2.0566,-2.0557,-1.9991,-1.9116,-1.806,-1.6927,-1.5628,-1.4412,-1.4166,-1.4088,-2.7494,-2.6562,-2.6014,-2.583,-2.6197,-2.6197,-2.638,-2.6648,-2.6516,-2.6476,-2.6418,-2.6679,-2.6822,-2.6867,-2.6529,-2.6102,-2.5902,-2.521,-2.4628,-2.4125,-2.3637,-2.3135,-2.3144,-2.3144,-2.3144,-2.3144,-2.3144,-2.3144,-2.3144,-2.3144,-2.3144,-2.3144,-2.3144,-2.3144,-2.3144,-2.3144,-2.3144,-2.3144,-2.3144,-2.3144,-2.3144,-2.3144,-2.3144,-2.3144,-2.3144,-2.3144,-2.3144,-2.3144,-2.3144,-2.3144,-2.3144,-2.3144,-2.3144,-2.3144,-2.3144,-2.3144,-2.3144,-2.3144,-2.3144,-2.3144,-2.3144,-2.3144,-2.3144,-2.3144,-2.3144,-2.3144,-2.3144,-2.3144,-2.3144,-2.3144,-2.3144,-2.3144,-2.3144,-2.3144,-2.3144,-2.3144,-2.3144,-2.3144,-2.3144,-2.3144,-2.3144,-2.3144,-2.3144,-2.3144,-2.3144,-2.3144,-2.3144,-2.3144,-2.3144,-2.3144,-2.3144,-2.3144,-2.3144,-2.3144,-2.3144,-2.3144,-2.3144,-2.2988,-2.2666,-2.2334,-2.1934,-2.1416,-2.0889,-2.0684,-2.0586,-2.0245,-2.0001,-1.9678,-1.9274,-1.79,-1.6527,-1.5553,-1.4657,-1.4334,-1.4088,-2.9223,-2.8947,-2.6658,-2.6476,-2.7494,-2.7494,-2.8121,-2.8664,-2.8451,-2.8162,-2.7997,-2.7533,-2.7048,-2.6817,-2.688,-2.6295,-2.5126,-2.4872,-2.4372,-2.3714,-2.3135,-2.3135,-2.3144,-2.3144,-2.3144,-2.3144,-2.3144,-2.3144,-2.3144,-2.3144,-2.3144,-2.3144,-2.3144,-2.3144,-2.3144,-2.3144,-2.3144,-2.3144,-2.3144,-2.3144,-2.3144,-2.3144,-2.3144,-2.3144,-2.3144,-2.3144,-2.3144,-2.3144,-2.3144,-2.3144,-2.3144,-2.3144,-2.3144,-2.3144,-2.3144,-2.3144,-2.3144,-2.3144,-2.3144,-2.3144,-2.3144,-2.3144,-2.3144,-2.3144,-2.3144,-2.3144,-2.3144,-2.3144,-2.3144,-2.3144,-2.3144,-2.3144,-2.3144,-2.3144,-2.3144,-2.3144,-2.3144,-2.3144,-2.3144,-2.3144,-2.3144,-2.3144,-2.3144,-2.3144,-2.3144,-2.3144,-2.3144,-2.3144,-2.3144,-2.3144,-2.3144,-2.3144,-2.3144,-2.3144,-2.3144,-2.3144,-2.3144,-2.2881,-2.2539,-2.2236,-2.1914,-2.1357,-2.0713,-2.0654,-2.0566,-2.001,-1.9362,-1.8877,-1.823,-1.7172,-1.6206,-1.5311,-1.4657,-1.425,-1.4088,-3.0496,-3.0316,-2.8669,-2.8215,-2.8648,-2.8364,-2.8517,-2.8779,-2.8332,-2.8366,-2.8703,-2.837,-2.8269,-2.8411,-2.8462,-2.7867,-2.686,-2.6047,-2.5126,-2.4221,-2.3551,-2.3135,-2.3144,-2.3144,-2.3144,-2.3144,-2.3144,-2.3144,-2.3144,-2.3144,-2.3144,-2.3144,-2.3144,-2.3144,-2.3144,-2.3144,-2.3144,-2.3144,-2.3144,-2.3144,-2.3144,-2.3144,-2.3144,-2.3144,-2.3144,-2.3144,-2.3144,-2.3144,-2.3144,-2.3144,-2.3144,-2.3144,-2.3144,-2.3144,-2.3144,-2.3144,-2.3144,-2.3144,-2.3144,-2.3144,-2.3144,-2.3144,-2.3144,-2.3144,-2.3144,-2.3144,-2.3144,-2.3144,-2.3144,-2.3144,-2.3144,-2.3144,-2.3144,-2.3144,-2.3144,-2.3144,-2.3144,-2.3144,-2.3144,-2.3144,-2.3144,-2.3144,-2.3144,-2.3144,-2.3144,-2.3144,-2.3144,-2.3144,-2.3144,-2.3144,-2.3144,-2.3144,-2.3144,-2.3144,-2.3144,-2.3144,-2.3144,-2.2783,-2.2412,-2.209,-2.1758,-2.1133,-2.0615,-2.0576,-2.0411,-1.9844,-1.9036,-1.8069,-1.718,-1.6445,-1.5786,-1.5137,-1.4657,-1.4166,-1.4088,-3.1668,-3.1348,-3.0631,-2.9996,-2.968,-2.926,-2.9286,-2.9341,-2.8866,-2.8703,-2.9096,-2.9153,-2.9328,-2.9621,-2.9287,-2.853,-2.7279,-2.6295,-2.5294,-2.4307,-2.3387,-2.3135,-2.3144,-2.3144,-2.3144,-2.3144,-2.3144,-2.3144,-2.3144,-2.3144,-2.3144,-2.3144,-2.3144,-2.3144,-2.3144,-2.3144,-2.3144,-2.3144,-2.3144,-2.3144,-2.3144,-2.3144,-2.3144,-2.3144,-2.3144,-2.3144,-2.3144,-2.3144,-2.3144,-2.3144,-2.3144,-2.3144,-2.3144,-2.3144,-2.3144,-2.3144,-2.3144,-2.3144,-2.3144,-2.3144,-2.3144,-2.3144,-2.3144,-2.3144,-2.3144,-2.3144,-2.3144,-2.3144,-2.3144,-2.3144,-2.3144,-2.3144,-2.3144,-2.3144,-2.3144,-2.3144,-2.3144,-2.3144,-2.3144,-2.3144,-2.3144,-2.3144,-2.3144,-2.3144,-2.3144,-2.3144,-2.3144,-2.3144,-2.3144,-2.3144,-2.3144,-2.3144,-2.3144,-2.3144,-2.3144,-2.3144,-2.3076,-2.2685,-2.2305,-2.1924,-2.1494,-2.0908,-2.0586,-2.0566,-2.0245,-1.9678,-1.863,-1.7334,-1.6519,-1.5951,-1.5296,-1.4734,-1.4489,-1.4088,-1.4088,-3.2619,-3.2168,-3.2059,-3.1333,-3.0402,-3.034,-3.064,-3.0857,-3.0431,-3.0015,-2.9683,-2.9699,-2.9699,-2.9546,-2.8858,-2.7855,-2.6707,-2.5535,-2.4457,-2.356,-2.3222,-2.3144,-2.3144,-2.3144,-2.3144,-2.3144,-2.3144,-2.3144,-2.3144,-2.3144,-2.3144,-2.3144,-2.3144,-2.3144,-2.3144,-2.3144,-2.3144,-2.3144,-2.3144,-2.3144,-2.3144,-2.3144,-2.3144,-2.3144,-2.3144,-2.3144,-2.3144,-2.3144,-2.3144,-2.3144,-2.3144,-2.3144,-2.3144,-2.3144,-2.3144,-2.3144,-2.3144,-2.3144,-2.3144,-2.3144,-2.3144,-2.3144,-2.3144,-2.3144,-2.3144,-2.3144,-2.3144,-2.3144,-2.3144,-2.3144,-2.3144,-2.3144,-2.3144,-2.3144,-2.3144,-2.3144,-2.3144,-2.3144,-2.3144,-2.3144,-2.3144,-2.3144,-2.3144,-2.3144,-2.3144,-2.3144,-2.3144,-2.3144,-2.3144,-2.3144,-2.3144,-2.3144,-2.3144,-2.3144,-2.3144,-2.3144,-2.2998,-2.2598,-2.2207,-2.1836,-2.1406,-2.0889,-2.0664,-2.0508,-1.9923,-1.9195,-1.79,-1.6527,-1.5786,-1.5137,-1.465,-1.425,-1.4088,-1.4088,-1.4088,-3.1838,-3.1675,-3.1662,-3.1215,-3.0577,-3.0552,-3.0698,-3.0728,-3.0331,-2.9955,-2.9817,-2.9779,-2.9779,-2.9443,-2.853,-2.7441,-2.6389,-2.5294,-2.4211,-2.3222,-2.3135,-2.3144,-2.3144,-2.3144,-2.3144,-2.3144,-2.3144,-2.3144,-2.3144,-2.3144,-2.3144,-2.3144,-2.3144,-2.3144,-2.3144,-2.3144,-2.3144,-2.3144,-2.3144,-2.3144,-2.3144,-2.3144,-2.3144,-2.3144,-2.3144,-2.3144,-2.3144,-2.3144,-2.3144,-2.3144,-2.3144,-2.3144,-2.3144,-2.3144,-2.3144,-2.3144,-2.3144,-2.3144,-2.3144,-2.3144,-2.3144,-2.3144,-2.3144,-2.3144,-2.3144,-2.3144,-2.3144,-2.3144,-2.3144,-2.3144,-2.3144,-2.3144,-2.3144,-2.3144,-2.3144,-2.3144,-2.3144,-2.3144,-2.3144,-2.3144,-2.3144,-2.3144,-2.3144,-2.3144,-2.3144,-2.3144,-2.3144,-2.3144,-2.3144,-2.3144,-2.3144,-2.3144,-2.3144,-2.3144,-2.3144,-2.3144,-2.29,-2.248,-2.2119,-2.1768,-2.1318,-2.082,-2.0596,-2.0411,-1.952,-1.8638,-1.7172,-1.5794,-1.5061,-1.4412,-1.4166,-1.4088,-1.4088,-1.4088,-1.4088,-3.1286,-3.1122,-3.1135,-3.0821,-3.0407,-3.0532,-3.052,-3.0306,-2.9942,-2.9779,-2.9779,-2.9779,-2.9534,-2.8949,-2.8028,-2.6942,-2.588,-2.521,-2.4211,-2.3299,-2.3541,-2.3464,-2.3212,-2.3135,-2.3144,-2.3144,-2.3144,-2.3144,-2.3144,-2.3144,-2.3144,-2.3144,-2.3144,-2.3144,-2.3144,-2.3144,-2.3144,-2.3144,-2.3144,-2.3144,-2.3144,-2.3144,-2.3144,-2.3144,-2.3144,-2.3144,-2.3144,-2.3144,-2.3144,-2.3144,-2.3144,-2.3144,-2.3144,-2.3144,-2.3144,-2.3144,-2.3144,-2.3144,-2.3144,-2.3144,-2.3144,-2.3144,-2.3144,-2.3144,-2.3144,-2.3144,-2.3144,-2.3144,-2.3144,-2.3144,-2.3144,-2.3144,-2.3144,-2.3144,-2.3144,-2.3144,-2.3144,-2.3144,-2.3144,-2.3144,-2.3144,-2.3144,-2.3144,-2.3144,-2.3144,-2.3144,-2.3144,-2.3144,-2.3144,-2.3144,-2.3144,-2.3144,-2.3144,-2.3144,-2.3144,-2.3144,-2.2832,-2.2363,-2.2031,-2.1719,-2.1162,-2.0674,-2.0449,-2.0001,-1.8868,-1.7738,-1.6363,-1.5144,-1.4573,-1.425,-1.4166,-1.4088,-1.4088,-1.4088,-1.4088,-3.1035,-3.062,-3.0595,-3.0294,-2.9942,-3.0331,-3.0269,-2.9817,-2.9804,-2.9779,-2.9779,-2.9779,-2.9443,-2.8267,-2.7209,-2.6295,-2.5535,-2.521,-2.4467,-2.4059,-2.4553,-2.4049,-2.3637,-2.3387,-2.3309,-2.3135,-2.3144,-2.3144,-2.3144,-2.3144,-2.3144,-2.3144,-2.3144,-2.3144,-2.3144,-2.3144,-2.3144,-2.3144,-2.3144,-2.3144,-2.3144,-2.3144,-2.3144,-2.3144,-2.3144,-2.3144,-2.3144,-2.3144,-2.3144,-2.3144,-2.3144,-2.3144,-2.3144,-2.3144,-2.3144,-2.3144,-2.3144,-2.3144,-2.3144,-2.3144,-2.3144,-2.3144,-2.3144,-2.3144,-2.3144,-2.3144,-2.3144,-2.3144,-2.3144,-2.3144,-2.3144,-2.3144,-2.3144,-2.3144,-2.3144,-2.3144,-2.3144,-2.3144,-2.3144,-2.3144,-2.3144,-2.3144,-2.3144,-2.3144,-2.3144,-2.3144,-2.3144,-2.3144,-2.3144,-2.3144,-2.3144,-2.3144,-2.3144,-2.3144,-2.3135,-2.3115,-2.2715,-2.2236,-2.2012,-2.1689,-2.1094,-2.0537,-2.0186,-1.9511,-1.8141,-1.6764,-1.5387,-1.4657,-1.4334,-1.4088,-1.4088,-1.4088,-1.4088,-1.4088,-1.4088,-3.0168,-3.003,-3.003,-2.9942,-2.9829,-2.9967,-2.9942,-2.9804,-2.9779,-2.9779,-2.9779,-2.9779,-2.9534,-2.9197,-2.8187,-2.7429,-2.686,-2.6461,-2.5975,-2.5724,-2.5557,-2.5136,-2.4628,-2.4135,-2.38,-2.3299,-2.3144,-2.3144,-2.3144,-2.3144,-2.3144,-2.3144,-2.3144,-2.3144,-2.3144,-2.3144,-2.3144,-2.3144,-2.3144,-2.3144,-2.3144,-2.3144,-2.3144,-2.3144,-2.3144,-2.3144,-2.3144,-2.3144,-2.3144,-2.3144,-2.3144,-2.3144,-2.3144,-2.3144,-2.3144,-2.3144,-2.3144,-2.3144,-2.3144,-2.3144,-2.3144,-2.3144,-2.3144,-2.3144,-2.3144,-2.3144,-2.3144,-2.3144,-2.3144,-2.3144,-2.3144,-2.3144,-2.3144,-2.3144,-2.3144,-2.3144,-2.3144,-2.3144,-2.3144,-2.3144,-2.3144,-2.3144,-2.3144,-2.3144,-2.3144,-2.3144,-2.3144,-2.3144,-2.3144,-2.3144,-2.3144,-2.3144,-2.3037,-2.2998,-2.3057,-2.2969,-2.2578,-2.2148,-2.1885,-2.1533,-2.0779,-2.0255,-1.9923,-1.8868,-1.7253,-1.5876,-1.4573,-1.4166,-1.4088,-1.4088,-1.4088,-1.4088,-1.4088,-1.4088,-1.4088,-2.9779,-2.9779,-2.9779,-2.9779,-2.9779,-2.9779,-2.9779,-2.9779,-2.9779,-2.9779,-2.9779,-2.9779,-2.9534,-2.8949,-2.8267,-2.7775,-2.729,-2.7197,-2.6883,-2.6318,-2.6565,-2.563,-2.5126,-2.4372,-2.3637,-2.3309,-2.3135,-2.3144,-2.3144,-2.3144,-2.3144,-2.3144,-2.3144,-2.3144,-2.3144,-2.3144,-2.3144,-2.3144,-2.3144,-2.3144,-2.3144,-2.3144,-2.3144,-2.3144,-2.3144,-2.3144,-2.3144,-2.3144,-2.3144,-2.3144,-2.3144,-2.3144,-2.3144,-2.3144,-2.3144,-2.3144,-2.3144,-2.3144,-2.3144,-2.3144,-2.3144,-2.3144,-2.3144,-2.3144,-2.3144,-2.3144,-2.3144,-2.3144,-2.3144,-2.3144,-2.3144,-2.3144,-2.3144,-2.3144,-2.3144,-2.3144,-2.3144,-2.3144,-2.3144,-2.3144,-2.3144,-2.3144,-2.3144,-2.3144,-2.3144,-2.3144,-2.3144,-2.3144,-2.3144,-2.3144,-2.3144,-2.3144,-2.2959,-2.2822,-2.2881,-2.2726,-2.2275,-2.1846,-2.1621,-2.115,-2.0399,-1.9668,-1.9036,-1.7738,-1.6198,-1.5061,-1.4166,-1.4173,-1.4088,-1.4088,-1.4088,-1.4088,-1.4088,-1.4088,-1.4088,-2.9779,-2.9779,-2.9779,-2.9779,-2.9779,-2.9779,-2.9779,-2.9779,-2.9779,-2.9779,-2.9779,-2.9779,-2.9287,-2.8846,-2.8505,-2.8028,-2.7775,-2.7775,-2.7452,-2.6637,-2.6883,-2.6295,-2.521,-2.4049,-2.4221,-2.3637,-2.3135,-2.3144,-2.3144,-2.3144,-2.3144,-2.3144,-2.3144,-2.3144,-2.3144,-2.3144,-2.3144,-2.3144,-2.3144,-2.3144,-2.3144,-2.3144,-2.3144,-2.3144,-2.3144,-2.3144,-2.3144,-2.3144,-2.3144,-2.3144,-2.3144,-2.3144,-2.3144,-2.3144,-2.3144,-2.3144,-2.3144,-2.3144,-2.3144,-2.3144,-2.3144,-2.3144,-2.3144,-2.3144,-2.3144,-2.3144,-2.3144,-2.3144,-2.3144,-2.3144,-2.3144,-2.3144,-2.3144,-2.3144,-2.3144,-2.3144,-2.3144,-2.3144,-2.3144,-2.3144,-2.3144,-2.3144,-2.3144,-2.3144,-2.3144,-2.3144,-2.3144,-2.3144,-2.3086,-2.3076,-2.3066,-2.3057,-2.2852,-2.2646,-2.2559,-2.2393,-2.1885,-2.1514,-2.1257,-2.0585,-1.979,-1.8966,-1.8069,-1.6927,-1.5703,-1.4901,-1.425,-1.4173,-1.4088,-1.4088,-1.4088,-1.4088,-1.4088,-1.4088,-1.4088,-2.9779,-2.9779,-2.9779,-2.9779,-2.9779,-2.9779,-2.9779,-2.9779,-2.9779,-2.9779,-2.9779,-2.9792,-2.9624,-2.9275,-2.9263,-2.8949,-2.8937,-2.8347,-2.8016,-2.7775,-2.7683,-2.7035,-2.6213,-2.5557,-2.5473,-2.5062,-2.4307,-2.3144,-2.3144,-2.3144,-2.3144,-2.3144,-2.3144,-2.3144,-2.3144,-2.3144,-2.3144,-2.3144,-2.3144,-2.3144,-2.3144,-2.3144,-2.3144,-2.3144,-2.3144,-2.3144,-2.3144,-2.3144,-2.3144,-2.3144,-2.3144,-2.3144,-2.3144,-2.3144,-2.3144,-2.3144,-2.3144,-2.3144,-2.3144,-2.3144,-2.3144,-2.3144,-2.3144,-2.3144,-2.3144,-2.3144,-2.3144,-2.3144,-2.3144,-2.3144,-2.3144,-2.3144,-2.3144,-2.3144,-2.3144,-2.3144,-2.3144,-2.3144,-2.3144,-2.3144,-2.3144,-2.3144,-2.3144,-2.3144,-2.3144,-2.3144,-2.3144,-2.3105,-2.2969,-2.291,-2.2861,-2.2822,-2.2666,-2.249,-2.2324,-2.1992,-2.1484,-2.1218,-2.1012,-2.0174,-1.9179,-1.8416,-1.7577,-1.6511,-1.5455,-1.481,-1.4412,-1.4173,-1.4088,-1.4088,-1.4088,-1.4088,-1.4088,-1.4088,-1.4088,-2.9779,-2.9779,-2.9779,-2.9779,-2.9779,-2.9779,-2.9779,-2.9779,-2.9779,-2.9779,-2.9779,-2.9779,-2.9779,-2.9779,-2.9779,-2.9779,-2.9702,-2.9184,-2.8937,-2.8846,-2.8176,-2.7775,-2.729,-2.6719,-2.588,-2.5389,-2.4059,-2.3144,-2.3144,-2.3144,-2.3144,-2.3144,-2.3144,-2.3144,-2.3144,-2.3144,-2.3144,-2.3144,-2.3144,-2.3144,-2.3144,-2.3144,-2.3144,-2.3144,-2.3144,-2.3144,-2.3144,-2.3144,-2.3144,-2.3144,-2.3144,-2.3144,-2.3144,-2.3144,-2.3144,-2.3144,-2.3144,-2.3144,-2.3144,-2.3144,-2.3144,-2.3144,-2.3125,-2.3125,-2.3135,-2.3144,-2.3144,-2.3144,-2.3144,-2.3144,-2.3144,-2.3144,-2.3144,-2.3144,-2.3144,-2.3144,-2.3144,-2.3144,-2.3144,-2.3144,-2.3144,-2.3144,-2.3144,-2.3144,-2.3144,-2.3144,-2.3144,-2.2949,-2.2822,-2.2588,-2.2578,-2.2461,-2.2236,-2.2021,-2.1768,-2.1465,-2.1103,-2.0907,-2.0748,-1.9503,-1.8496,-1.7836,-1.7009,-1.6191,-1.5538,-1.5054,-1.465,-1.425,-1.4088,-1.4088,-1.4088,-1.4088,-1.4088,-1.4088,-1.4088,-2.9779,-2.9779,-2.9779,-2.9779,-2.9779,-2.9779,-2.9779,-2.9779,-2.9779,-2.9779,-2.9779,-2.9779,-2.9779,-2.9779,-2.9779,-2.9779,-2.9611,-2.9106,-2.9275,-2.9106,-2.8438,-2.8016,-2.7614,-2.6964,-2.588,-2.4882,-2.38,-2.3299,-2.3144,-2.3144,-2.3144,-2.3144,-2.3144,-2.3144,-2.3144,-2.3144,-2.3144,-2.3144,-2.3144,-2.3144,-2.3144,-2.3144,-2.3144,-2.3144,-2.3144,-2.3144,-2.3144,-2.3144,-2.3144,-2.3144,-2.3144,-2.3144,-2.3144,-2.3144,-2.3144,-2.3144,-2.3144,-2.3144,-2.3144,-2.3144,-2.3144,-2.3135,-2.3115,-2.3057,-2.3037,-2.3037,-2.3027,-2.2978,-2.2978,-2.3125,-2.3125,-2.3144,-2.3144,-2.3135,-2.3135,-2.3066,-2.3057,-2.3066,-2.3076,-2.3057,-2.2998,-2.2998,-2.3027,-2.3037,-2.3037,-2.3057,-2.2959,-2.2783,-2.2549,-2.2217,-2.2031,-2.1826,-2.1562,-2.1357,-2.1279,-2.1064,-2.0801,-2.0673,-2.0339,-1.902,-1.7908,-1.7585,-1.7009,-1.6026,-1.5455,-1.5137,-1.465,-1.4166,-1.4088,-1.4088,-1.4088,-1.4088,-1.4088,-1.4088,-1.4088,-2.9779,-2.9779,-2.9779,-2.9779,-2.9779,-2.9779,-2.9779,-2.9779,-2.9779,-2.9779,-2.9779,-2.9779,-2.9779,-2.9779,-2.9779,-2.9779,-2.9702,-2.9197,-2.8597,-2.8255,-2.8438,-2.8267,-2.7683,-2.6707,-2.5305,-2.4382,-2.3877,-2.3887,-2.3222,-2.3144,-2.3144,-2.3144,-2.3144,-2.3144,-2.3144,-2.3144,-2.3144,-2.3144,-2.3144,-2.3144,-2.3144,-2.3144,-2.3144,-2.3144,-2.3144,-2.3144,-2.3144,-2.3144,-2.3144,-2.3144,-2.3144,-2.3144,-2.3144,-2.3144,-2.3144,-2.3105,-2.3105,-2.3105,-2.3096,-2.2988,-2.2949,-2.3018,-2.29,-2.2627,-2.2617,-2.2627,-2.2559,-2.2412,-2.2529,-2.2978,-2.3066,-2.3125,-2.3135,-2.3115,-2.3105,-2.2891,-2.2773,-2.2803,-2.2822,-2.2666,-2.249,-2.2539,-2.2607,-2.2598,-2.2578,-2.2549,-2.2451,-2.2295,-2.2275,-2.1914,-2.1523,-2.126,-2.0996,-2.1074,-2.1143,-2.0879,-2.0654,-2.0508,-2.0245,-1.9195,-1.839,-1.7738,-1.7009,-1.6026,-1.5538,-1.522,-1.4734,-1.4088,-1.4088,-1.4088,-1.4088,-1.4088,-1.4088,-1.4088,-1.4088]},{"header":{"parameterUnit":"m.s-1","parameterCategory":1,"la1":31.0,"la2":29.5877,"lo1":-88.7671,"lo2":-86.6584,"dy":0.0162,"dx":0.0185,"nx":115,"ny":88,"refTime":"2024-07-28T06:00:00:Z","depth":0,"parameterNumber":3,"parameterNumberName":"V-component_of_WINDS"},"data":[0.0,0.0,0.0,0.0,0.0,0.0,0.0,0.0,0.0,0.0,0.0,0.0,0.0,0.0,0.0,0.0,0.0,0.0,0.0,0.0,0.0,0.0,0.0,0.0,0.0,0.0,0.0,0.0,0.0,0.0,0.0,0.0,0.0,0.0,0.0,0.0,0.0,0.0,0.0,0.0,0.0,0.0,0.0,0.0,0.0,0.0,0.0,0.0,0.0,0.0,0.0,0.0,0.0,0.0,0.0,0.0,0.0,0.0,0.0,0.0,0.0,0.0,0.0,0.0,0.0,0.0,0.0,0.0,0.0,0.0,0.0,0.0,0.0,0.0,0.0,0.0,0.0,0.0,0.0,0.0,0.0,0.0,0.0,0.0,0.0,0.0,0.0,0.0,0.0,0.0,0.0,0.0,0.0,0.0,0.0,0.0,0.0,0.0,0.0,0.0,0.0,0.0,0.0,0.0,0.0,0.0,0.0,0.0,0.0,0.0,0.0,0.0,0.0,0.0,0.0,0.0,0.0,0.0,0.0,0.0,0.0,0.0,0.0,0.0,0.0,0.0,0.0,0.0,0.0,0.0,0.0,0.0,0.0,0.0,0.0,0.0,0.0,0.0,0.0,0.0,0.0,0.0,0.0,0.0,0.0,0.0,0.0,0.0,0.0,0.0,0.0,0.0,0.0,0.0,0.0,0.0,0.0,0.0,0.0,0.0,0.0,0.0,0.0,0.0,0.0,0.0,0.0,0.0,0.0,0.0,0.0,0.0,0.0,0.0,0.0,0.0,0.0,0.0,0.0,0.0,0.0,0.0,0.0,0.0,0.0,0.0,0.0,0.0,0.0,0.0,0.0,0.0,0.0,0.0,0.0,0.0,0.0,0.0,0.0,0.0,0.0,0.0,0.0,0.0,0.0,0.0,0.0,0.0,0.0,0.0,0.0,0.0,0.0,0.0,0.0,0.0,0.0,0.0,0.0,0.0,0.0,0.0,0.0,0.0,0.0,0.0,0.0,0.0,0.0,0.0,0.0,0.0,0.0,0.0,0.0,0.0,0.0,0.0,0.0,0.0,0.0,0.0,0.0,0.0,0.0,0.0,0.0,0.0,0.0,0.0,0.0,0.0,0.0,0.0,0.0,0.0,0.0,0.0,0.0,0.0,0.0,0.0,0.0,0.0,0.0,0.0,0.0,0.0,0.0,0.0,0.0,0.0,0.0,0.0,0.0,0.0,0.0,0.0,0.0,0.0,0.0,0.0,0.0,0.0,0.0,0.0,0.0,0.0,0.0,0.0,0.0,0.0,0.0,0.0,0.0,0.0,0.0,0.0,0.0,0.0,0.0,0.0,0.0,0.0,0.0,0.0,0.0,0.0,0.0,0.0,0.0,0.0,0.0,0.0,0.0,0.0,0.0,0.0,0.0,0.0,0.0,0.0,0.0,0.0,0.0,0.0,0.0,0.0,0.0,0.0,0.0,0.0,0.0,0.0,0.0,0.0,0.0,0.0,0.0,0.0,0.0,0.0,0.0,0.0,0.0,0.0,0.0,0.0,0.0,0.0,0.0,0.0,0.0,0.0,0.0,0.0,0.0,0.0,0.0,0.0,0.0,0.0,0.0,0.0,0.0,0.0,0.0,0.0,0.0,0.0,0.0,0.0,0.0,0.0,0.0,0.0,0.0,0.0,0.0,0.0,0.0,0.0,0.0,0.0,0.0,0.0,0.0,0.0,0.0,0.0,0.0,0.0,0.0,0.0,0.0,0.0,0.0,0.0,0.0,0.0,0.0,0.0,0.0,0.0,0.0,0.0,0.0,0.0,0.0,0.0,0.0,0.0,0.0,0.0,0.0,0.0,0.0,0.0,0.0,0.0,0.0,0.0,0.0,0.0,0.0,0.0,0.0,0.0,0.0,0.0,0.0,0.0,0.0,0.0,0.0,0.0,0.0,0.0,0.0,0.0,0.0,0.0,0.0,0.0,0.0,0.0,0.0,0.0,0.0,0.0,0.0,0.0,0.0,0.0,0.0,0.0,0.0,0.0,0.0,0.0,0.0,0.0,0.0,0.0,0.0,0.0,0.0,0.0,0.0,0.0,0.0,0.0,0.0,0.0,0.0,0.0,0.0,0.0,0.0,0.0,0.0,0.0,0.0,0.0,0.0,0.0,0.0,0.0,0.0,0.0,0.0,0.0,0.0,0.0,0.0,0.0,0.0,0.0,0.0,0.0,0.0,0.0,0.0,0.0,0.0,0.0,0.0,0.0,0.0,0.0,0.0,0.0,0.0,0.0,0.0,0.0,0.0,0.0,0.0,0.0,0.0,0.0,0.0,0.0,0.0,0.0,0.0,0.0,0.0,0.0,0.0,0.0,0.0,0.0,0.0,0.0,0.0,0.0,0.0,0.0,0.0,0.0,0.0,0.0,0.0,0.0,0.0,0.0,0.0,0.0,0.0,0.0,0.0,0.0,0.0,0.0,0.0,0.0,0.0,0.0,0.0,0.0,0.0,0.0,0.0,0.0,0.0,0.0,0.0,0.0,0.0,0.0,0.0,0.0,0.0,0.0,0.0,0.0,0.0,0.0,0.0,0.0,0.0,0.0,0.0,0.0,0.0,0.0,0.0,0.0,0.0,0.0,0.0,0.0,0.0,0.0,0.0,0.0,0.0,0.0,0.0,0.0,0.0,0.0,0.0,0.0,0.0,0.0,0.0,0.0,0.0,0.0,0.0,0.0,0.0,0.0,0.0,0.0,0.0,0.0,0.0,0.0,0.0,0.0,0.0,0.0,0.0,0.0,0.0,0.0,0.0,0.0,0.0,0.0,0.0,0.0,0.0,0.0,0.0,0.0,0.0,0.0,0.0,0.0,0.0,0.0,0.0,0.0,0.0,0.0,0.0,0.0,0.0,0.0,0.0,0.0,0.0,0.0,0.0,0.0,0.0,0.0,0.0,0.0,0.0,0.0,0.0,0.0,0.0,0.0,0.0,0.0,0.0,0.0,0.0,0.0,0.0,0.0,0.0,0.0,0.0,0.0,0.0,0.0,0.0,0.0,0.0,0.0,0.0,0.0,0.0,0.0,0.0,0.0,0.0,0.0,0.0,0.0,0.0,0.0,0.0,0.0,0.0,0.0,0.0,0.0,0.0,0.0,0.0,0.0,0.0,0.0,0.0,0.0,0.0,0.0,0.0,0.0,0.0,0.0,0.0,0.0,0.0,0.0,0.0,0.0,0.0,0.0,0.0,0.0,0.0,0.0,0.0,0.0,0.0,0.0,0.0,0.0,0.0,0.0,0.0,0.0,0.0,0.0,0.0,0.0,0.0,0.0,0.0,0.0,0.0,0.0,0.0,0.0,0.0,0.0,0.0,0.0,0.0,0.0,0.0,0.0,0.0,0.0,0.0,0.0,0.0,0.0,0.0,0.0,0.0,0.0,0.0,0.0,0.0,0.0,0.0,0.0,0.0,0.0,0.0,0.0,0.0,0.0,0.0,0.0,0.0,0.0,0.0,0.0,0.0,0.0,0.0,0.0,0.0,0.0,0.0,0.0,0.0,0.0,0.0,0.0,0.0,0.0,0.0,0.0,0.0,0.0,0.0,0.0,0.0,0.0,0.0,0.0,0.0,0.0,0.0,0.0,0.0,0.0,0.0,0.0,0.0,0.0,0.0,0.0,0.0,0.0,0.0,0.0,0.0,0.0,0.0,0.0,0.0,0.0,0.0,0.0,0.0,0.0,0.0,0.0,0.0,0.0,0.0,0.0,0.0,0.0,0.0,0.0,0.0,0.0,0.0,0.0,0.0,0.0,0.0,0.0,0.0,0.0,0.0,0.0,0.0,0.0,0.0,0.0,0.0,0.0,0.0,0.0,0.0,0.0,0.0,0.0,0.0,0.0,0.0,0.0,0.0,0.0,0.0,0.0,0.0,0.0,0.0,0.0,0.0,0.0,0.0,0.0,0.0,0.0,0.0,0.0,0.0,0.0,0.0,0.0,0.0,0.0,0.0,0.0,0.0,0.0,0.0,0.0,0.0,0.0,0.0,0.0,0.0,0.0,0.0,0.0,0.0,0.0,0.0,0.0,0.0,0.0,0.0,0.0,0.0,0.0,0.0,0.0,0.0,0.0,0.0,0.0,0.0,0.0,0.0,0.0,0.0,0.0,0.0,0.0,0.0,0.0,0.0,0.0,0.0,0.0,0.0,0.0,0.0,0.0,0.0,0.0,0.0,0.0,0.0,0.0,0.0,0.0,0.0,0.0,0.0,0.0,0.0,0.0,0.0,0.0,0.0,0.0,-0.6927,0.0,0.0,0.0,0.0,0.0,0.0,0.0,0.0,0.0,0.0,0.0,0.0,0.0,0.0,0.0,0.0,0.0,0.0,0.0,0.0,0.0,0.0,0.0,0.0,0.0,0.0,0.0,0.0,0.0,0.0,0.0,0.0,0.0,0.0,0.0,0.0,0.0,0.0,0.0,0.0,0.0,0.0,0.0,0.0,0.0,0.0,0.0,0.0,0.0,0.0,0.0,0.0,0.0,0.0,0.0,0.0,0.0,0.0,0.0,0.0,0.0,0.0,0.0,0.0,0.0,0.0,0.0,0.0,0.0,0.0,0.0,0.0,0.0,0.0,0.0,0.0,0.0,0.0,0.0,0.0,0.0,0.0,0.0,0.0,0.0,0.0,0.0,0.0,0.0,0.0,0.0,0.0,0.0,0.0,0.0,0.0,0.0,0.0,0.0,0.0,0.0,0.0,0.0,0.0,0.0,0.0,0.0,0.0,0.0,0.0,-0.9063,-0.8401,-0.8374,-0.7955,-0.7118,0.0,0.0,0.0,0.0,0.0,0.0,0.0,0.0,0.0,0.0,0.0,0.0,0.0,0.0,0.0,0.0,0.0,0.0,0.0,0.0,0.0,0.0,0.0,0.0,0.0,0.0,0.0,0.0,0.0,0.0,0.0,0.0,0.0,0.0,0.0,0.0,0.0,0.0,0.0,0.0,0.0,0.0,0.0,0.0,0.0,0.0,0.0,0.0,0.0,0.0,0.0,0.0,0.0,0.0,0.0,0.0,0.0,0.0,0.0,0.0,0.0,0.0,0.0,0.0,0.0,0.0,0.0,0.0,0.0,0.0,0.0,0.0,0.0,0.0,0.0,0.0,0.0,0.0,0.0,0.0,0.0,0.0,0.0,0.0,0.0,0.0,0.0,0.0,0.0,0.0,0.0,0.0,0.0,0.0,0.0,0.0,0.0,0.0,0.0,0.0,0.0,0.0,0.0,0.0,0.0,0.0,0.0,0.0,0.0,0.0,0.0,0.0,-0.8851,-0.8576,-0.7991,0.0,0.0,0.0,0.0,0.0,0.0,0.0,0.0,0.0,0.0,0.0,0.0,0.0,0.0,0.0,0.0,0.0,0.0,0.0,0.0,0.0,0.0,0.0,0.0,0.0,0.0,0.0,0.0,0.0,0.0,0.0,0.0,0.0,0.0,0.0,0.0,0.0,0.0,0.0,0.0,0.0,0.0,0.0,0.0,0.0,0.0,0.0,0.0,0.0,0.0,0.0,0.0,0.0,0.0,0.0,0.0,0.0,0.0,0.0,0.0,0.0,0.0,0.0,0.0,0.0,0.0,0.0,0.0,0.0,0.0,0.0,0.0,0.0,0.0,0.0,0.0,0.0,0.0,0.0,0.0,0.0,0.0,0.0,0.0,0.0,0.0,0.0,0.0,0.0,0.0,0.0,0.0,0.0,0.0,0.0,0.0,0.0,0.0,0.0,0.0,0.0,0.0,0.0,0.0,0.0,0.0,0.0,0.0,0.0,0.0,-0.9629,-1.1125,-1.1191,0.0,-1.0291,0.0,0.0,0.0,0.0,0.0,0.0,0.0,0.0,0.0,0.0,0.0,0.0,0.0,0.0,0.0,0.0,0.0,0.0,0.0,0.0,0.0,0.0,0.0,0.0,0.0,0.0,0.0,0.0,0.0,0.0,0.0,0.0,0.0,0.0,0.0,0.0,0.0,0.0,0.0,0.0,0.0,0.0,0.0,0.0,0.0,0.0,0.0,0.0,0.0,0.0,0.0,0.0,0.0,0.0,0.0,0.0,0.0,0.0,0.0,0.0,0.0,0.0,0.0,0.0,0.0,0.0,0.0,0.0,0.0,0.0,0.0,0.0,0.0,0.0,0.0,0.0,0.0,0.0,0.0,0.0,0.0,0.0,0.0,0.0,0.0,0.0,0.0,0.0,0.0,0.0,0.0,0.0,0.0,0.0,0.0,0.0,0.0,0.0,0.0,0.0,0.0,0.0,0.0,0.0,0.0,0.0,0.0,0.0,0.0,0.0,0.0,-1.1068,-1.1082,-1.0949,0.0,0.0,0.0,0.0,0.0,0.0,0.0,0.0,0.0,0.0,0.0,0.0,0.0,0.0,0.0,0.0,0.0,0.0,0.0,0.0,0.0,0.0,0.0,0.0,0.0,0.0,0.0,0.0,0.0,0.0,0.0,0.0,0.0,0.0,0.0,0.0,0.0,0.0,0.0,0.0,0.0,0.0,0.0,0.0,0.0,0.0,0.0,0.0,0.0,0.0,0.0,0.0,0.0,0.0,0.0,0.0,0.0,0.0,0.0,0.0,0.0,0.0,0.0,0.0,0.0,0.0,0.0,0.0,0.0,0.0,0.0,0.0,0.0,0.0,0.0,0.0,0.0,0.0,0.0,0.0,0.0,0.0,0.0,0.0,0.0,0.0,0.0,0.0,0.0,0.0,0.0,0.0,0.0,0.0,0.0,0.0,0.0,0.0,0.0,0.0,0.0,0.0,0.0,0.0,0.0,0.0,0.0,0.0,0.0,0.0,-1.0623,0.0,-1.1574,-1.1619,-1.1365,-1.0827,0.0,0.0,0.0,0.0,0.0,0.0,0.0,0.0,0.0,0.0,0.0,0.0,0.0,0.0,0.0,0.0,0.0,0.0,0.0,0.0,0.0,0.0,0.0,0.0,0.0,0.0,0.0,0.0,0.0,0.0,0.0,0.0,0.0,0.0,0.0,0.0,0.0,0.0,0.0,0.0,0.0,0.0,0.0,0.0,0.0,0.0,0.0,0.0,0.0,0.0,0.0,0.0,0.0,0.0,0.0,0.0,0.0,0.0,0.0,0.0,0.0,0.0,0.0,0.0,0.0,0.0,0.0,0.0,0.0,0.0,0.0,0.0,0.0,0.0,0.0,0.0,0.0,0.0,0.0,0.0,0.0,0.0,0.0,0.0,0.0,0.0,0.0,0.0,0.0,0.0,0.0,0.0,0.0,0.0,0.0,0.0,0.0,0.0,0.0,0.0,0.0,0.0,0.0,0.0,0.0,0.0,0.0,0.0,0.0,-1.1709,-1.1723,-1.3615,-1.3635,-1.2777,0.0,0.0,0.0,0.0,0.0,0.0,0.0,0.0,0.0,0.0,0.0,0.0,0.0,0.0,0.0,0.0,0.0,0.0,0.0,0.0,0.0,0.0,0.0,0.0,0.0,0.0,0.0,0.0,0.0,0.0,0.0,0.0,0.0,0.0,0.0,0.0,0.0,0.0,0.0,0.0,0.0,0.0,0.0,0.0,0.0,0.0,0.0,0.0,0.0,0.0,0.0,0.0,0.0,0.0,0.0,0.0,0.0,0.0,0.0,0.0,0.0,0.0,0.0,0.0,0.0,0.0,0.0,0.0,0.0,0.0,0.0,0.0,0.0,0.0,0.0,0.0,0.0,0.0,0.0,0.0,0.0,0.0,0.0,0.0,0.0,0.0,0.0,0.0,0.0,0.0,0.0,0.0,0.0,0.0,0.0,0.0,0.0,0.0,0.0,0.0,0.0,0.0,0.0,0.0,0.0,0.0,0.0,0.0,0.0,-0.995,-1.0533,-1.2366,-1.5412,-1.3217,-1.2127,0.0,0.0,0.0,0.0,0.0,0.0,0.0,0.0,0.0,0.0,0.0,0.0,0.0,0.0,0.0,0.0,0.0,0.0,0.0,0.0,0.0,0.0,0.0,0.0,0.0,0.0,0.0,0.0,0.0,0.0,0.0,0.0,0.0,0.0,0.0,0.0,0.0,0.0,0.0,0.0,0.0,0.0,0.0,0.0,0.0,0.0,0.0,0.0,0.0,0.0,0.0,0.0,0.0,0.0,0.0,0.0,0.0,0.0,0.0,0.0,0.0,0.0,0.0,0.0,0.0,0.0,0.0,0.0,0.0,0.0,0.0,0.0,0.0,0.0,0.0,0.0,0.0,0.0,0.0,0.0,0.0,0.0,0.0,0.0,0.0,0.0,0.0,0.0,0.0,0.0,0.0,0.0,0.0,0.0,0.0,0.0,0.0,0.0,0.0,0.0,0.0,0.0,0.0,0.0,0.0,0.0,0.0,0.0,0.0,-0.98,0.0,-1.3814,0.0,-1.3277,-1.1925,0.0,0.0,0.0,0.0,0.0,0.0,0.0,0.0,0.0,0.0,0.0,0.0,0.0,0.0,0.0,0.0,0.0,0.0,0.0,0.0,0.0,0.0,0.0,0.0,0.0,0.0,0.0,0.0,0.0,0.0,0.0,0.0,0.0,0.0,0.0,0.0,0.0,0.0,0.0,0.0,0.0,0.0,0.0,0.0,0.0,0.0,0.0,0.0,0.0,0.0,0.0,0.0,0.0,0.0,0.0,0.0,0.0,0.0,0.0,0.0,0.0,0.0,0.0,0.0,0.0,0.0,0.0,0.0,0.0,0.0,0.0,0.0,0.0,0.0,0.0,0.0,0.0,0.0,0.0,0.0,0.0,0.0,0.0,0.0,0.0,0.0,0.0,0.0,0.0,0.0,0.0,0.0,0.0,0.0,0.0,0.0,0.0,0.0,0.0,0.0,0.0,0.0,0.0,0.0,0.0,0.0,0.0,0.0,-0.986,-1.3585,-1.5502,-1.589,-1.4872,-1.4109,-1.2239,0.0,0.0,0.0,0.0,0.0,0.0,0.0,0.0,0.0,0.0,0.0,0.0,0.0,0.0,0.0,0.0,0.0,0.0,0.0,0.0,0.0,0.0,0.0,0.0,0.0,0.0,0.0,0.0,0.0,0.0,0.0,0.0,0.0,0.0,0.0,0.0,0.0,0.0,0.0,0.0,0.0,0.0,0.0,0.0,0.0,0.0,0.0,0.0,0.0,0.0,0.0,0.0,0.0,0.0,0.0,0.0,0.0,0.0,0.0,0.0,0.0,0.0,0.0,0.0,0.0,0.0,0.0,0.0,0.0,0.0,0.0,0.0,0.0,0.0,0.0,0.0,0.0,0.0,0.0,0.0,0.0,0.0,0.0,0.0,0.0,0.0,0.0,0.0,0.0,0.0,0.0,0.0,0.0,0.0,0.0,0.0,0.0,0.0,0.0,0.0,0.0,0.0,0.0,0.0,0.0,0.0,0.0,0.0,0.0,-1.2448,-1.3929,-1.5396,-1.6607,-1.3959,-1.2598,0.0,0.0,0.0,0.0,0.0,0.0,0.0,0.0,0.0,0.0,0.0,0.0,0.0,0.0,0.0,0.0,0.0,0.0,0.0,0.0,0.0,0.0,0.0,0.0,0.0,0.0,0.0,0.0,0.0,0.0,0.0,0.0,0.0,0.0,0.0,0.0,0.0,0.0,0.0,0.0,0.0,0.0,0.0,0.0,0.0,0.0,0.0,0.0,0.0,0.0,0.0,0.0,0.0,0.0,0.0,0.0,0.0,0.0,0.0,0.0,0.0,0.0,0.0,0.0,0.0,0.0,0.0,0.0,0.0,0.0,0.0,0.0,0.0,0.0,0.0,0.0,0.0,0.0,0.0,0.0,0.0,0.0,0.0,0.0,0.0,0.0,0.0,0.0,0.0,0.0,0.0,0.0,0.0,0.0,0.0,0.0,0.0,0.0,0.0,0.0,0.0,0.0,0.0,0.0,0.0,0.0,0.0,0.0,0.0,-1.4797,-1.5815,-1.6922,-1.8026,-1.5158,-1.3765,-1.3985,0.0,0.0,0.0,0.0,0.0,0.0,0.0,0.0,0.0,0.0,0.0,0.0,0.0,0.0,0.0,0.0,0.0,0.0,0.0,0.0,0.0,0.0,0.0,0.0,0.0,0.0,0.0,0.0,0.0,0.0,0.0,0.0,0.0,0.0,0.0,0.0,0.0,0.0,0.0,0.0,0.0,0.0,0.0,0.0,0.0,0.0,0.0,0.0,0.0,0.0,0.0,0.0,0.0,0.0,0.0,0.0,0.0,0.0,0.0,0.0,0.0,0.0,0.0,0.0,0.0,0.0,0.0,0.0,0.0,0.0,0.0,0.0,0.0,0.0,0.0,0.0,0.0,0.0,0.0,0.0,0.0,0.0,0.0,0.0,0.0,0.0,0.0,0.0,0.0,0.0,0.0,0.0,0.0,0.0,0.0,0.0,0.0,0.0,0.0,0.0,0.0,0.0,0.0,0.0,0.0,0.0,0.0,0.0,-1.969,-2.0498,-2.0258,-1.9046,-1.7563,-1.5606,0.0,0.0,0.0,0.0,0.0,0.0,0.0,0.0,0.0,0.0,0.0,0.0,0.0,0.0,0.0,0.0,0.0,0.0,0.0,0.0,0.0,0.0,0.0,0.0,0.0,0.0,0.0,0.0,0.0,0.0,0.0,0.0,0.0,0.0,0.0,0.0,0.0,0.0,0.0,0.0,0.0,0.0,0.0,0.0,0.0,0.0,0.0,0.0,0.0,0.0,0.0,0.0,0.0,0.0,0.0,0.0,0.0,0.0,0.0,0.0,0.0,0.0,0.0,0.0,0.0,0.0,0.0,0.0,0.0,0.0,0.0,0.0,0.0,0.0,0.0,0.0,0.0,0.0,0.0,0.0,0.0,0.0,0.0,0.0,0.0,0.0,0.0,0.0,0.0,0.0,0.0,0.0,0.0,0.0,0.0,0.0,0.0,0.0,0.0,0.0,0.0,0.0,0.0,0.0,0.0,0.0,0.0,0.0,0.0,-2.0378,-2.2009,-2.2682,-2.2263,-1.9645,-1.7384,0.0,0.0,0.0,0.0,0.0,0.0,0.0,0.0,0.0,0.0,0.0,0.0,0.0,0.0,0.0,0.0,0.0,0.0,0.0,0.0,0.0,0.0,0.0,0.0,0.0,0.0,0.0,0.0,0.0,0.0,0.0,0.0,0.0,0.0,0.0,0.0,0.0,0.0,0.0,0.0,0.0,0.0,0.0,0.0,0.0,0.0,0.0,0.0,0.0,0.0,0.0,0.0,0.0,0.0,0.0,0.0,0.0,0.0,0.0,0.0,0.0,0.0,0.0,0.0,0.0,0.0,0.0,0.0,0.0,0.0,0.0,0.0,0.0,0.0,0.0,0.0,0.0,0.0,0.0,0.0,0.0,0.0,0.0,0.0,0.0,0.0,0.0,0.0,0.0,0.0,0.0,0.0,0.0,0.0,0.0,0.0,0.0,0.0,0.0,0.0,0.0,0.0,0.0,0.0,0.0,0.0,0.0,0.0,-1.9221,-2.1874,-2.3834,-2.4866,-2.4866,-2.2203,-1.9615,0.0,0.0,0.0,0.0,0.0,0.0,0.0,0.0,0.0,0.0,0.0,0.0,0.0,0.0,0.0,0.0,0.0,0.0,0.0,0.0,0.0,0.0,0.0,0.0,0.0,0.0,0.0,0.0,0.0,0.0,0.0,0.0,0.0,0.0,0.0,0.0,0.0,0.0,0.0,0.0,0.0,0.0,0.0,0.0,0.0,0.0,0.0,0.0,0.0,0.0,0.0,0.0,0.0,0.0,0.0,0.0,0.0,0.0,0.0,0.0,0.0,0.0,0.0,0.0,0.0,0.0,0.0,0.0,0.0,0.0,0.0,0.0,0.0,0.0,0.0,0.0,0.0,0.0,0.0,0.0,0.0,0.0,0.0,0.0,0.0,0.0,0.0,0.0,0.0,0.0,0.0,0.0,0.0,0.0,0.0,0.0,0.0,0.0,0.0,0.0,0.0,0.0,0.0,0.0,0.0,0.0,0.0,0.0,-2.1036,-2.355,-2.5555,-2.6602,-2.6542,-2.4582,-2.1754,0.0,0.0,0.0,0.0,0.0,0.0,0.0,0.0,0.0,0.0,0.0,0.0,0.0,0.0,0.0,0.0,0.0,0.0,0.0,0.0,0.0,0.0,0.0,0.0,0.0,0.0,0.0,0.0,0.0,0.0,0.0,0.0,0.0,0.0,0.0,0.0,0.0,0.0,0.0,0.0,0.0,0.0,0.0,0.0,0.0,0.0,0.0,0.0,0.0,0.0,0.0,0.0,0.0,0.0,0.0,0.0,0.0,0.0,0.0,0.0,0.0,0.0,0.0,0.0,0.0,0.0,0.0,0.0,0.0,0.0,0.0,0.0,0.0,0.0,0.0,0.0,0.0,0.0,0.0,0.0,0.0,0.0,0.0,0.0,0.0,0.0,0.0,0.0,0.0,0.0,0.0,0.0,0.0,0.0,0.0,0.0,0.0,0.0,0.0,0.0,0.0,0.0,0.0,0.0,0.0,0.0,0.0,0.0,-2.15,-2.3565,-2.5555,-2.6602,-2.6572,-2.4222,-2.1779,0.0,0.0,0.0,0.0,0.0,0.0,0.0,0.0,0.0,0.0,0.0,0.0,0.0,0.0,0.0,0.0,0.0,0.0,0.0,0.0,0.0,0.0,0.0,0.0,0.0,0.0,0.0,0.0,0.0,0.0,0.0,0.0,0.0,0.0,0.0,0.0,0.0,0.0,0.0,0.0,0.0,0.0,0.0,0.0,0.0,0.0,0.0,0.0,-1.0588,0.0,0.0,0.0,0.0,0.0,0.0,0.0,0.0,0.0,0.0,0.0,0.0,0.0,0.0,0.0,0.0,0.0,0.0,0.0,0.0,0.0,0.0,0.0,0.0,0.0,0.0,0.0,0.0,0.0,0.0,0.0,0.0,0.0,0.0,0.0,0.0,0.0,0.0,0.0,0.0,0.0,0.0,0.0,0.0,0.0,0.0,0.0,0.0,0.0,0.0,0.0,0.0,0.0,0.0,0.0,0.0,0.0,0.0,0.0,-2.2428,-2.4073,-2.6019,-2.7199,-2.7385,-2.4972,-2.2517,0.0,0.0,0.0,0.0,0.0,0.0,0.0,0.0,0.0,0.0,0.0,0.0,0.0,0.0,0.0,0.0,0.0,0.0,0.0,0.0,0.0,0.0,0.0,0.0,0.0,0.0,0.0,0.0,0.0,0.0,0.0,0.0,0.0,0.0,0.0,0.0,0.0,0.0,0.0,0.0,0.0,0.0,0.0,0.0,0.0,0.0,0.0,0.0,0.0,0.0,0.0,0.0,0.0,0.0,0.0,0.0,0.0,0.0,0.0,0.0,0.0,0.0,0.0,0.0,0.0,0.0,0.0,0.0,0.0,0.0,0.0,0.0,0.0,0.0,0.0,0.0,0.0,0.0,0.0,0.0,0.0,0.0,0.0,0.0,0.0,0.0,0.0,0.0,0.0,0.0,0.0,0.0,0.0,0.0,0.0,0.0,0.0,0.0,0.0,0.0,0.0,0.0,0.0,0.0,0.0,0.0,0.0,-2.0535,-2.3405,-2.4882,-2.6829,-2.814,-2.8575,-2.6291,-2.3791,-2.116,0.0,0.0,0.0,0.0,0.0,0.0,0.0,0.0,0.0,0.0,0.0,0.0,0.0,0.0,0.0,0.0,0.0,0.0,0.0,0.0,0.0,0.0,0.0,0.0,0.0,0.0,0.0,0.0,0.0,0.0,0.0,0.0,0.0,0.0,0.0,0.0,0.0,0.0,-1.0402,-1.2483,0.0,0.0,0.0,0.0,0.0,0.0,0.0,0.0,-1.2605,0.0,0.0,0.0,0.0,0.0,0.0,0.0,0.0,0.0,0.0,0.0,0.0,0.0,0.0,0.0,0.0,0.0,0.0,0.0,0.0,0.0,0.0,0.0,0.0,0.0,0.0,0.0,0.0,0.0,0.0,0.0,0.0,0.0,0.0,0.0,0.0,0.0,0.0,0.0,0.0,0.0,0.0,0.0,0.0,0.0,0.0,0.0,0.0,0.0,0.0,0.0,0.0,0.0,0.0,0.0,0.0,-1.9021,-2.1418,-2.377,-2.613,-2.8088,-2.9134,-2.9194,-2.7703,-2.5568,-2.2742,0.0,0.0,0.0,0.0,0.0,0.0,0.0,0.0,0.0,0.0,0.0,0.0,0.0,0.0,0.0,0.0,0.0,0.0,0.0,0.0,0.0,0.0,0.0,0.0,0.0,0.0,0.0,0.0,0.0,0.0,0.0,0.0,0.0,0.0,0.0,0.0,0.0,0.0,0.0,-1.4751,-1.5987,0.0,0.0,0.0,0.0,0.0,0.0,0.0,0.0,-1.3119,0.0,0.0,0.0,0.0,0.0,0.0,0.0,0.0,0.0,0.0,0.0,0.0,0.0,0.0,0.0,0.0,0.0,0.0,0.0,0.0,0.0,0.0,0.0,0.0,0.0,0.0,0.0,0.0,0.0,0.0,0.0,0.0,0.0,0.0,0.0,0.0,0.0,0.0,0.0,0.0,0.0,0.0,0.0,0.0,0.0,0.0,0.0,0.0,0.0,0.0,0.0,0.0,0.0,0.0,0.0,-1.9215,-2.2366,-2.491,-2.6867,-2.8538,-2.9364,-2.9248,-2.6864,-2.482,0.0,0.0,0.0,0.0,0.0,0.0,0.0,0.0,0.0,0.0,0.0,0.0,0.0,0.0,0.0,0.0,0.0,0.0,0.0,0.0,0.0,0.0,0.0,0.0,0.0,0.0,0.0,0.0,0.0,0.0,0.0,0.0,0.0,0.0,0.0,0.0,0.0,0.0,0.0,0.0,-1.612,-1.727,-1.7304,0.0,0.0,0.0,0.0,0.0,0.0,-1.5332,-1.4679,0.0,0.0,0.0,0.0,0.0,0.0,0.0,0.0,0.0,0.0,0.0,0.0,0.0,0.0,0.0,0.0,0.0,0.0,0.0,0.0,0.0,0.0,0.0,0.0,0.0,0.0,0.0,0.0,0.0,0.0,0.0,0.0,0.0,0.0,0.0,0.0,0.0,0.0,0.0,0.0,0.0,0.0,0.0,0.0,0.0,0.0,0.0,0.0,0.0,0.0,0.0,0.0,0.0,0.0,0.0,-1.8924,-2.2889,-2.5792,-2.7453,-2.899,-2.9636,-2.9327,-2.6368,-2.4207,0.0,0.0,0.0,0.0,0.0,0.0,0.0,0.0,0.0,0.0,0.0,0.0,0.0,0.0,0.0,0.0,0.0,0.0,0.0,0.0,0.0,0.0,0.0,0.0,0.0,0.0,0.0,0.0,0.0,0.0,0.0,0.0,0.0,0.0,0.0,0.0,0.0,0.0,0.0,0.0,0.0,-1.8858,-1.8977,-1.8637,0.0,0.0,0.0,0.0,-1.7881,-1.7417,0.0,0.0,0.0,0.0,0.0,0.0,0.0,0.0,0.0,0.0,0.0,0.0,0.0,0.0,0.0,0.0,0.0,0.0,0.0,0.0,0.0,0.0,0.0,0.0,0.0,0.0,0.0,0.0,0.0,0.0,0.0,0.0,0.0,0.0,0.0,0.0,0.0,0.0,0.0,0.0,0.0,0.0,0.0,0.0,0.0,0.0,0.0,0.0,0.0,0.0,0.0,0.0,0.0,0.0,0.0,0.0,-1.8828,-2.2406,-2.5473,-2.802,-2.9972,-3.0679,-2.9993,-2.8289,-2.5798,0.0,0.0,0.0,0.0,0.0,0.0,0.0,0.0,0.0,0.0,0.0,0.0,0.0,0.0,0.0,0.0,0.0,0.0,0.0,0.0,0.0,0.0,0.0,0.0,0.0,0.0,0.0,0.0,0.0,0.0,0.0,0.0,0.0,0.0,0.0,0.0,0.0,0.0,0.0,0.0,0.0,-2.1458,-1.9599,-1.9836,-2.0097,0.0,0.0,-1.9836,-2.0673,-2.0209,0.0,0.0,0.0,0.0,0.0,0.0,0.0,0.0,0.0,0.0,0.0,0.0,0.0,0.0,0.0,0.0,0.0,0.0,0.0,0.0,0.0,0.0,0.0,0.0,0.0,0.0,0.0,0.0,0.0,0.0,0.0,0.0,0.0,0.0,0.0,0.0,0.0,0.0,0.0,0.0,0.0,0.0,0.0,0.0,0.0,0.0,0.0,0.0,0.0,0.0,0.0,0.0,0.0,0.0,0.0,-1.5929,-1.9518,-2.3539,-2.6589,-2.8615,-3.0335,-3.0632,-2.9482,-2.7165,-2.4594,0.0,0.0,0.0,0.0,0.0,0.0,0.0,0.0,0.0,0.0,0.0,0.0,0.0,0.0,0.0,0.0,0.0,0.0,0.0,0.0,0.0,0.0,0.0,0.0,0.0,0.0,0.0,0.0,0.0,0.0,0.0,0.0,0.0,0.0,0.0,0.0,0.0,0.0,0.0,0.0,0.0,0.0,-2.1264,-2.1342,0.0,0.0,0.0,-2.1396,-2.1123,0.0,0.0,0.0,0.0,0.0,0.0,0.0,0.0,0.0,0.0,0.0,0.0,0.0,0.0,0.0,0.0,0.0,0.0,0.0,0.0,0.0,0.0,0.0,0.0,0.0,0.0,0.0,0.0,0.0,0.0,0.0,0.0,0.0,0.0,0.0,0.0,0.0,0.0,0.0,0.0,0.0,0.0,0.0,0.0,0.0,0.0,0.0,0.0,0.0,0.0,0.0,0.0,0.0,0.0,0.0,0.0,0.0,-2.0289,-2.4526,-2.7435,-2.8958,-3.0429,-3.048,-2.9028,-2.642,0.0,0.0,0.0,0.0,0.0,0.0,0.0,0.0,0.0,0.0,0.0,0.0,0.0,0.0,0.0,0.0,0.0,0.0,0.0,0.0,0.0,0.0,0.0,0.0,0.0,0.0,0.0,-0.9111,0.0,0.0,0.0,0.0,0.0,0.0,0.0,0.0,0.0,0.0,0.0,0.0,0.0,0.0,-2.1551,-2.2666,-2.2832,-2.2726,0.0,0.0,-2.3175,-2.2186,-2.2972,-2.2754,0.0,0.0,0.0,0.0,0.0,0.0,0.0,0.0,0.0,0.0,0.0,0.0,0.0,0.0,0.0,0.0,0.0,0.0,0.0,0.0,0.0,0.0,0.0,0.0,0.0,0.0,0.0,0.0,0.0,0.0,0.0,0.0,0.0,0.0,0.0,0.0,0.0,0.0,0.0,0.0,0.0,0.0,0.0,0.0,0.0,0.0,0.0,0.0,0.0,0.0,0.0,0.0,0.0,0.0,0.0,-2.1102,-2.4797,-2.7452,-2.8994,-3.0429,-3.0497,-2.9045,-2.7402,-2.4864,0.0,0.0,0.0,0.0,0.0,0.0,0.0,0.0,0.0,0.0,0.0,0.0,0.0,0.0,0.0,0.0,0.0,0.0,0.0,0.0,0.0,0.0,0.0,0.0,0.0,0.0,0.0,0.0,0.0,0.0,0.0,0.0,0.0,0.0,0.0,0.0,0.0,0.0,0.0,0.0,0.0,-2.297,-2.3165,-2.4104,-2.4995,0.0,0.0,-2.5628,-2.5173,-2.5177,-2.4133,-2.0943,0.0,0.0,0.0,0.0,0.0,0.0,0.0,0.0,0.0,0.0,0.0,0.0,0.0,0.0,0.0,0.0,0.0,0.0,0.0,0.0,0.0,0.0,0.0,0.0,0.0,0.0,0.0,0.0,0.0,0.0,0.0,0.0,0.0,0.0,0.0,0.0,0.0,0.0,0.0,0.0,0.0,0.0,0.0,0.0,0.0,0.0,0.0,0.0,0.0,0.0,0.0,0.0,0.0,-1.8115,-2.1854,-2.5507,-2.8129,-2.9634,-3.0666,-3.048,-2.9008,-2.7943,-2.5659,0.0,0.0,0.0,0.0,0.0,0.0,0.0,0.0,0.0,0.0,0.0,0.0,0.0,0.0,0.0,0.0,0.0,0.0,0.0,0.0,0.0,0.0,0.0,0.0,0.0,0.0,0.0,0.0,-1.0944,-1.1214,-1.0741,0.0,0.0,0.0,0.0,0.0,0.0,0.0,0.0,0.0,0.0,-2.3333,-2.4474,-2.5204,0.0,0.0,-2.6314,-2.6513,-2.5932,-2.5782,-2.5081,-2.3088,-2.2391,0.0,0.0,0.0,0.0,0.0,0.0,0.0,0.0,0.0,0.0,0.0,0.0,0.0,0.0,0.0,0.0,0.0,0.0,0.0,0.0,0.0,0.0,0.0,0.0,0.0,0.0,0.0,0.0,0.0,0.0,0.0,0.0,0.0,0.0,0.0,0.0,0.0,0.0,0.0,0.0,0.0,0.0,0.0,0.0,0.0,0.0,0.0,0.0,0.0,0.0,0.0,0.0,-1.886,-2.2598,-2.6065,-2.8516,-3.0074,-3.0818,-3.0598,-2.9347,-2.8349,-2.6285,0.0,0.0,0.0,0.0,0.0,0.0,0.0,0.0,0.0,0.0,0.0,0.0,0.0,0.0,0.0,0.0,0.0,0.0,0.0,0.0,0.0,0.0,0.0,0.0,0.0,0.0,0.0,0.0,-1.1647,-1.1678,-1.0859,0.0,0.0,0.0,0.0,0.0,0.0,0.0,0.0,0.0,0.0,-2.3998,-2.5606,-2.6153,-2.6417,-2.6425,-2.7069,-2.7254,-2.6377,-2.6631,-2.6277,-2.4499,0.0,0.0,0.0,0.0,0.0,0.0,0.0,0.0,0.0,0.0,0.0,0.0,0.0,0.0,0.0,0.0,0.0,0.0,0.0,0.0,0.0,0.0,0.0,0.0,0.0,0.0,0.0,-1.302,0.0,0.0,-1.0752,0.0,0.0,0.0,0.0,0.0,0.0,0.0,0.0,0.0,0.0,0.0,0.0,0.0,0.0,0.0,0.0,0.0,0.0,0.0,0.0,0.0,0.0,-1.9655,-2.3342,-2.6353,-2.8533,-3.0091,-3.0835,-3.0835,-3.0057,-2.8619,-2.6759,-2.4455,0.0,0.0,0.0,0.0,0.0,0.0,0.0,0.0,0.0,0.0,0.0,0.0,0.0,0.0,0.0,0.0,0.0,0.0,0.0,0.0,0.0,0.0,0.0,0.0,0.0,0.0,-1.1062,-1.1254,-1.1041,0.0,0.0,0.0,0.0,0.0,0.0,0.0,0.0,0.0,0.0,-2.3597,-2.5305,-2.6531,-2.7023,-2.7531,-2.8262,-2.8384,-2.7997,-2.6878,-2.7912,-2.7857,0.0,0.0,0.0,0.0,0.0,0.0,0.0,0.0,0.0,0.0,0.0,0.0,0.0,0.0,0.0,0.0,0.0,0.0,0.0,0.0,0.0,0.0,0.0,0.0,0.0,0.0,0.0,-1.9411,-1.8451,0.0,0.0,0.0,0.0,0.0,0.0,0.0,0.0,0.0,0.0,0.0,-2.5642,-2.6911,0.0,0.0,0.0,0.0,0.0,0.0,0.0,0.0,0.0,0.0,0.0,0.0,-2.11,-2.478,-2.7317,-2.9313,-3.0784,-3.1072,-3.0852,-3.0125,-2.9127,-2.6843,-2.3156,0.0,0.0,0.0,0.0,0.0,0.0,0.0,0.0,0.0,0.0,0.0,0.0,0.0,0.0,0.0,0.0,0.0,0.0,0.0,0.0,0.0,0.0,0.0,0.0,0.0,-1.1045,0.0,0.0,0.0,0.0,0.0,0.0,0.0,0.0,0.0,0.0,0.0,-2.2571,-2.3744,-2.5167,-2.6633,-2.8088,-2.8394,-2.8934,0.0,0.0,0.0,0.0,0.0,0.0,0.0,0.0,0.0,0.0,0.0,0.0,0.0,0.0,-2.6722,-2.2208,-2.0904,-2.0556,-2.0572,0.0,0.0,0.0,0.0,0.0,0.0,0.0,0.0,0.0,0.0,0.0,0.0,0.0,0.0,-2.4052,0.0,-2.2564,0.0,0.0,0.0,0.0,0.0,0.0,0.0,0.0,-2.7571,-2.9211,-3.0192,-3.1427,-3.1224,0.0,-2.9025,-2.6031,0.0,0.0,0.0,0.0,0.0,0.0,0.0,0.0,-2.2784,-2.593,-2.8213,-2.9973,-3.1123,-3.119,-3.097,-3.048,-2.9245,-2.708,-2.3934,-2.2124,-2.0399,0.0,0.0,0.0,0.0,0.0,0.0,0.0,0.0,0.0,0.0,0.0,0.0,0.0,0.0,0.0,0.0,0.0,0.0,0.0,0.0,0.0,0.0,0.0,-1.2009,0.0,0.0,0.0,0.0,0.0,0.0,0.0,0.0,0.0,-2.0691,-2.273,-2.4717,-2.6148,-2.6995,-2.8032,-2.9411,0.0,0.0,0.0,0.0,0.0,0.0,0.0,-2.9934,-3.0173,-2.9365,-2.8851,-2.9329,-3.0081,-3.0522,-3.0265,0.0,0.0,-2.5897,-2.4466,-2.3969,-2.4245,-2.4061,-2.3914,-2.419,-2.4244,-2.443,0.0,0.0,0.0,0.0,0.0,0.0,0.0,0.0,-2.8586,-2.8366,0.0,-2.6928,0.0,0.0,0.0,0.0,0.0,-2.5507,0.0,0.0,-3.3051,-3.4523,-3.4573,-3.5267,-3.4928,-3.3643,-3.415,-3.2577,-2.889,-2.3308,0.0,0.0,0.0,0.0,0.0,0.0,-2.4577,-2.6776,-2.8958,-3.0446,-3.1157,-3.119,-3.1173,-3.1072,-2.9008,-2.7503,-2.664,-2.456,-2.2429,-2.0204,-1.8684,0.0,0.0,0.0,0.0,0.0,0.0,0.0,0.0,0.0,0.0,0.0,0.0,0.0,0.0,0.0,0.0,0.0,0.0,0.0,0.0,-1.2551,0.0,0.0,0.0,0.0,0.0,0.0,0.0,0.0,0.0,0.0,-2.3151,-2.5446,-2.772,-2.8844,0.0,0.0,0.0,0.0,-3.0462,-3.097,-3.1974,-3.221,-3.0705,-3.2302,-3.2981,-3.0815,0.0,0.0,-3.0632,-3.0999,-3.1256,-3.0485,-3.1054,-3.1501,-3.1347,-2.9329,-2.8099,-2.8718,-2.7163,-2.5991,-2.6557,-2.6851,-2.6814,-3.3964,0.0,0.0,0.0,0.0,-3.1055,-3.2104,-3.388,-3.3744,-3.3169,-3.2222,-3.1698,0.0,0.0,0.0,0.0,0.0,0.0,-3.1326,-3.2544,-3.4421,-3.5588,-3.6146,-3.6907,-3.7026,-3.662,-3.6282,-3.5013,-3.2882,-3.0666,-2.6674,-2.116,0.0,0.0,0.0,0.0,-2.6607,-2.8281,-2.9516,-3.0463,-3.1173,-3.119,-3.0954,-3.0429,-2.9279,-2.8044,-2.6725,-2.5592,-2.4188,-2.2513,-2.1025,0.0,0.0,0.0,0.0,0.0,0.0,0.0,0.0,0.0,0.0,0.0,0.0,0.0,0.0,0.0,0.0,0.0,0.0,0.0,-1.2551,-1.4091,-1.5291,0.0,0.0,0.0,0.0,0.0,0.0,0.0,0.0,0.0,-2.8591,-2.9034,-2.9389,0.0,0.0,-3.1368,-3.144,-3.2177,-3.3054,-3.4011,-3.4779,0.0,-3.4633,-3.4137,-3.3972,-3.4468,-3.4431,-3.4147,-3.3688,-3.3366,-3.3018,-3.2797,-3.2963,-3.3109,-3.2999,-3.1641,-3.0522,-3.0595,-3.0118,-2.9751,-2.9953,-3.0026,-2.9971,-3.8836,-3.5487,-3.4015,-3.41,-3.5131,-3.4709,-3.5554,-3.7212,-3.7026,-3.6705,-3.6248,-3.5825,-3.4387,-3.2188,-3.0412,0.0,0.0,0.0,-3.4336,-3.5673,-3.6535,-3.7364,-3.8091,-3.8548,-3.8616,-3.8328,-3.7872,-3.7043,-3.5825,-3.4793,-3.1732,-2.686,0.0,0.0,-2.549,-2.7452,-2.9076,-3.0264,-3.0734,-3.119,-3.1613,-3.1343,-3.0987,-3.0531,-2.9533,-2.8552,-2.7621,-2.6573,-2.549,-2.4323,-2.2852,-2.1042,0.0,0.0,0.0,0.0,0.0,0.0,0.0,0.0,0.0,0.0,0.0,-1.2026,0.0,0.0,0.0,0.0,-1.2314,-1.3565,-1.5798,-1.7084,0.0,0.0,0.0,0.0,0.0,0.0,0.0,-2.7757,-2.9228,-3.0548,-3.1884,-3.1952,-3.193,-3.2132,-3.2502,-3.2849,-3.3135,0.0,-3.42,-3.5111,-3.5933,-3.6437,-3.6311,-3.5716,-3.5532,-3.6156,-3.5881,-3.555,-3.5514,-3.511,-3.4798,-3.478,-3.4798,-3.4669,-3.4357,-3.3458,-3.2577,-3.199,-3.1604,-3.1403,-3.1403,-3.1403,-3.1403,-4.2472,-4.2168,-3.8734,-3.7686,-3.8244,-3.8261,-3.821,-3.8227,-3.8886,-3.914,-3.9073,-3.9073,-3.7905,-3.5774,-3.3795,0.0,-3.4895,-3.5639,-3.7094,-3.9073,-3.9073,-3.9428,-4.0054,-4.007,-3.9732,-3.9073,-3.9089,-3.8717,-3.7939,-3.6569,-3.5182,-3.3744,-3.1681,-3.0497,-3.0243,-3.0954,-3.1698,-3.2381,-3.2398,-3.2341,-3.2273,-3.1562,-3.1157,-3.1089,-2.9651,-2.8892,-2.8774,-2.7317,-2.6201,-2.5524,-2.4154,-2.2429,-2.0255,0.0,0.0,0.0,0.0,0.0,0.0,0.0,0.0,0.0,0.0,0.0,0.0,0.0,0.0,0.0,-1.6238,0.0,-1.9985,-2.1008,0.0,0.0,0.0,-2.4458,-2.6065,-2.796,-2.9482,-3.0345,0.0,0.0,-3.3677,-3.4269,-3.4874,-3.5405,-3.4435,-3.4031,-3.5065,-3.4718,-3.4495,-3.5048,-3.6039,-3.6725,-3.6703,-3.7074,-3.7257,-3.6743,-3.6431,-3.6376,-3.6376,-3.6248,-3.6266,-3.6193,-3.6266,-3.6028,-3.521,-3.5027,-3.4605,-3.3109,-3.2192,-3.1641,-3.1696,-3.1715,-3.1751,-4.4028,-4.391,-4.2439,-4.1627,-4.1255,-4.1255,-4.095,-4.0443,-4.0595,-4.0358,-3.9834,-3.9817,-3.9208,-3.8193,-3.821,-3.8108,-3.7956,-3.8684,-3.9309,-3.98,-3.9817,-3.9918,-4.007,-4.0087,-4.0003,-3.9817,-3.9817,-3.9445,-3.8734,-3.8379,-3.7719,-3.6823,-3.574,-3.3778,-3.1089,-3.2222,-3.2949,-3.3136,-3.3152,-3.2865,-3.233,-3.1562,-3.0937,-3.0378,-2.8907,-2.7824,-2.7232,-2.5812,-2.4915,-2.476,-2.3883,-2.2902,-2.1775,-1.8927,0.0,0.0,0.0,0.0,0.0,0.0,0.0,0.0,0.0,-1.6306,-1.3379,0.0,-1.7862,0.0,-1.9739,-2.1194,-2.1718,-2.3444,0.0,0.0,-2.7554,-2.8687,-3.1241,-3.1021,-3.1393,-3.3237,-3.4421,-3.5318,-3.591,-3.6129,-3.6406,-3.6886,-3.6222,-3.5452,-3.4857,-3.5757,-3.6491,-3.6626,-3.7166,-3.7721,-3.8028,-3.8285,-3.8322,-3.8175,-3.7606,-3.7232,-3.7232,-3.6688,-3.6285,-3.6285,-3.6285,-3.6193,-3.6028,-3.5991,-3.5624,-3.4651,-3.3788,-3.3238,-3.3238,-3.322,-3.3201,-4.5077,-4.501,-4.4248,-4.369,-4.325,-4.2591,-4.2066,-4.1694,-4.1677,-4.1271,-4.0561,-4.0223,-3.9851,-3.9512,-3.9884,-3.9851,-3.9529,-3.9901,-4.0087,-4.0087,-4.0087,-4.0087,-4.0087,-4.0087,-4.0087,-4.0087,-4.0087,-3.9868,-3.9462,-3.9157,-3.8785,-3.8362,-3.7652,-3.6079,-3.3812,-3.415,-3.4404,-3.4387,-3.4049,-3.3355,-3.2364,-3.1884,-3.1173,-3.0125,-2.8975,-2.7977,-2.7215,-2.5778,-2.4983,-2.4949,-2.3968,-2.3359,-2.3241,-2.0754,-1.9113,0.0,0.0,0.0,0.0,0.0,0.0,0.0,0.0,0.0,0.0,0.0,-2.0926,-2.2134,-2.376,-2.5246,-2.647,-2.776,-2.9211,-3.0784,-3.1241,-3.2222,-3.4184,-3.3964,-3.4286,-3.5825,-3.6366,-3.6806,-3.7229,-3.728,-3.7461,-3.794,-3.7681,-3.6963,-3.5994,-3.6422,-3.6981,-3.7451,-3.772,-3.8099,-3.8627,-3.8707,-3.8707,-3.867,-3.834,-3.8028,-3.801,-3.7679,-3.7367,-3.7367,-3.7367,-3.7239,-3.6909,-3.6835,-3.656,-3.5789,-3.5238,-3.4669,-3.3972,-3.3807,-3.3807,-4.5788,-4.5652,-4.501,-4.4671,-4.4485,-4.3149,-4.2523,-4.2439,-4.2439,-4.1982,-4.117,-4.051,-4.0222,-4.0087,-4.0087,-4.0087,-4.0087,-4.0087,-4.0087,-4.0087,-4.0087,-4.0087,-4.0087,-4.0087,-4.0087,-4.0087,-4.0087,-4.0087,-4.0104,-3.9445,-3.914,-3.9089,-3.8413,-3.7669,-3.6924,-3.6163,-3.5723,-3.556,-3.4878,-3.3863,-3.2594,-3.2374,-3.1579,-3.0159,-2.9296,-2.8366,-2.7402,-2.6251,-2.5558,-2.5439,-2.4323,-2.3968,-2.4574,-2.266,-2.1431,0.0,-2.0078,0.0,0.0,0.0,0.0,0.0,0.0,0.0,0.0,-2.2784,-2.4428,-2.676,-2.7911,-2.9515,-3.1982,-3.2513,-3.3017,-3.3778,-3.4489,-3.5199,-3.5842,-3.6518,-3.7178,-3.7838,-3.799,-3.8058,-3.8041,-3.8058,-3.8227,-3.8584,-3.8456,-3.8096,-3.7519,-3.6946,-3.6916,-3.7757,-3.7879,-3.8099,-3.8578,-3.8707,-3.8707,-3.8707,-3.867,-3.8707,-3.8652,-3.8652,-3.8652,-3.8652,-3.8579,-3.8395,-3.7753,-3.7643,-3.7367,-3.6615,-3.6395,-3.5917,-3.4633,-3.4119,-3.3954,-4.6244,-4.5703,-4.5568,-4.5145,-4.4553,-4.4265,-4.3792,-4.3217,-4.32,-4.2455,-4.1221,-4.1052,-4.0646,-4.0104,-4.0087,-4.0087,-4.0087,-4.0087,-4.0087,-4.0087,-4.0087,-4.0087,-4.0087,-4.0087,-4.0087,-4.0087,-4.0087,-4.0087,-4.0087,-3.9935,-3.9868,-3.9851,-3.914,-3.8413,-3.7702,0.0,0.0,0.0,-3.4878,-3.4353,-3.4049,-3.2899,-3.1596,-3.0142,-2.8772,0.0,-2.5253,-2.5423,-2.5321,-2.4746,-2.5,0.0,0.0,0.0,0.0,0.0,0.0,0.0,0.0,0.0,0.0,0.0,-2.637,-2.5761,-2.4949,-2.7672,-2.9653,-2.997,-3.1418,-3.2736,-3.3679,-3.4506,-3.5284,-3.6062,-3.6806,-3.733,-3.7483,-3.7618,-3.777,-3.7889,-3.8413,-3.8785,-3.8802,-3.8802,-3.8817,-3.8959,-3.8435,-3.8157,-3.833,-3.7741,-3.7376,-3.7539,-3.7806,-3.8101,-3.8627,-3.8658,-3.8658,-3.8707,-3.8707,-3.8707,-3.8707,-3.8707,-3.8707,-3.8707,-3.8707,-3.8689,-3.8487,-3.8469,-3.8175,-3.7422,-3.7257,-3.6993,-3.6028,-3.5275,-3.477,-4.7124,-4.6735,-4.6007,-4.5483,0.0,-4.4739,-4.435,-4.3978,-4.3995,-4.3352,-4.2252,-4.1525,-4.0984,-4.0612,-4.0257,-4.0087,-4.0087,-4.0087,-4.0087,-4.0087,-4.0087,-4.0087,-4.0087,-4.0087,-4.0087,-4.0087,-4.0087,-4.0087,-4.0087,-4.0087,-4.0087,-4.0087,-3.9698,-3.9157,-3.843,-3.7347,-3.64,-3.5622,-3.525,-3.4878,-3.4489,-3.3761,-3.2493,-3.0717,-2.9905,0.0,0.0,0.0,0.0,0.0,0.0,0.0,0.0,0.0,0.0,-2.5592,-2.5609,-2.5609,-2.5642,-2.664,-2.7909,-2.9364,-3.0497,-3.0328,-2.8518,-3.0446,-3.2088,-3.2951,-3.3926,-3.484,-3.5745,-3.6403,-3.6891,-3.7313,-3.8007,-3.8447,-3.8481,-3.8768,-3.8971,-3.9005,-3.9292,-3.9529,-3.9529,-3.9529,-3.9644,-3.9836,-3.9387,-3.9163,-3.9537,-3.8762,-3.8018,-3.793,-3.8001,-3.8133,-3.8274,-3.83,-3.8433,-3.8627,-3.8707,-3.8707,-3.8707,-3.8707,-3.8707,-3.8707,-3.8707,-3.8707,-3.8707,-3.8707,-3.856,-3.8212,-3.8083,-3.7991,-3.7496,-3.6523,-3.5661,-4.8037,-4.7817,-4.6599,-4.594,-4.5652,-4.5043,-4.4705,-4.457,0.0,0.0,0.0,-4.2134,-4.1457,-4.117,-4.0561,-4.0206,-4.0087,-4.0087,-4.0087,-4.0087,-4.0087,-4.0087,-4.0087,-4.0087,-4.0087,-4.0087,-4.0087,-4.0087,-4.0087,-4.0087,-4.0087,-4.0087,-4.0087,-3.9715,-3.8937,-3.7516,-3.6468,-3.5859,-3.569,-3.5318,-3.4709,-3.4556,-3.3558,-3.163,-3.1326,-3.0497,-2.9042,-2.8484,-2.8127,-2.8027,-2.7554,-2.7571,-2.8127,-2.806,-2.8315,-2.8924,-2.9245,-2.9364,-2.9381,-3.0209,-3.1004,-3.1732,-3.3575,-3.3863,-3.1918,-3.2442,-3.3656,-3.5509,-3.577,-3.6355,-3.775,-3.7979,-3.8159,-3.8278,-3.8836,-3.9191,-3.9225,-3.9698,-4.0003,-4.0087,-4.002,-4.007,-4.0054,-4.0037,-4.0237,-4.0559,-4.0234,-4.0254,-4.05,-3.9497,-3.8572,-3.838,-3.8332,-3.827,-3.8061,-3.8111,-3.821,-3.8451,-3.8627,-3.8707,-3.8707,-3.8707,-3.8707,-3.8707,-3.8707,-3.8707,-3.8707,-3.8707,-3.8707,-3.8707,-3.8707,-3.8707,-3.8597,-3.7661,-3.6725,-4.8494,-4.7885,-4.7699,-4.6887,-4.5703,-4.5602,-4.5179,-4.4587,-4.457,-4.4147,-4.3403,-4.32,-4.2388,-4.1204,-4.1102,-4.0696,-4.0087,-4.0087,-4.0087,-4.0087,-4.0087,-4.0087,-4.0087,-4.0087,-4.0087,-4.0087,-4.0087,-4.0087,-4.0087,-4.0087,-4.0087,-4.0087,-4.0087,-3.9715,-3.892,-3.7516,-3.6721,-3.662,-3.596,-3.5571,-3.5453,-3.4827,-3.4049,-3.3119,-3.1867,-3.0497,-2.9096,-2.9516,-2.9482,-2.8873,-2.933,-2.9685,-2.9753,-2.9194,-2.8909,-2.9079,-3.0176,-3.0886,-3.092,-3.2171,-3.3254,-3.3998,-3.4912,-3.5047,-3.4167,-3.4726,-3.5708,-3.7016,-3.6819,-3.7376,-3.9094,-3.9037,-3.9073,-3.9631,-3.9834,-3.9918,-3.9884,-3.9986,-4.0087,-4.0087,-4.0087,-4.0087,-4.0087,-4.0087,-4.0121,-4.0204,-4.0154,-4.0104,-4.0068,-3.9491,-3.8897,-3.8632,-3.8582,-3.8447,-3.8398,-3.8617,-3.8616,-3.807,-3.8469,-3.875,-3.8627,-3.8658,-3.8707,-3.8707,-3.8707,-3.8707,-3.8707,-3.8707,-3.8707,-3.8707,-3.8707,-3.8707,-3.8707,-3.8395,-3.8046,-4.8815,-4.8477,-4.8088,-4.7293,-4.6244,-4.5432,-4.4908,-4.457,-4.457,-4.4401,-4.4012,-4.3606,-4.3047,-4.2354,-4.1559,-4.1018,-4.0679,-4.0257,-4.0087,-4.0087,-4.0087,-4.0087,-4.0087,-4.0087,-4.0087,-4.0087,-4.0087,-4.0087,-4.0087,-4.0087,-4.0087,-4.0087,-4.0087,-3.9715,-3.8988,-3.8328,-3.7584,-3.6789,-3.6011,-3.5639,-3.5622,-3.5284,-3.4742,-3.4015,-3.3305,-3.2493,-3.1427,-3.1715,-3.1732,-3.1393,-3.1715,-3.1884,-3.1884,-3.1562,-3.1376,-3.1393,-3.2019,-3.2391,-3.2391,-3.3389,-3.432,-3.503,-3.5419,-3.5487,-3.5148,-3.5808,-3.652,-3.7086,-3.7589,-3.8323,-3.9255,-3.9457,-3.9715,-4.0037,-4.0087,-4.0087,-4.0087,-4.0087,-4.0087,-4.0087,-4.0087,-4.0087,-4.0087,-4.0087,-4.0087,-4.0087,-4.0087,-4.0087,-4.0087,-3.985,-3.9391,-3.8965,-3.8824,-3.8874,-3.8919,-3.9118,-3.9027,-3.8616,-3.9021,-3.9004,-3.851,-3.8465,-3.8676,-3.8707,-3.8707,-3.8707,-3.8707,-3.8707,-3.8707,-3.8707,-3.8707,-3.8707,-3.8707,-3.8707,-3.8414,-4.9018,-4.8951,-4.8392,-4.7631,-4.6684,-4.5399,-4.4739,-4.457,-4.457,-4.457,-4.4485,-4.3927,-4.3606,-4.3284,-4.2033,-4.1373,-4.1119,-4.0426,-4.0087,-4.0087,-4.0087,-4.0087,-4.0087,-4.0087,-4.0087,-4.0087,-4.0087,-4.0087,-4.0087,-4.0087,-4.0087,-4.0087,-4.0087,-3.98,-3.9242,-3.9073,-3.843,-3.7297,-3.6349,-3.5791,-3.5639,-3.5639,-3.5351,-3.4793,-3.4573,-3.4218,-3.3677,-3.3508,-3.3389,-3.3389,-3.3389,-3.3389,-3.3389,-3.3389,-3.3389,-3.3406,-3.3558,-3.3728,-3.3931,-3.4421,-3.4996,-3.5571,-3.5639,-3.5707,-3.591,-3.6586,-3.7026,-3.7178,-3.821,-3.9022,-3.9325,-3.9765,-4.0087,-4.0087,-4.0087,-4.0087,-4.0087,-4.0087,-4.0087,-4.0087,-4.0087,-4.0087,-4.0087,-4.0087,-4.0087,-4.0087,-4.0087,-4.0087,-4.0087,-4.0087,-3.9817,-3.9445,-3.9225,-3.9225,-3.9433,-3.9635,-3.9562,-3.9283,-3.9556,-3.9378,-3.8769,-3.8647,-3.8676,-3.8707,-3.8707,-3.8707,-3.8707,-3.8707,-3.8707,-3.8707,-3.8707,-3.8707,-3.8707,-3.8707,-3.8542,-4.9018,-4.9001,-4.89,-4.8088,-4.6752,-4.5923,-4.5213,-4.4621,-4.457,-4.457,-4.4553,-4.4485,-4.4079,-4.3352,-4.2557,-4.1863,-4.1204,-4.0426,-4.0087,-4.0087,-4.0087,-4.0087,-4.0087,-4.0087,-4.0087,-4.0087,-4.0087,-4.0087,-4.0087,-4.0087,-4.0087,-4.0087,-4.0087,-4.0037,-3.9901,-3.9343,-3.892,-3.8768,-3.7398,-3.6332,-3.5673,-3.5639,-3.5588,-3.5537,-3.4844,-3.4472,-3.437,-3.3761,-3.3406,-3.3389,-3.344,-3.3423,-3.3423,-3.3423,-3.3423,-3.3457,-3.4032,-3.4675,-3.5318,-3.547,-3.5537,-3.5605,-3.5656,-3.5943,-3.6586,-3.7364,-3.7804,-3.7939,-3.8531,-3.9292,-3.9884,-4.0037,-4.0087,-4.0087,-4.0087,-4.0087,-4.0087,-4.0087,-4.0087,-4.0087,-4.0087,-4.0087,-4.0087,-4.0087,-4.0087,-4.0087,-4.0087,-4.0087,-4.0087,-4.007,-4.007,-3.9969,-3.9952,-3.973,-3.9457,-3.9948,-4.0076,-3.9669,-3.9714,-3.9743,-3.9483,-3.9022,-3.8707,-3.8707,-3.8707,-3.8707,-3.8707,-3.8707,-3.8707,-3.8707,-3.8707,-3.8707,-3.8707,-3.8707,-3.8597,-4.9018,-4.9018,-4.9018,-4.8156,-4.6786,-4.6007,-4.528,-4.4587,-4.457,-4.457,-4.457,-4.457,-4.4401,-4.4045,-4.3318,-4.2557,-4.1813,-4.1068,-4.0493,-4.0104,-4.0087,-4.0087,-4.0087,-4.0087,-4.0087,-4.0087,-4.0087,-4.0087,-4.0087,-4.0087,-4.0087,-4.0087,-4.0087,-4.0087,-4.0104,-3.9783,-3.9428,-3.8988,-3.7973,-3.706,-3.6349,-3.5842,-3.5639,-3.5605,-3.5318,-3.5165,-3.5131,-3.4861,-3.4709,-3.4709,-3.4709,-3.4726,-3.4726,-3.4726,-3.4726,-3.4726,-3.4979,-3.5284,-3.5605,-3.5639,-3.5639,-3.5639,-3.6045,-3.6468,-3.6789,-3.7855,-3.8548,-3.8633,-3.9208,-3.9783,-4.0037,-4.0087,-4.0087,-4.0087,-4.0087,-4.0087,-4.0087,-4.0087,-4.0087,-4.0087,-4.0087,-4.0087,-4.0087,-4.0087,-4.0087,-4.0087,-4.0087,-4.0087,-4.0087,-4.0087,-4.0087,-4.0087,-4.0087,-4.0135,-4.0069,-4.0424,-4.0534,-4.04,-4.0522,-4.0634,-3.9647,-3.9585,-3.9294,-3.8817,-3.8726,-3.8707,-3.8707,-3.8707,-3.8707,-3.8707,-3.8707,-3.8707,-3.8707,-3.8707,-3.8707,-4.9018,-4.9018,-4.9018,-4.8156,-4.6769,-4.6227,-4.5449,-4.4637,-4.457,-4.457,-4.457,-4.457,-4.457,-4.4468,-4.3758,-4.3014,-4.2252,-4.1542,-4.0798,-4.0138,-4.0087,-4.0087,-4.0087,-4.0087,-4.0087,-4.0087,-4.0087,-4.0087,-4.0087,-4.0087,-4.0087,-4.0087,-4.0087,-4.0087,-4.0087,-4.0087,-3.9834,-3.9292,-3.8565,-3.7838,-3.711,-3.6332,-3.5842,-3.5656,-3.5639,-3.5639,-3.5639,-3.5639,-3.5639,-3.5622,-3.5639,-3.5639,-3.5639,-3.5639,-3.5639,-3.5639,-3.5639,-3.5639,-3.5639,-3.5639,-3.5723,-3.5943,-3.6468,-3.6958,-3.7466,-3.8379,-3.9039,-3.9326,-3.9783,-4.0054,-4.0087,-4.0087,-4.0087,-4.0087,-4.0087,-4.0087,-4.0087,-4.0087,-4.0087,-4.0087,-4.0087,-4.0087,-4.0087,-4.0087,-4.0087,-4.0087,-4.0087,-4.0087,-4.0087,-4.0087,-4.0087,-4.0087,-4.0087,-4.0237,-4.0607,-4.0804,-4.0819,-4.0866,-4.1056,-4.0944,-3.9842,-4.0024,-3.9863,-3.9276,-3.8964,-3.8726,-3.8707,-3.8707,-3.8707,-3.8707,-3.8707,-3.8707,-3.8707,-3.8707,-3.8707,-4.9018,-4.9018,-4.9018,-4.8156,-4.6786,-4.6718,-4.5906,-4.457,-4.457,-4.457,-4.457,-4.457,-4.457,-4.4519,-4.3809,-4.3014,-4.2252,-4.1593,-4.0849,-4.0121,-4.0087,-4.0087,-4.0087,-4.0087,-4.0087,-4.0087,-4.0087,-4.0087,-4.0087,-4.0087,-4.0087,-4.0087,-4.0087,-4.0087,-4.0087,-4.0087,-4.007,-3.9884,-3.9242,-3.8582,-3.7855,-3.7127,-3.64,-3.5774,-3.5639,-3.5639,-3.5639,-3.5639,-3.5639,-3.5639,-3.5639,-3.5639,-3.5639,-3.5639,-3.5639,-3.5639,-3.5639,-3.5639,-3.5639,-3.5673,-3.5943,-3.6569,-3.6857,-3.7381,-3.8548,-3.8937,-3.9326,-3.9952,-4.002,-4.0087,-4.0087,-4.0087,-4.0087,-4.0087,-4.0087,-4.0087,-4.0087,-4.0087,-4.0087,-4.0087,-4.0087,-4.0087,-4.0087,-4.0087,-4.0087,-4.0087,-4.0087,-4.0087,-4.0087,-4.0087,-4.0087,-4.0087,-4.0087,-4.0121,-4.0204,-4.0497,-4.0763,-4.0916,-4.1049,-4.1299,-4.0999,-4.065,-4.016,-3.9643,-3.9093,-3.8762,-3.8726,-3.8707,-3.8707,-3.8707,-3.8707,-3.8707,-3.8707,-3.8707,-3.8707,-4.9018,-4.9018,-4.9018,-4.8139,-4.6836,-4.6786,-4.594,-4.4604,-4.457,-4.457,-4.457,-4.457,-4.457,-4.4553,-4.4282,-4.347,-4.2337,-4.2016,-4.1255,-4.0189,-4.0087,-4.0087,-4.0087,-4.0087,-4.0087,-4.0087,-4.0087,-4.0087,-4.0087,-4.0087,-4.0087,-4.0087,-4.0087,-4.0087,-4.0087,-4.0087,-4.0087,-4.0003,-3.936,-3.887,-3.8565,-3.7872,-3.7127,-3.64,-3.5876,-3.5639,-3.5639,-3.5639,-3.5639,-3.5639,-3.5639,-3.5639,-3.5639,-3.5639,-3.5639,-3.5639,-3.5639,-3.5639,-3.569,-3.6096,-3.6468,-3.6789,-3.7702,-3.8345,-3.8954,-3.9411,-3.9817,-4.002,-4.0087,-4.0087,-4.0087,-4.0087,-4.0087,-4.0087,-4.0087,-4.0087,-4.0087,-4.0087,-4.0087,-4.0087,-4.0087,-4.0087,-4.0087,-4.0087,-4.0087,-4.0087,-4.0087,-4.0087,-4.0087,-4.0087,-4.0087,-4.0087,-4.0087,-4.0087,-4.0087,-4.0204,-4.0431,-4.0758,-4.1007,-4.0965,-4.0735,-4.0508,-4.0073,-3.9537,-3.9002,-3.8762,-3.8707,-3.8707,-3.8707,-3.8707,-3.8707,-3.8707,-3.8707,-3.8707,-3.8707,-4.9018,-4.9018,-4.9018,-4.8139,-4.6853,-4.6786,-4.594,-4.4654,-4.457,-4.457,-4.457,-4.457,-4.457,-4.457,-4.457,-4.3741,-4.2388,-4.2269,-4.1491,-4.0155,-4.0087,-4.0087,-4.0087,-4.0087,-4.0087,-4.0087,-4.0087,-4.0087,-4.0087,-4.0087,-4.0087,-4.0087,-4.0087,-4.0087,-4.0087,-4.0087,-4.0087,-3.9969,-3.958,-3.9259,-3.8971,-3.8514,-3.7905,-3.7195,-3.662,-3.6096,-3.5673,-3.5639,-3.5639,-3.5639,-3.5639,-3.5639,-3.5639,-3.5639,-3.5639,-3.5639,-3.5639,-3.5757,-3.6011,-3.6485,-3.6992,-3.7483,-3.8379,-3.9056,-3.9343,-3.98,-4.0037,-4.0087,-4.0087,-4.0087,-4.0087,-4.0087,-4.0087,-4.0087,-4.0087,-4.0087,-4.0087,-4.0087,-4.0087,-4.0087,-4.0087,-4.0087,-4.0087,-4.0087,-4.0087,-4.0087,-4.0087,-4.0087,-4.0087,-4.0087,-4.0087,-4.0087,-4.0087,-4.0087,-4.0087,-4.0171,-4.0204,-4.0511,-4.0822,-4.0749,-4.056,-4.0352,-4.0003,-3.9445,-3.9073,-3.8821,-3.8707,-3.8707,-3.8707,-3.8707,-3.8707,-3.8707,-3.8707,-3.8707,-3.8707,-4.9018,-4.9018,-4.9001,-4.8156,-4.687,-4.6786,-4.5957,-4.4722,-4.457,-4.457,-4.457,-4.457,-4.457,-4.457,-4.457,-4.3758,-4.2591,-4.2337,-4.1491,-4.0172,-4.0087,-4.0087,-4.0087,-4.0087,-4.0087,-4.0087,-4.0087,-4.0087,-4.0087,-4.0087,-4.0087,-4.0087,-4.0087,-4.0087,-4.0087,-4.0087,-4.0087,-4.0054,-3.9986,-3.9681,-3.9106,-3.9005,-3.865,-3.799,-3.7838,-3.7178,-3.5825,-3.5723,-3.5707,-3.5639,-3.5639,-3.5639,-3.5639,-3.5639,-3.5639,-3.5639,-3.5656,-3.6028,-3.662,-3.6857,-3.7635,-3.8497,-3.8971,-3.936,-3.9851,-4.0037,-4.0087,-4.0087,-4.0087,-4.0087,-4.0087,-4.0087,-4.0087,-4.0087,-4.0087,-4.0087,-4.0087,-4.0087,-4.0087,-4.0087,-4.0087,-4.0087,-4.0087,-4.0087,-4.0087,-4.0087,-4.0087,-4.0087,-4.0087,-4.0087,-4.0087,-4.0087,-4.0087,-4.0087,-4.0087,-4.007,-4.0121,-4.0204,-4.0528,-4.0718,-4.0485,-4.0225,-3.9889,-3.9442,-3.9013,-3.8774,-3.8707,-3.8707,-3.8707,-3.8707,-3.8707,-3.8707,-3.8707,-3.8707,-3.8707,-4.9018,-4.9018,-4.9018,-4.8156,-4.687,-4.6786,-4.5957,-4.4654,-4.457,-4.457,-4.457,-4.457,-4.457,-4.457,-4.457,-4.4028,-4.3064,-4.2523,-4.1508,-4.029,-4.0087,-4.0087,-4.0087,-4.0087,-4.0087,-4.0087,-4.0087,-4.0087,-4.0087,-4.0087,-4.0087,-4.0087,-4.0087,-4.0087,-4.0087,-4.0087,-4.0087,-4.0087,-4.0087,-3.9935,-3.9749,-3.9732,-3.9394,-3.8751,-3.865,-3.8176,-3.7263,-3.6705,-3.6163,-3.5707,-3.5639,-3.5639,-3.5639,-3.5639,-3.5639,-3.5673,-3.6146,-3.6485,-3.684,-3.7719,-3.843,-3.9005,-3.9445,-3.9783,-4.0037,-4.0087,-4.0087,-4.0087,-4.0087,-4.0087,-4.0087,-4.0087,-4.0087,-4.0087,-4.0087,-4.0087,-4.0087,-4.0087,-4.0087,-4.0087,-4.0087,-4.0087,-4.0087,-4.0087,-4.0087,-4.0087,-4.0087,-4.0087,-4.0087,-4.0087,-4.0087,-4.0087,-4.0087,-4.0087,-4.0087,-4.0087,-4.0087,-4.0087,-4.0336,-4.0546,-4.0341,-3.9894,-3.9588,-3.9294,-3.8928,-3.8779,-3.8713,-3.8707,-3.8707,-3.8707,-3.8707,-3.8707,-3.8707,-3.8707,-3.8707,-4.9018,-4.8968,-4.8714,-4.7919,-4.6786,-4.6532,-4.572,-4.4654,-4.457,-4.457,-4.457,-4.457,-4.457,-4.457,-4.457,-4.4147,-4.3386,-4.2642,-4.1644,-4.0578,-4.0155,-4.0087,-4.0087,-4.0087,-4.0087,-4.0087,-4.0087,-4.0087,-4.0087,-4.0087,-4.0087,-4.0087,-4.0087,-4.0087,-4.0087,-4.0087,-4.0087,-4.0087,-4.0087,-4.0087,-4.007,-4.0087,-3.9918,-3.9462,-3.9377,-3.9005,-3.8345,-3.7838,-3.7246,-3.6569,-3.6231,-3.6062,-3.6028,-3.5808,-3.5639,-3.5774,-3.6315,-3.6891,-3.7263,-3.8294,-3.914,-3.9411,-3.9817,-4.007,-4.0087,-4.0087,-4.0087,-4.0087,-4.0087,-4.0087,-4.0087,-4.0087,-4.0087,-4.0087,-4.0087,-4.0087,-4.0087,-4.0087,-4.0087,-4.0087,-4.0087,-4.0087,-4.0087,-4.0087,-4.0087,-4.0087,-4.0087,-4.0087,-4.0087,-4.0087,-4.0087,-4.0087,-4.0087,-4.0087,-4.0087,-4.0087,-4.0087,-4.0087,-4.0121,-4.0204,-4.0182,-3.9405,-3.8891,-3.8699,-3.8389,-3.8561,-3.8546,-3.8658,-3.8707,-3.8707,-3.8707,-3.8707,-3.8707,-3.8707,-3.8707,-4.9018,-4.8917,-4.8223,-4.7513,-4.6735,-4.6058,-4.5331,-4.4637,-4.457,-4.457,-4.457,-4.457,-4.457,-4.457,-4.457,-4.4147,-4.3386,-4.2642,-4.188,-4.1085,-4.046,-4.0087,-4.0087,-4.0087,-4.0087,-4.0087,-4.0087,-4.0087,-4.0087,-4.0087,-4.0087,-4.0087,-4.0087,-4.0087,-4.0087,-4.0087,-4.0087,-4.0087,-4.0087,-4.0087,-4.0087,-4.0087,-4.007,-4.002,-3.9986,-3.9698,-3.914,-3.8954,-3.8616,-3.7905,-3.7144,-3.684,-3.6705,-3.6129,-3.591,-3.5994,-3.6518,-3.728,-3.7956,-3.8717,-3.9377,-3.9918,-4.0003,-4.0087,-4.0087,-4.0087,-4.0087,-4.0087,-4.0087,-4.0087,-4.0087,-4.0087,-4.0087,-4.0087,-4.0087,-4.0087,-4.0087,-4.0087,-4.0087,-4.0087,-4.0087,-4.0087,-4.0087,-4.0087,-4.0087,-4.0087,-4.0087,-4.0087,-4.0087,-4.0087,-4.0087,-4.0087,-4.0087,-4.0087,-4.0087,-4.0087,-4.0087,-4.0087,-4.007,-4.007,-3.9951,-3.9186,-3.8529,-3.828,-3.8075,-3.8256,-3.8483,-3.8627,-3.8707,-3.8707,-3.8707,-3.8707,-3.8707,-3.8707,-3.8707,-4.9018,-4.8917,-4.8223,-4.7496,-4.6735,-4.6007,-4.5263,-4.4621,-4.457,-4.457,-4.457,-4.457,-4.457,-4.457,-4.4553,-4.4147,-4.3386,-4.2642,-4.1897,-4.117,-4.0426,-4.0104,-4.0087,-4.0087,-4.0087,-4.0087,-4.0087,-4.0087,-4.0087,-4.0087,-4.0087,-4.0087,-4.0087,-4.0087,-4.0087,-4.0087,-4.0087,-4.0087,-4.0087,-4.0087,-4.0087,-4.0087,-4.0087,-4.0087,-4.0087,-3.9986,-3.98,-3.98,-3.9174,-3.8024,-3.7753,-3.7601,-3.7584,-3.7347,-3.7161,-3.728,-3.7905,-3.843,-3.8751,-3.936,-3.9851,-4.0037,-4.0087,-4.0087,-4.0087,-4.0087,-4.0087,-4.0087,-4.0087,-4.0087,-4.0087,-4.0087,-4.0087,-4.0087,-4.0087,-4.0087,-4.0087,-4.0087,-4.0087,-4.0087,-4.0087,-4.0087,-4.0087,-4.0087,-4.0087,-4.0087,-4.0087,-4.0087,-4.0087,-4.0087,-4.0087,-4.0087,-4.0087,-4.0087,-4.0087,-4.0087,-4.0087,-4.0087,-4.007,-4.0104,-3.9795,-3.9162,-3.8643,-3.8284,-3.7954,-3.7982,-3.8401,-3.8676,-3.8707,-3.8707,-3.8707,-3.8707,-3.8707,-3.8707,-3.8707,-4.8832,-4.8477,-4.775,-4.7005,-4.6278,-4.5534,-4.4976,-4.4637,-4.457,-4.457,-4.457,-4.457,-4.457,-4.457,-4.4553,-4.4164,-4.3386,-4.2625,-4.1897,-4.117,-4.0426,-4.0104,-4.0087,-4.0087,-4.0087,-4.0087,-4.0087,-4.0087,-4.0087,-4.0087,-4.0087,-4.0087,-4.0087,-4.0087,-4.0087,-4.0087,-4.0087,-4.0087,-4.0087,-4.0087,-4.0087,-4.0087,-4.0087,-4.0087,-4.0087,-4.0087,-4.0087,-4.007,-3.9648,-3.8937,-3.8548,-3.8362,-3.8328,-3.8041,-3.7922,-3.7939,-3.8582,-3.8971,-3.9123,-3.9665,-4.0054,-4.0087,-4.0087,-4.0087,-4.0087,-4.0087,-4.0087,-4.0087,-4.0087,-4.0087,-4.0087,-4.0087,-4.0087,-4.0087,-4.0087,-4.0087,-4.0087,-4.0087,-4.0087,-4.0087,-4.0087,-4.0087,-4.0087,-4.0087,-4.0087,-4.0087,-4.0087,-4.0087,-4.0087,-4.0087,-4.0087,-4.0087,-4.0087,-4.0087,-4.0087,-4.0087,-4.0087,-4.0087,-4.007,-4.0104,-3.9627,-3.9102,-3.8518,-3.8041,-3.7762,-3.7773,-3.8201,-3.8546,-3.8707,-3.8707,-3.8707,-3.8707,-3.8707,-3.8707,-3.8707,-4.8511,-4.7851,-4.7022,-4.6312,-4.5669,-4.4908,-4.4621,-4.457,-4.457,-4.457,-4.457,-4.457,-4.457,-4.457,-4.4384,-4.3995,-4.3217,-4.2388,-4.1694,-4.1001,-4.0392,-4.0087,-4.0087,-4.0087,-4.0087,-4.0087,-4.0087,-4.0087,-4.0087,-4.0087,-4.0087,-4.0087,-4.0087,-4.0087,-4.0087,-4.0087,-4.0087,-4.0087,-4.0087,-4.0087,-4.0087,-4.0087,-4.0087,-4.0087,-4.0087,-4.0087,-4.0087,-4.0087,-3.9986,-4.0054,-3.9428,-3.914,-3.9022,-3.8464,-3.8261,-3.8362,-3.8886,-3.9191,-3.9208,-3.9766,-4.0087,-4.0087,-4.0087,-4.0087,-4.0087,-4.0087,-4.0087,-4.0087,-4.0087,-4.0087,-4.0087,-4.0087,-4.0087,-4.0087,-4.0087,-4.0087,-4.0087,-4.0087,-4.0087,-4.0087,-4.0087,-4.0087,-4.0087,-4.0087,-4.0087,-4.0087,-4.0087,-4.0087,-4.0087,-4.0087,-4.0087,-4.0087,-4.0087,-4.0087,-4.0087,-4.0087,-4.0087,-4.0087,-4.0087,-3.9969,-3.9462,-3.8894,-3.8208,-3.7759,-3.769,-3.7739,-3.7946,-3.8267,-3.8546,-3.8707,-3.8707,-3.8707,-3.8707,-3.8707,-3.8707,-4.8054,-4.78,-4.6481,-4.5855,-4.5585,-4.4908,-4.457,-4.457,-4.457,-4.457,-4.457,-4.457,-4.457,-4.4536,-4.3978,-4.325,-4.2557,-4.1796,-4.1035,-4.0358,-4.0206,-4.0087,-4.0087,-4.0087,-4.0087,-4.0087,-4.0087,-4.0087,-4.0087,-4.0087,-4.0087,-4.0087,-4.0087,-4.0087,-4.0087,-4.0087,-4.0087,-4.0087,-4.0087,-4.0087,-4.0087,-4.0087,-4.0087,-4.0087,-4.0087,-4.0087,-4.0087,-4.0087,-4.0087,-4.0037,-3.9918,-3.9749,-3.9715,-3.9614,-3.9478,-3.9478,-3.9631,-3.9817,-3.9868,-3.9952,-4.0087,-4.0087,-4.0087,-4.0087,-4.0087,-4.0087,-4.0087,-4.0087,-4.0087,-4.0087,-4.0087,-4.0087,-4.0087,-4.0087,-4.0087,-4.0087,-4.0087,-4.0087,-4.0087,-4.0087,-4.0087,-4.0087,-4.0087,-4.0087,-4.0087,-4.0087,-4.0087,-4.0087,-4.0087,-4.0087,-4.0087,-4.0087,-4.0087,-4.0087,-4.0087,-4.0087,-4.0087,-4.0087,-4.0087,-4.0054,-3.9546,-3.8783,-3.8074,-3.7767,-3.7667,-3.7729,-3.7614,-3.8117,-3.8433,-3.8546,-3.8627,-3.8578,-3.8546,-3.8627,-3.8707,-4.7513,-4.6802,-4.6024,-4.5517,-4.5162,-4.4756,-4.457,-4.457,-4.457,-4.457,-4.457,-4.457,-4.457,-4.4502,-4.3758,-4.3014,-4.2151,-4.1153,-4.0476,-4.0138,-4.0087,-4.0087,-4.0087,-4.0087,-4.0087,-4.0087,-4.0087,-4.0087,-4.0087,-4.0087,-4.0087,-4.0087,-4.0087,-4.0087,-4.0087,-4.0087,-4.0087,-4.0087,-4.0087,-4.0087,-4.0087,-4.0087,-4.0087,-4.0087,-4.0087,-4.0087,-4.0087,-4.0087,-4.0087,-4.0087,-4.0087,-4.0087,-4.0087,-4.0087,-4.0087,-4.0087,-4.0087,-4.0087,-4.007,-4.0087,-4.0087,-4.0087,-4.0087,-4.0087,-4.0087,-4.0087,-4.0087,-4.0087,-4.0087,-4.0087,-4.0087,-4.0087,-4.0087,-4.0087,-4.0087,-4.0087,-4.0087,-4.0087,-4.0087,-4.0087,-4.0087,-4.0087,-4.0087,-4.0087,-4.0087,-4.0087,-4.0087,-4.0087,-4.0087,-4.0087,-4.0087,-4.0087,-4.0087,-4.0087,-4.0087,-4.0087,-4.0087,-4.0087,-4.0087,-4.0087,-3.9884,-3.8969,-3.7984,-3.7806,-3.7582,-3.7073,-3.7058,-3.7667,-3.8083,-3.7964,-3.7964,-3.8201,-3.8415,-3.8496,-3.8627,-4.6836,-4.5686,-4.5585,-4.5162,-4.4637,-4.457,-4.457,-4.457,-4.457,-4.457,-4.457,-4.457,-4.457,-4.4384,-4.3572,-4.2794,-4.1762,-4.0849,-4.0121,-4.0104,-4.0087,-4.0087,-4.0087,-4.0087,-4.0087,-4.0087,-4.0087,-4.0087,-4.0087,-4.0087,-4.0087,-4.0087,-4.0087,-4.0087,-4.0087,-4.0087,-4.0087,-4.0087,-4.0087,-4.0087,-4.0087,-4.0087,-4.0087,-4.0087,-4.0087,-4.0087,-4.0087,-4.0087,-4.0087,-4.0087,-4.0087,-4.0087,-4.0087,-4.0087,-4.0087,-4.0087,-4.0087,-4.0087,-4.0087,-4.0087,-4.0087,-4.0087,-4.0087,-4.0087,-4.0087,-4.0087,-4.0087,-4.0087,-4.0087,-4.0087,-4.0087,-4.0087,-4.0087,-4.0087,-4.0087,-4.0087,-4.0087,-4.0087,-4.0087,-4.0087,-4.0087,-4.0087,-4.0087,-4.0087,-4.0087,-4.0087,-4.0087,-4.0087,-4.0087,-4.0087,-4.0087,-4.0087,-4.0087,-4.0087,-4.0087,-4.0087,-4.0087,-4.0087,-4.0087,-3.9952,-3.9868,-3.8901,-3.7919,-3.767,-3.7357,-3.6834,-3.6643,-3.7173,-3.7414,-3.7285,-3.7578,-3.8065,-3.83,-3.8415,-3.8578,-4.5923,-4.5635,-4.5026,-4.4688,-4.4587,-4.457,-4.457,-4.457,-4.457,-4.457,-4.457,-4.457,-4.457,-4.4198,-4.3047,-4.1779,-4.0798,-4.0189,-4.0087,-4.0087,-4.0087,-4.0087,-4.0087,-4.0087,-4.0087,-4.0087,-4.0087,-4.0087,-4.0087,-4.0087,-4.0087,-4.0087,-4.0087,-4.0087,-4.0087,-4.0087,-4.0087,-4.0087,-4.0087,-4.0087,-4.0087,-4.0087,-4.0087,-4.0087,-4.0087,-4.0087,-4.0087,-4.0087,-4.0087,-4.0087,-4.0087,-4.0087,-4.0087,-4.0087,-4.0087,-4.0087,-4.0087,-4.0087,-4.0087,-4.0087,-4.0087,-4.0087,-4.0087,-4.0087,-4.0087,-4.0087,-4.0087,-4.0087,-4.0087,-4.0087,-4.0087,-4.0087,-4.0087,-4.0087,-4.0087,-4.0087,-4.0087,-4.0087,-4.0087,-4.0087,-4.0087,-4.0087,-4.0087,-4.0087,-4.0087,-4.0087,-4.0087,-4.0087,-4.0087,-4.0087,-4.0087,-4.0087,-4.0087,-4.0087,-4.0087,-4.0087,-4.0087,-4.0087,-4.0003,-3.9698,-3.9377,-3.8531,-3.7885,-3.7522,-3.7024,-3.65,-3.6522,-3.6803,-3.7058,-3.7173,-3.7578,-3.8032,-3.8234,-3.8433,-3.8578,-4.5483,-4.5094,-4.4722,-4.457,-4.457,-4.457,-4.457,-4.457,-4.457,-4.457,-4.457,-4.4553,-4.4333,-4.3775,-4.2844,-4.1474,-4.0392,-4.0087,-4.0087,-4.0087,-4.0087,-4.0087,-4.0087,-4.0087,-4.0087,-4.0087,-4.0087,-4.0087,-4.0087,-4.0087,-4.0087,-4.0087,-4.0087,-4.0087,-4.0087,-4.0087,-4.0087,-4.0087,-4.0087,-4.0087,-4.0087,-4.0087,-4.0087,-4.0087,-4.0087,-4.0087,-4.0087,-4.0087,-4.0087,-4.0087,-4.0087,-4.0087,-4.0087,-4.0087,-4.0087,-4.0087,-4.0087,-4.0087,-4.0087,-4.0087,-4.0087,-4.0087,-4.0087,-4.0087,-4.0087,-4.0087,-4.0087,-4.0087,-4.0087,-4.0087,-4.0087,-4.0087,-4.0087,-4.0087,-4.0087,-4.0087,-4.0087,-4.0087,-4.0087,-4.0087,-4.0087,-4.0087,-4.0087,-4.0087,-4.0087,-4.0087,-4.0087,-4.0087,-4.0087,-4.0087,-4.0087,-4.0087,-4.0087,-4.0087,-4.0087,-4.0087,-4.0087,-4.0087,-3.9851,-3.9546,-3.9022,-3.8244,-3.7669,-3.7242,-3.6689,-3.6105,-3.6011,-3.6165,-3.6626,-3.7097,-3.7396,-3.7738,-3.8117,-3.8433,-3.8596,-4.5128,-4.457,-4.457,-4.457,-4.457,-4.457,-4.457,-4.457,-4.457,-4.457,-4.4553,-4.4367,-4.3978,-4.3318,-4.2422,-4.1322,-4.0121,-4.0087,-4.0087,-4.0087,-4.0087,-4.0087,-4.0087,-4.0087,-4.0087,-4.0087,-4.0087,-4.0087,-4.0087,-4.0087,-4.0087,-4.0087,-4.0087,-4.0087,-4.0087,-4.0087,-4.0087,-4.0087,-4.0087,-4.0087,-4.0087,-4.0087,-4.0087,-4.0087,-4.0087,-4.0087,-4.0087,-4.0087,-4.0087,-4.0087,-4.0087,-4.0087,-4.0087,-4.0087,-4.0087,-4.0087,-4.0087,-4.0087,-4.0087,-4.0087,-4.0087,-4.0087,-4.0087,-4.0087,-4.0087,-4.0087,-4.0087,-4.0087,-4.0087,-4.0087,-4.0087,-4.0087,-4.0087,-4.0087,-4.0087,-4.0087,-4.0087,-4.0087,-4.0087,-4.0087,-4.0087,-4.0087,-4.0087,-4.0087,-4.0087,-4.0087,-4.0087,-4.0087,-4.0087,-4.0087,-4.0087,-4.0087,-4.0087,-4.0087,-4.0087,-4.0087,-4.0087,-4.0087,-3.9698,-3.9292,-3.87,-3.8041,-3.7449,-3.6755,-3.631,-3.5783,-3.5667,-3.5783,-3.644,-3.696,-3.7135,-3.756,-3.8234,-3.8515,-3.8658,-4.4654,-4.457,-4.457,-4.457,-4.457,-4.457,-4.457,-4.457,-4.457,-4.457,-4.4519,-4.3821,-4.3411,-4.28,-4.1687,-4.0814,-4.024,-4.002,-3.9952,-3.9952,-4.007,-4.0087,-4.0087,-4.0087,-4.0087,-4.0087,-4.0087,-4.0087,-4.0087,-4.0087,-4.0087,-4.0087,-4.0087,-4.0087,-4.0087,-4.0087,-4.0087,-4.0087,-4.0087,-4.0087,-4.0087,-4.0087,-4.0087,-4.0087,-4.0087,-4.0087,-4.0087,-4.0087,-4.0087,-4.0087,-4.0087,-4.0087,-4.0087,-4.0087,-4.0087,-4.0087,-4.0087,-4.0087,-4.0087,-4.0087,-4.0087,-4.0087,-4.0087,-4.0087,-4.0087,-4.0087,-4.0087,-4.0087,-4.0087,-4.0087,-4.0087,-4.0087,-4.0087,-4.0087,-4.0087,-4.0087,-4.0087,-4.0087,-4.0087,-4.0087,-4.0087,-4.0087,-4.0087,-4.0087,-4.0087,-4.0087,-4.0087,-4.0087,-4.0087,-4.0087,-4.0087,-4.0087,-4.0087,-4.0087,-4.0087,-4.0087,-4.0087,-4.0087,-3.958,-3.9039,-3.8379,-3.7702,-3.6789,-3.6163,-3.5774,-3.5622,-3.5622,-3.5898,-3.6457,-3.6882,-3.721,-3.7808,-3.8496,-3.8658,-3.8707,-4.4138,-4.457,-4.457,-4.457,-4.457,-4.457,-4.457,-4.457,-4.457,-4.457,-4.4345,-4.326,-4.2136,-4.0941,-3.9719,-3.9106,-3.892,-3.9279,-3.9437,-3.9662,-3.9885,-4.007,-4.0087,-4.0087,-4.0087,-4.0087,-4.0087,-4.0087,-4.0087,-4.0087,-4.0087,-4.0087,-4.0087,-4.0087,-4.0087,-4.0087,-4.0087,-4.0087,-4.0087,-4.0087,-4.0087,-4.0087,-4.0087,-4.0087,-4.0087,-4.0087,-4.0087,-4.0087,-4.0087,-4.0087,-4.0087,-4.0087,-4.0087,-4.0087,-4.0087,-4.0087,-4.0087,-4.0087,-4.0087,-4.0087,-4.0087,-4.0087,-4.0087,-4.0087,-4.0087,-4.0087,-4.0087,-4.0087,-4.0087,-4.0087,-4.0087,-4.0087,-4.0087,-4.0087,-4.0087,-4.0087,-4.0087,-4.0087,-4.0087,-4.0087,-4.0087,-4.0087,-4.0087,-4.0087,-4.0087,-4.0087,-4.0087,-4.0087,-4.0087,-4.0087,-4.0087,-4.0087,-4.0087,-4.0087,-4.0087,-4.0087,-4.0087,-3.9969,-3.9411,-3.8819,-3.8091,-3.7313,-3.6451,-3.5943,-3.5723,-3.5622,-3.5605,-3.5881,-3.6333,-3.6825,-3.736,-3.7964,-3.8546,-3.8658,-3.8707,-4.3366,-4.3989,-4.4384,-4.4514,-4.4253,-4.4253,-4.4121,-4.3914,-4.3697,-4.363,-4.3322,-4.208,-4.0333,-3.891,-3.8242,-3.8157,-3.8222,-3.8635,-3.9032,-3.9368,-3.9731,-4.007,-4.0087,-4.0087,-4.0087,-4.0087,-4.0087,-4.0087,-4.0087,-4.0087,-4.0087,-4.0087,-4.0087,-4.0087,-4.0087,-4.0087,-4.0087,-4.0087,-4.0087,-4.0087,-4.0087,-4.0087,-4.0087,-4.0087,-4.0087,-4.0087,-4.0087,-4.0087,-4.0087,-4.0087,-4.0087,-4.0087,-4.0087,-4.0087,-4.0087,-4.0087,-4.0087,-4.0087,-4.0087,-4.0087,-4.0087,-4.0087,-4.0087,-4.0087,-4.0087,-4.0087,-4.0087,-4.0087,-4.0087,-4.0087,-4.0087,-4.0087,-4.0087,-4.0087,-4.0087,-4.0087,-4.0087,-4.0087,-4.0087,-4.0087,-4.0087,-4.0087,-4.0087,-4.0087,-4.0087,-4.0087,-4.0087,-4.0087,-4.0087,-4.0087,-4.0087,-4.0087,-4.0087,-4.0087,-4.0087,-4.0087,-4.0087,-3.9817,-3.9259,-3.8684,-3.799,-3.7094,-3.618,-3.5825,-3.5656,-3.5783,-3.5898,-3.6054,-3.6249,-3.6904,-3.756,-3.8016,-3.8433,-3.8596,-3.8707,-4.2125,-4.2316,-4.3931,-4.4064,-4.3366,-4.3366,-4.2892,-4.2296,-4.159,-4.1362,-4.112,-3.9875,-3.8809,-3.7945,-3.7685,-3.7905,-3.869,-3.8854,-3.9193,-3.9662,-4.007,-4.007,-4.0087,-4.0087,-4.0087,-4.0087,-4.0087,-4.0087,-4.0087,-4.0087,-4.0087,-4.0087,-4.0087,-4.0087,-4.0087,-4.0087,-4.0087,-4.0087,-4.0087,-4.0087,-4.0087,-4.0087,-4.0087,-4.0087,-4.0087,-4.0087,-4.0087,-4.0087,-4.0087,-4.0087,-4.0087,-4.0087,-4.0087,-4.0087,-4.0087,-4.0087,-4.0087,-4.0087,-4.0087,-4.0087,-4.0087,-4.0087,-4.0087,-4.0087,-4.0087,-4.0087,-4.0087,-4.0087,-4.0087,-4.0087,-4.0087,-4.0087,-4.0087,-4.0087,-4.0087,-4.0087,-4.0087,-4.0087,-4.0087,-4.0087,-4.0087,-4.0087,-4.0087,-4.0087,-4.0087,-4.0087,-4.0087,-4.0087,-4.0087,-4.0087,-4.0087,-4.0087,-4.0087,-4.0087,-4.0087,-4.0087,-4.0087,-3.9631,-3.9039,-3.8514,-3.7956,-3.6992,-3.5876,-3.5774,-3.5622,-3.5915,-3.6224,-3.6457,-3.6764,-3.7248,-3.7721,-3.8135,-3.8433,-3.8627,-3.8707,-4.1213,-4.1346,-4.2504,-4.2831,-4.2472,-4.2051,-4.1687,-4.1292,-4.0651,-3.9768,-3.8968,-3.834,-3.7514,-3.6693,-3.643,-3.6814,-3.7483,-3.8076,-3.869,-3.9332,-3.9782,-4.007,-4.0087,-4.0087,-4.0087,-4.0087,-4.0087,-4.0087,-4.0087,-4.0087,-4.0087,-4.0087,-4.0087,-4.0087,-4.0087,-4.0087,-4.0087,-4.0087,-4.0087,-4.0087,-4.0087,-4.0087,-4.0087,-4.0087,-4.0087,-4.0087,-4.0087,-4.0087,-4.0087,-4.0087,-4.0087,-4.0087,-4.0087,-4.0087,-4.0087,-4.0087,-4.0087,-4.0087,-4.0087,-4.0087,-4.0087,-4.0087,-4.0087,-4.0087,-4.0087,-4.0087,-4.0087,-4.0087,-4.0087,-4.0087,-4.0087,-4.0087,-4.0087,-4.0087,-4.0087,-4.0087,-4.0087,-4.0087,-4.0087,-4.0087,-4.0087,-4.0087,-4.0087,-4.0087,-4.0087,-4.0087,-4.0087,-4.0087,-4.0087,-4.0087,-4.0087,-4.0087,-4.0087,-4.0087,-4.0087,-4.0087,-4.0087,-3.9462,-3.8819,-3.8261,-3.7686,-3.6603,-3.5707,-3.5639,-3.5711,-3.5985,-3.6374,-3.6843,-3.7266,-3.7596,-3.7877,-3.8183,-3.8433,-3.8658,-3.8707,-4.0171,-4.0124,-4.0649,-4.1096,-4.1228,-4.0833,-4.0309,-3.9833,-3.9188,-3.8263,-3.7075,-3.698,-3.6542,-3.5774,-3.5846,-3.6352,-3.7203,-3.7905,-3.858,-3.9279,-3.9901,-4.007,-4.0087,-4.0087,-4.0087,-4.0087,-4.0087,-4.0087,-4.0087,-4.0087,-4.0087,-4.0087,-4.0087,-4.0087,-4.0087,-4.0087,-4.0087,-4.0087,-4.0087,-4.0087,-4.0087,-4.0087,-4.0087,-4.0087,-4.0087,-4.0087,-4.0087,-4.0087,-4.0087,-4.0087,-4.0087,-4.0087,-4.0087,-4.0087,-4.0087,-4.0087,-4.0087,-4.0087,-4.0087,-4.0087,-4.0087,-4.0087,-4.0087,-4.0087,-4.0087,-4.0087,-4.0087,-4.0087,-4.0087,-4.0087,-4.0087,-4.0087,-4.0087,-4.0087,-4.0087,-4.0087,-4.0087,-4.0087,-4.0087,-4.0087,-4.0087,-4.0087,-4.0087,-4.0087,-4.0087,-4.0087,-4.0087,-4.0087,-4.0087,-4.0087,-4.0087,-4.0087,-4.0087,-4.0087,-4.0087,-4.0087,-3.9969,-3.9292,-3.8633,-3.7973,-3.7229,-3.6214,-3.5656,-3.5622,-3.5783,-3.6054,-3.6563,-3.7173,-3.7542,-3.7808,-3.8099,-3.8382,-3.8496,-3.8707,-3.8707,-3.9047,-3.8507,-3.8547,-3.904,-3.9621,-3.9718,-3.8867,-3.7767,-3.708,-3.6411,-3.5849,-3.5709,-3.5709,-3.5683,-3.6117,-3.6798,-3.7616,-3.8398,-3.9139,-3.9799,-4.002,-4.0087,-4.0087,-4.0087,-4.0087,-4.0087,-4.0087,-4.0087,-4.0087,-4.0087,-4.0087,-4.0087,-4.0087,-4.0087,-4.0087,-4.0087,-4.0087,-4.0087,-4.0087,-4.0087,-4.0087,-4.0087,-4.0087,-4.0087,-4.0087,-4.0087,-4.0087,-4.0087,-4.0087,-4.0087,-4.0087,-4.0087,-4.0087,-4.0087,-4.0087,-4.0087,-4.0087,-4.0087,-4.0087,-4.0087,-4.0087,-4.0087,-4.0087,-4.0087,-4.0087,-4.0087,-4.0087,-4.0087,-4.0087,-4.0087,-4.0087,-4.0087,-4.0087,-4.0087,-4.0087,-4.0087,-4.0087,-4.0087,-4.0087,-4.0087,-4.0087,-4.0087,-4.0087,-4.0087,-4.0087,-4.0087,-4.0087,-4.0087,-4.0087,-4.0087,-4.0087,-4.0087,-4.0087,-4.0087,-4.0087,-4.0087,-3.9834,-3.914,-3.8464,-3.7821,-3.7077,-3.618,-3.5791,-3.5701,-3.5941,-3.6291,-3.6904,-3.756,-3.7877,-3.8183,-3.8415,-3.8627,-3.8707,-3.8707,-3.8707,-3.7943,-3.7749,-3.7734,-3.7699,-3.7591,-3.7561,-3.724,-3.6783,-3.6148,-3.5699,-3.5534,-3.5489,-3.5489,-3.5718,-3.6352,-3.7084,-3.7863,-3.858,-3.9315,-4.002,-4.007,-4.0087,-4.0087,-4.0087,-4.0087,-4.0087,-4.0087,-4.0087,-4.0087,-4.0087,-4.0087,-4.0087,-4.0087,-4.0087,-4.0087,-4.0087,-4.0087,-4.0087,-4.0087,-4.0087,-4.0087,-4.0087,-4.0087,-4.0087,-4.0087,-4.0087,-4.0087,-4.0087,-4.0087,-4.0087,-4.0087,-4.0087,-4.0087,-4.0087,-4.0087,-4.0087,-4.0087,-4.0087,-4.0087,-4.0087,-4.0087,-4.0087,-4.0087,-4.0087,-4.0087,-4.0087,-4.0087,-4.0087,-4.0087,-4.0087,-4.0087,-4.0087,-4.0087,-4.0087,-4.0087,-4.0087,-4.0087,-4.0087,-4.0087,-4.0087,-4.0087,-4.0087,-4.0087,-4.0087,-4.0087,-4.0087,-4.0087,-4.0087,-4.0087,-4.0087,-4.0087,-4.0087,-4.0087,-4.0087,-4.0087,-4.0087,-3.9665,-3.8937,-3.8311,-3.7702,-3.6924,-3.6062,-3.5853,-3.5711,-3.6139,-3.658,-3.7248,-3.7895,-3.8234,-3.8546,-3.8658,-3.8707,-3.8707,-3.8707,-3.8707,-3.7285,-3.709,-3.7105,-3.6731,-3.6237,-3.6387,-3.6372,-3.6118,-3.5684,-3.5489,-3.5489,-3.5489,-3.5668,-3.607,-3.6692,-3.7424,-3.8189,-3.8635,-3.9315,-3.9952,-3.9765,-3.9833,-4.0003,-4.007,-4.0087,-4.0087,-4.0087,-4.0087,-4.0087,-4.0087,-4.0087,-4.0087,-4.0087,-4.0087,-4.0087,-4.0087,-4.0087,-4.0087,-4.0087,-4.0087,-4.0087,-4.0087,-4.0087,-4.0087,-4.0087,-4.0087,-4.0087,-4.0087,-4.0087,-4.0087,-4.0087,-4.0087,-4.0087,-4.0087,-4.0087,-4.0087,-4.0087,-4.0087,-4.0087,-4.0087,-4.0087,-4.0087,-4.0087,-4.0087,-4.0087,-4.0087,-4.0087,-4.0087,-4.0087,-4.0087,-4.0087,-4.0087,-4.0087,-4.0087,-4.0087,-4.0087,-4.0087,-4.0087,-4.0087,-4.0087,-4.0087,-4.0087,-4.0087,-4.0087,-4.0087,-4.0087,-4.0087,-4.0087,-4.0087,-4.0087,-4.0087,-4.0087,-4.0087,-4.0087,-4.0087,-4.0087,-3.9546,-3.8734,-3.8159,-3.7618,-3.6654,-3.5808,-3.5779,-3.5898,-3.644,-3.6981,-3.7632,-3.8201,-3.8465,-3.8627,-3.8658,-3.8707,-3.8707,-3.8707,-3.8707,-3.6985,-3.6492,-3.6462,-3.6103,-3.5684,-3.6148,-3.6073,-3.5534,-3.5519,-3.5489,-3.5489,-3.5489,-3.5718,-3.6508,-3.7279,-3.7905,-3.8398,-3.8635,-3.9156,-3.9454,-3.9102,-3.9437,-3.9731,-3.9901,-3.9969,-4.007,-4.0087,-4.0087,-4.0087,-4.0087,-4.0087,-4.0087,-4.0087,-4.0087,-4.0087,-4.0087,-4.0087,-4.0087,-4.0087,-4.0087,-4.0087,-4.0087,-4.0087,-4.0087,-4.0087,-4.0087,-4.0087,-4.0087,-4.0087,-4.0087,-4.0087,-4.0087,-4.0087,-4.0087,-4.0087,-4.0087,-4.0087,-4.0087,-4.0087,-4.0087,-4.0087,-4.0087,-4.0087,-4.0087,-4.0087,-4.0087,-4.0087,-4.0087,-4.0087,-4.0087,-4.0087,-4.0087,-4.0087,-4.0087,-4.0087,-4.0087,-4.0087,-4.0087,-4.0087,-4.0087,-4.0087,-4.0087,-4.0087,-4.0087,-4.0087,-4.0087,-4.0087,-4.0087,-4.0087,-4.0087,-4.0087,-4.0087,-4.0087,-4.0087,-4.007,-4.0037,-3.9343,-3.8514,-3.8125,-3.7567,-3.6535,-3.5751,-3.5861,-3.6122,-3.6786,-3.7433,-3.8083,-3.8433,-3.8596,-3.8707,-3.8707,-3.8707,-3.8707,-3.8707,-3.8707,-3.5953,-3.5789,-3.5789,-3.5684,-3.5549,-3.5714,-3.5684,-3.5519,-3.5489,-3.5489,-3.5489,-3.5489,-3.5668,-3.5894,-3.6569,-3.7068,-3.7483,-3.779,-3.8149,-3.8318,-3.843,-3.8707,-3.9032,-3.9385,-3.961,-3.9952,-4.0087,-4.0087,-4.0087,-4.0087,-4.0087,-4.0087,-4.0087,-4.0087,-4.0087,-4.0087,-4.0087,-4.0087,-4.0087,-4.0087,-4.0087,-4.0087,-4.0087,-4.0087,-4.0087,-4.0087,-4.0087,-4.0087,-4.0087,-4.0087,-4.0087,-4.0087,-4.0087,-4.0087,-4.0087,-4.0087,-4.0087,-4.0087,-4.0087,-4.0087,-4.0087,-4.0087,-4.0087,-4.0087,-4.0087,-4.0087,-4.0087,-4.0087,-4.0087,-4.0087,-4.0087,-4.0087,-4.0087,-4.0087,-4.0087,-4.0087,-4.0087,-4.0087,-4.0087,-4.0087,-4.0087,-4.0087,-4.0087,-4.0087,-4.0087,-4.0087,-4.0087,-4.0087,-4.0087,-4.0087,-4.0087,-4.0087,-3.9901,-3.9834,-3.9935,-3.9985,-3.9106,-3.8362,-3.7905,-3.7297,-3.6356,-3.58,-3.5941,-3.644,-3.721,-3.7861,-3.8465,-3.8658,-3.8707,-3.8707,-3.8707,-3.8707,-3.8707,-3.8707,-3.8707,-3.5489,-3.5489,-3.5489,-3.5489,-3.5489,-3.5489,-3.5489,-3.5489,-3.5489,-3.5489,-3.5489,-3.5489,-3.5668,-3.607,-3.6508,-3.6859,-3.7219,-3.7263,-3.7515,-3.7937,-3.7764,-3.8358,-3.869,-3.9193,-3.9731,-3.9969,-4.007,-4.0087,-4.0087,-4.0087,-4.0087,-4.0087,-4.0087,-4.0087,-4.0087,-4.0087,-4.0087,-4.0087,-4.0087,-4.0087,-4.0087,-4.0087,-4.0087,-4.0087,-4.0087,-4.0087,-4.0087,-4.0087,-4.0087,-4.0087,-4.0087,-4.0087,-4.0087,-4.0087,-4.0087,-4.0087,-4.0087,-4.0087,-4.0087,-4.0087,-4.0087,-4.0087,-4.0087,-4.0087,-4.0087,-4.0087,-4.0087,-4.0087,-4.0087,-4.0087,-4.0087,-4.0087,-4.0087,-4.0087,-4.0087,-4.0087,-4.0087,-4.0087,-4.0087,-4.0087,-4.0087,-4.0087,-4.0087,-4.0087,-4.0087,-4.0087,-4.0087,-4.0087,-4.0087,-4.0087,-4.0087,-4.0087,-3.9766,-3.9529,-3.9631,-3.9562,-3.8582,-3.7838,-3.7449,-3.6818,-3.6055,-3.6037,-3.6374,-3.6981,-3.7703,-3.8234,-3.8658,-3.8676,-3.8707,-3.8707,-3.8707,-3.8707,-3.8707,-3.8707,-3.8707,-3.5489,-3.5489,-3.5489,-3.5489,-3.5489,-3.5489,-3.5489,-3.5489,-3.5489,-3.5489,-3.5489,-3.5489,-3.5846,-3.6102,-3.6322,-3.6692,-3.6859,-3.6859,-3.71,-3.769,-3.7515,-3.7905,-3.8635,-3.9437,-3.9332,-3.9731,-4.007,-4.0087,-4.0087,-4.0087,-4.0087,-4.0087,-4.0087,-4.0087,-4.0087,-4.0087,-4.0087,-4.0087,-4.0087,-4.0087,-4.0087,-4.0087,-4.0087,-4.0087,-4.0087,-4.0087,-4.0087,-4.0087,-4.0087,-4.0087,-4.0087,-4.0087,-4.0087,-4.0087,-4.0087,-4.0087,-4.0087,-4.0087,-4.0087,-4.0087,-4.0087,-4.0087,-4.0087,-4.0087,-4.0087,-4.0087,-4.0087,-4.0087,-4.0087,-4.0087,-4.0087,-4.0087,-4.0087,-4.0087,-4.0087,-4.0087,-4.0087,-4.0087,-4.0087,-4.0087,-4.0087,-4.0087,-4.0087,-4.0087,-4.0087,-4.0087,-4.0087,-4.0087,-3.9986,-3.9969,-3.9952,-3.9935,-3.958,-3.9225,-3.9073,-3.8785,-3.7905,-3.7263,-3.7005,-3.6757,-3.626,-3.6433,-3.6843,-3.736,-3.7911,-3.8318,-3.8627,-3.8676,-3.8707,-3.8707,-3.8707,-3.8707,-3.8707,-3.8707,-3.8707,-3.5489,-3.5489,-3.5489,-3.5489,-3.5489,-3.5489,-3.5489,-3.5489,-3.5489,-3.5489,-3.5489,-3.5504,-3.5619,-3.5831,-3.5816,-3.607,-3.6054,-3.6446,-3.6676,-3.6859,-3.6904,-3.7381,-3.7962,-3.843,-3.8486,-3.8778,-3.9279,-4.0087,-4.0087,-4.0087,-4.0087,-4.0087,-4.0087,-4.0087,-4.0087,-4.0087,-4.0087,-4.0087,-4.0087,-4.0087,-4.0087,-4.0087,-4.0087,-4.0087,-4.0087,-4.0087,-4.0087,-4.0087,-4.0087,-4.0087,-4.0087,-4.0087,-4.0087,-4.0087,-4.0087,-4.0087,-4.0087,-4.0087,-4.0087,-4.0087,-4.0087,-4.0087,-4.0087,-4.0087,-4.0087,-4.0087,-4.0087,-4.0087,-4.0087,-4.0087,-4.0087,-4.0087,-4.0087,-4.0087,-4.0087,-4.0087,-4.0087,-4.0087,-4.0087,-4.0087,-4.0087,-4.0087,-4.0087,-4.0087,-4.0087,-4.0087,-4.0087,-4.002,-3.9783,-3.9681,-3.9597,-3.9529,-3.9259,-3.8954,-3.8667,-3.8091,-3.7212,-3.6937,-3.6763,-3.6583,-3.6454,-3.6736,-3.7058,-3.7524,-3.8013,-3.8332,-3.8546,-3.8676,-3.8707,-3.8707,-3.8707,-3.8707,-3.8707,-3.8707,-3.8707,-3.5489,-3.5489,-3.5489,-3.5489,-3.5489,-3.5489,-3.5489,-3.5489,-3.5489,-3.5489,-3.5489,-3.5489,-3.5489,-3.5489,-3.5489,-3.5489,-3.5554,-3.5879,-3.6054,-3.6102,-3.6554,-3.6859,-3.7219,-3.7632,-3.8189,-3.8541,-3.9454,-4.0087,-4.0087,-4.0087,-4.0087,-4.0087,-4.0087,-4.0087,-4.0087,-4.0087,-4.0087,-4.0087,-4.0087,-4.0087,-4.0087,-4.0087,-4.0087,-4.0087,-4.0087,-4.0087,-4.0087,-4.0087,-4.0087,-4.0087,-4.0087,-4.0087,-4.0087,-4.0087,-4.0087,-4.0087,-4.0087,-4.0087,-4.0087,-4.0087,-4.0087,-4.0087,-4.0054,-4.0054,-4.007,-4.0087,-4.0087,-4.0087,-4.0087,-4.0087,-4.0087,-4.0087,-4.0087,-4.0087,-4.0087,-4.0087,-4.0087,-4.0087,-4.0087,-4.0087,-4.0087,-4.0087,-4.0087,-4.0087,-4.0087,-4.0087,-4.0087,-3.9749,-3.9529,-3.9123,-3.9106,-3.8903,-3.8514,-3.8142,-3.7702,-3.7178,-3.6552,-3.6395,-3.6486,-3.668,-3.6696,-3.6978,-3.7323,-3.7685,-3.798,-3.8216,-3.8415,-3.8627,-3.8707,-3.8707,-3.8707,-3.8707,-3.8707,-3.8707,-3.8707,-3.5489,-3.5489,-3.5489,-3.5489,-3.5489,-3.5489,-3.5489,-3.5489,-3.5489,-3.5489,-3.5489,-3.5489,-3.5489,-3.5489,-3.5489,-3.5489,-3.5604,-3.5943,-3.5831,-3.5943,-3.6399,-3.6676,-3.698,-3.7456,-3.8189,-3.887,-3.961,-3.9952,-4.0087,-4.0087,-4.0087,-4.0087,-4.0087,-4.0087,-4.0087,-4.0087,-4.0087,-4.0087,-4.0087,-4.0087,-4.0087,-4.0087,-4.0087,-4.0087,-4.0087,-4.0087,-4.0087,-4.0087,-4.0087,-4.0087,-4.0087,-4.0087,-4.0087,-4.0087,-4.0087,-4.0087,-4.0087,-4.0087,-4.0087,-4.0087,-4.0087,-4.007,-4.0037,-3.9935,-3.9901,-3.9901,-3.9884,-3.98,-3.98,-4.0054,-4.0054,-4.0087,-4.0087,-4.007,-4.007,-3.9952,-3.9935,-3.9952,-3.9969,-3.9935,-3.9834,-3.9834,-3.9884,-3.9901,-3.9901,-3.9935,-3.9766,-3.9462,-3.9056,-3.8481,-3.8159,-3.7804,-3.7347,-3.6992,-3.6857,-3.6485,-3.6028,-3.5989,-3.6134,-3.6537,-3.6921,-3.7076,-3.7323,-3.7755,-3.8013,-3.8183,-3.8415,-3.8658,-3.8707,-3.8707,-3.8707,-3.8707,-3.8707,-3.8707,-3.8707,-3.5489,-3.5489,-3.5489,-3.5489,-3.5489,-3.5489,-3.5489,-3.5489,-3.5489,-3.5489,-3.5489,-3.5489,-3.5489,-3.5489,-3.5489,-3.5489,-3.5554,-3.5894,-3.6275,-3.6492,-3.6399,-3.6508,-3.6904,-3.7616,-3.8596,-3.9209,-3.9542,-3.9558,-4.002,-4.0087,-4.0087,-4.0087,-4.0087,-4.0087,-4.0087,-4.0087,-4.0087,-4.0087,-4.0087,-4.0087,-4.0087,-4.0087,-4.0087,-4.0087,-4.0087,-4.0087,-4.0087,-4.0087,-4.0087,-4.0087,-4.0087,-4.0087,-4.0087,-4.0087,-4.0087,-4.002,-4.002,-4.002,-4.0003,-3.9817,-3.9749,-3.9868,-3.9665,-3.9191,-3.9174,-3.9191,-3.9073,-3.8819,-3.9022,-3.98,-3.9952,-4.0054,-4.007,-4.0037,-4.002,-3.9648,-3.9445,-3.9495,-3.9529,-3.9259,-3.8954,-3.9039,-3.9157,-3.914,-3.9106,-3.9056,-3.8886,-3.8616,-3.8582,-3.7956,-3.728,-3.6823,-3.6366,-3.6502,-3.662,-3.6163,-3.5774,-3.5701,-3.5783,-3.6291,-3.6684,-3.6981,-3.7323,-3.7755,-3.798,-3.815,-3.8382,-3.8707,-3.8707,-3.8707,-3.8707,-3.8707,-3.8707,-3.8707,-3.8707]}]]